GFSMA_500_spd_000.txt.gz
Wind_Speed
25 28 30 33 35 37 40 41 42 39 38 38 37 37 37 38 39 41 41 42 43 44 44 44 45 46 47 48 49 50 52 53 53 53 52 52 52 51 49 47 46 45 45
30 32 34 36 36 36 36 35 35 35 35 36 37 38 39 40 41 42 44 45 46 49 51 51 51 52 52 53 54 54 55 55 55 55 54 54 53 53 52 51 49 49 47
35 36 36 36 35 35 35 34 34 35 35 37 38 41 42 44 46 48 49 50 51 52 53 55 56 56 56 56 57 58 59 59 59 60 59 58 58 57 56 55 54 52 51
38 38 36 35 35 35 35 36 37 39 41 41 42 44 46 48 50 52 53 54 54 54 54 53 56 57 57 56 56 57 58 59 60 61 61 61 61 61 61 60 58 57 56
38 36 35 35 35 36 38 40 42 44 45 47 49 50 50 49 49 50 53 55 57 58 59 59 58 59 61 61 60 59 59 59 60 61 61 61 60 61 62 61 61 60 58
35 35 35 36 38 40 42 44 46 49 50 50 49 49 50 51 53 56 57 60 61 63 65 66 66 65 65 67 69 70 69 68 66 65 65 63 62 61 61 62 62 62 60
37 38 39 40 42 43 46 47 47 46 47 50 52 53 55 58 60 63 65 67 68 69 71 72 74 75 76 77 75 75 75 74 73 73 70 67 64 64 63 63 62 63 63
39 40 41 43 44 45 45 46 48 49 51 54 57 60 62 62 65 68 70 72 73 74 75 77 78 80 80 81 82 82 80 79 78 77 76 71 70 69 67 66 65 63 64
39 41 42 43 43 44 45 47 48 51 55 57 62 67 70 72 73 73 74 76 78 80 81 82 83 85 86 88 88 87 86 86 83 83 83 82 80 76 73 71 69 67 67
41 42 42 43 45 47 48 51 53 58 62 67 70 71 74 79 84 84 84 86 87 88 89 90 90 91 93 94 93 90 90 89 87 88 87 82 82 71 74 75 74 72 69
41 42 45 46 49 51 54 58 63 67 71 73 75 79 82 82 84 88 91 93 94 96 95 97 97 98 99 100 100 96 92 89 88 85 76 75 80 73 69 77 74 74 71
44 46 48 50 53 57 61 65 69 71 73 76 78 81 85 89 92 94 95 95 97 96 99 99 101 102 104 103 99 94 95 89 83 81 84 77 78 82 79 77 81 73 81
46 51 53 56 59 62 65 69 70 73 75 79 83 86 88 92 95 98 102 102 104 103 104 102 103 103 103 100 92 87 80 77 78 75 79 82 80 86 84 76 71 73 78
51 53 57 60 63 65 67 70 73 77 81 84 87 91 94 97 100 103 104 108 109 108 105 100 97 94 90 84 79 76 69 68 72 76 78 79 84 79 84 93 87 77 67
55 58 61 63 65 68 71 75 78 82 85 89 93 95 98 99 99 101 102 102 103 105 103 92 89 83 85 80 76 74 67 66 68 68 71 80 82 84 88 76 99 96 82
59 62 64 66 68 72 76 80 82 86 90 94 97 99 100 99 100 100 99 97 96 99 100 88 83 84 84 85 80 75 70 69 68 67 64 67 73 79 82 84 82 86 104
63 65 67 69 73 77 80 82 86 90 94 97 100 100 101 101 98 97 95 94 92 90 92 83 83 75 80 86 86 82 76 72 68 66 67 67 66 68 74 75 82 85 86
67 68 70 74 77 80 83 87 90 93 97 98 100 101 99 97 95 94 92 88 86 83 81 77 69 66 65 66 73 85 84 77 72 68 67 65 60 59 60 63 64 67 72
69 71 74 77 81 83 87 89 92 95 97 100 98 97 97 94 91 90 87 83 77 72 69 75 72 68 68 67 69 69 73 83 78 72 70 69 66 63 61 60 57 57 59
72 75 78 80 83 86 88 91 94 98 98 96 95 96 90 90 90 87 80 73 70 68 71 73 67 68 68 63 65 62 62 65 78 78 74 74 71 71 69 66 65 63 64
74 78 79 82 85 87 90 95 98 99 96 95 92 86 88 89 87 79 73 70 70 69 70 66 65 65 63 60 57 54 53 53 60 74 80 77 76 74 73 73 73 73 73
77 79 82 85 86 90 95 96 97 96 92 88 84 84 87 88 79 72 69 68 67 67 62 64 64 61 56 56 52 49 45 41 44 48 64 76 79 78 78 80 84 84 76
78 82 84 87 90 93 95 95 93 88 84 83 83 85 87 81 72 68 65 62 61 58 58 63 65 59 57 52 51 44 38 36 30 29 41 49 57 63 66 62 59 58 59
81 83 86 88 92 94 94 91 85 82 81 81 83 86 83 74 70 66 62 58 54 54 57 61 61 58 54 50 46 40 32 23 18 18 23 25 34 37 40 42 44 46 48
82 85 89 91 93 92 89 82 80 79 78 79 83 85 74 70 67 62 59 55 51 52 54 57 52 51 49 44 39 28 19 10 5 7 14 15 18 21 27 31 35 38 41
85 90 93 94 92 88 82 78 78 77 78 78 83 77 70 66 62 57 56 56 53 52 52 43 41 41 39 36 32 24 14 6 8 7 6 7 4 15 17 19 24 29 33

GFSMA_500_spd_003.txt.gz
Wind_Speed
26 28 30 32 33 35 37 39 39 39 38 36 37 36 37 37 37 38 38 39 40 42 45 46 47 48 50 50 51 51 51 52 53 53 53 52 53 52 52 51 51 50 50
29 31 34 35 36 37 37 36 36 35 35 34 36 36 38 39 40 41 42 43 44 45 47 49 50 51 51 52 53 53 54 55 55 55 56 56 56 56 55 54 53 53 53
33 35 37 38 38 37 36 36 35 35 35 37 38 40 41 42 44 46 47 47 47 46 45 47 50 52 54 55 56 56 57 57 57 56 56 56 55 56 57 57 57 57 56
36 37 37 36 35 34 35 36 37 38 40 41 42 43 44 44 44 44 45 46 47 49 51 51 54 58 61 62 63 63 63 63 62 60 59 58 58 57 56 56 56 56 57
35 34 32 32 33 34 36 37 38 40 41 42 43 43 42 43 45 47 50 51 54 56 59 61 64 65 66 68 70 70 70 69 69 70 69 68 67 67 65 62 61 61 59
32 32 33 34 35 36 37 38 40 42 43 44 43 43 43 45 47 50 52 54 57 60 64 67 68 70 71 71 73 76 78 78 78 76 75 75 74 74 72 70 68 66 64
33 34 36 35 36 37 39 40 40 42 43 45 47 47 50 51 54 57 59 61 64 67 68 70 72 75 77 75 78 82 81 82 84 83 81 78 77 75 73 73 71 67 64
35 36 36 37 39 40 41 43 44 46 48 49 51 54 56 56 59 63 67 70 72 74 76 77 79 80 83 83 84 86 89 91 90 90 89 87 86 85 83 78 73 72 71
37 37 38 40 41 43 45 47 48 49 51 54 59 63 66 68 71 72 74 77 79 81 83 83 84 84 86 86 86 89 92 94 95 97 97 95 94 93 88 86 83 78 75
39 40 41 42 44 45 46 48 51 55 58 62 64 65 69 74 78 80 81 81 83 85 85 86 87 88 89 91 92 94 94 97 97 98 97 98 97 94 80 76 75 79 78
41 42 43 44 45 49 50 53 56 59 62 65 66 70 73 75 78 82 85 87 87 89 88 90 94 96 97 99 98 99 98 98 96 96 96 95 97 95 87 78 63 54 74
41 42 43 47 50 52 55 58 61 63 64 66 69 73 78 81 84 87 89 91 92 92 96 98 102 103 103 103 103 103 102 98 91 89 86 83 82 91 92 91 82 76 56
43 46 49 51 54 56 60 62 64 66 68 71 74 78 81 84 88 92 95 95 95 96 99 100 100 102 103 103 102 96 95 86 88 84 77 70 74 80 87 89 91 87 80
48 50 52 55 58 61 64 66 68 70 73 76 79 82 85 88 92 95 98 103 104 105 102 99 98 97 97 96 92 89 86 85 85 82 79 74 68 72 76 87 94 95 90
50 53 57 60 63 65 67 69 71 74 76 80 83 87 90 93 97 100 103 108 112 111 105 99 97 90 89 86 85 83 80 79 82 82 81 79 73 69 69 78 90 96 96
55 58 61 64 67 68 71 73 75 78 81 84 88 91 95 99 102 104 108 109 109 107 105 94 89 81 77 76 74 70 66 67 66 66 69 74 78 71 69 73 76 89 96
59 63 65 68 70 71 73 75 79 82 85 88 93 96 99 102 106 108 108 106 102 97 96 87 85 76 71 67 64 67 69 69 66 65 67 68 72 78 72 71 73 74 86
64 67 69 70 72 73 75 78 81 84 88 92 96 101 105 106 106 104 102 99 93 90 92 90 80 72 66 64 64 66 69 66 67 67 68 69 70 76 77 72 72 73 73
68 70 71 71 72 75 78 81 84 87 92 97 101 103 104 104 101 99 96 91 89 88 87 83 75 68 64 62 63 62 61 63 65 66 65 65 64 69 77 75 73 73 74
71 71 70 72 75 77 80 82 86 90 94 97 99 101 100 98 96 93 88 86 87 86 80 76 71 66 63 59 61 63 63 61 59 60 58 57 54 59 71 79 74 71 71
71 69 71 73 75 77 80 87 93 97 98 98 97 98 97 92 88 84 84 86 86 79 74 70 65 63 58 59 63 64 63 55 50 51 50 47 47 50 59 74 73 72 69
68 70 71 72 75 80 88 93 98 99 97 97 96 94 87 83 81 80 85 85 78 73 67 63 60 61 59 61 63 60 56 52 40 36 42 35 36 37 47 67 71 71 70
67 69 72 76 81 87 93 97 98 98 97 95 91 84 79 79 78 82 84 76 68 63 60 62 63 60 60 59 58 52 46 38 31 24 29 22 24 25 35 52 68 68 69
68 72 77 82 87 93 97 99 99 98 94 87 79 76 78 77 77 86 80 68 61 61 59 61 59 54 56 54 52 47 35 26 20 19 15 3 10 13 23 36 55 62 63
73 78 83 88 94 98 99 99 96 92 84 76 74 75 77 75 81 84 73 65 62 61 58 54 51 51 49 49 45 37 28 21 12 2 6 3 5 4 6 15 27 39 47
79 84 89 95 98 98 97 95 90 83 77 73 71 73 74 76 85 74 64 63 59 54 48 43 42 41 42 36 34 32 25 14 9 7 3 5 3 4 6 8 12 17 24

GFSMA_500_spd_006.txt.gz
Wind_Speed
28 28 28 29 31 33 33 34 35 37 38 38 38 37 35 34 33 35 35 36 37 38 39 41 42 43 43 43 43 45 45 46 47 47 48 49 50 51 52 53 52 52 51
32 31 32 33 35 36 36 37 36 36 36 36 35 34 34 35 36 37 38 39 39 39 39 39 41 43 45 47 47 48 49 50 52 53 53 53 53 52 53 54 55 55 54
32 33 36 37 37 36 34 32 32 31 32 33 33 34 34 36 37 39 39 40 40 39 40 43 44 46 49 53 54 56 57 59 60 60 60 61 60 60 57 56 56 55 54
33 35 37 36 33 32 30 30 30 31 32 33 34 35 34 36 38 39 41 41 42 44 45 46 47 51 52 55 58 60 63 64 65 65 65 66 66 65 65 64 62 61 60
36 37 37 34 32 31 32 32 33 33 33 34 35 36 37 39 40 41 42 45 47 49 51 53 55 57 59 59 63 65 68 69 68 68 70 70 70 70 70 69 69 70 70
37 38 38 37 37 35 34 34 34 35 37 37 38 39 41 43 45 46 48 51 53 55 57 60 63 64 66 68 68 68 71 75 76 75 77 77 78 76 75 74 74 73 71
38 39 39 38 37 36 36 37 37 38 40 42 43 43 44 47 49 53 57 59 61 63 65 68 70 71 72 73 74 74 74 77 79 80 82 83 84 85 83 83 79 79 78
41 41 38 36 37 39 40 40 41 42 44 46 48 51 52 52 56 59 60 62 63 65 67 69 71 73 75 77 79 80 78 78 81 83 84 85 87 89 89 89 88 86 85
40 38 38 39 40 41 42 43 44 47 48 51 55 61 64 65 66 62 62 65 67 70 71 74 77 79 82 84 84 84 85 86 86 87 87 87 90 93 94 95 95 90 86
41 40 40 40 41 42 43 46 50 51 54 58 61 64 66 70 73 72 70 72 73 75 77 79 82 84 87 88 88 89 92 93 94 93 92 90 92 96 99 100 99 98 90
40 41 40 41 43 46 50 52 54 57 60 63 65 67 69 71 74 78 77 78 79 81 83 86 89 90 92 93 95 99 101 102 101 100 100 100 101 100 99 101 105 106 104
38 40 42 44 48 50 52 55 58 61 63 65 68 70 73 76 78 80 82 82 84 87 90 92 95 96 99 103 105 105 103 103 103 103 102 102 101 98 95 93 94 97 100
40 43 46 48 50 53 55 58 62 65 68 70 71 73 76 78 81 84 88 89 91 91 94 95 99 102 106 107 106 106 104 100 96 94 93 92 91 91 87 82 79 81 87
44 46 48 51 53 57 60 63 66 69 71 72 74 75 77 80 84 89 94 99 99 99 99 102 104 103 104 104 101 97 94 88 85 82 81 81 81 81 80 79 78 80 79
46 49 51 54 58 61 64 67 69 71 73 73 75 77 81 85 89 93 98 105 110 109 104 103 105 99 97 96 92 89 84 79 77 75 74 72 71 71 70 70 72 73 78
49 52 56 59 63 65 68 70 72 73 74 75 78 81 85 90 95 101 105 107 107 108 111 101 98 94 89 85 80 83 80 76 71 69 68 67 69 69 67 65 65 63 69
53 57 61 64 66 69 71 72 72 73 75 77 81 87 93 99 103 106 106 105 103 102 103 97 91 84 79 79 76 74 75 74 69 65 65 64 64 66 66 66 65 63 64
58 62 65 68 70 70 70 70 71 74 77 82 88 94 99 104 105 105 104 100 98 94 94 94 84 81 80 76 71 69 66 64 65 62 63 62 62 64 64 64 67 66 64
62 66 69 69 68 67 67 69 73 78 83 89 95 100 104 105 103 101 96 92 89 88 86 85 82 79 79 68 64 59 58 58 58 61 63 64 66 66 64 63 65 67 69
66 68 67 65 64 65 70 74 79 84 89 95 100 102 102 101 98 93 88 86 85 84 81 81 83 80 67 62 63 62 57 56 56 59 56 56 59 59 58 58 60 60 63
69 66 62 61 65 71 76 81 86 90 95 100 100 100 99 95 90 84 82 81 80 80 78 83 84 70 66 66 65 63 59 52 47 50 52 48 53 49 49 50 51 53 55
66 60 61 66 71 76 81 85 92 97 100 100 100 96 92 87 80 75 74 76 76 77 85 84 71 67 65 64 58 57 55 48 40 39 44 37 41 35 37 38 39 41 44
60 60 65 69 75 81 88 97 103 104 102 99 95 90 84 76 73 71 70 71 71 78 82 70 67 66 64 58 54 50 44 40 34 30 34 22 26 18 18 17 20 24 29
60 65 69 76 83 90 93 102 107 106 101 94 88 81 75 69 69 71 71 72 77 81 63 62 64 62 58 53 46 39 36 27 24 24 26 7 11 12 16 18 25 23 21
65 70 76 83 90 94 98 107 110 103 95 86 77 71 69 67 68 72 76 80 81 61 54 57 53 50 46 39 36 32 27 21 16 19 18 5 8 6 8 15 17 9 9
71 76 81 88 95 98 104 110 104 98 88 78 69 66 67 70 72 77 82 80 60 49 49 43 36 32 33 34 34 29 25 20 17 14 17 7 6 4 3 6 6 10 4

GFSMA_500_spd_009.txt.gz
Wind_Speed
34 34 33 31 30 31 32 35 36 36 37 37 38 36 36 35 34 34 35 35 36 36 37 38 39 40 40 41 40 40 40 42 43 44 44 45 45 45 45 46 47 47 48
37 36 34 32 33 35 36 37 37 34 33 32 32 32 31 32 35 36 36 36 37 38 39 39 41 42 43 44 45 47 47 48 49 50 52 53 53 54 54 54 54 53 54
29 32 32 32 35 36 37 36 34 32 30 30 30 31 32 33 35 38 38 40 41 41 41 42 43 45 48 48 48 50 53 54 53 55 56 57 58 59 60 60 60 60 60
29 29 31 32 35 36 36 35 34 34 34 33 32 33 34 36 37 38 40 41 43 44 45 47 49 50 51 53 54 56 57 60 61 63 64 63 64 64 65 66 66 66 65
30 32 33 34 36 37 36 35 36 35 35 34 35 36 37 38 39 41 42 44 46 48 51 53 56 58 59 60 61 62 64 66 66 69 70 71 72 71 70 70 72 72 65
35 36 36 38 40 39 36 34 34 36 36 37 37 37 39 41 42 44 46 50 53 55 58 60 61 63 64 66 67 68 69 70 72 74 75 74 76 76 76 75 75 75 75
37 37 39 42 41 39 37 37 37 38 39 39 39 40 43 47 48 51 55 57 60 62 64 66 67 68 69 70 72 74 75 76 77 78 79 79 79 80 79 77 76 77 78
39 40 42 41 39 39 40 40 39 39 42 44 45 47 47 49 53 56 60 62 64 65 67 69 71 73 75 77 78 79 80 82 83 84 84 85 86 85 84 83 83 83 83
41 42 42 42 40 39 39 40 42 43 46 50 53 56 58 60 60 60 62 65 67 68 71 73 75 77 79 81 83 85 87 89 90 91 92 91 91 91 90 91 91 92 91
42 43 41 40 40 40 41 44 47 50 52 54 57 61 66 71 73 71 69 69 71 73 74 75 78 81 83 86 88 90 91 93 95 97 97 97 97 98 99 99 99 98 100
43 40 40 40 41 43 45 48 50 53 56 58 62 64 66 69 72 76 77 77 77 76 77 78 81 84 87 91 94 96 98 99 100 101 102 103 104 104 104 104 105 104 103
39 40 40 42 44 46 48 50 53 55 59 62 65 68 71 72 73 75 77 78 80 80 82 84 88 93 96 98 101 102 103 103 104 104 102 102 104 106 106 105 103 102 104
39 39 42 44 47 49 51 53 56 60 63 65 68 70 72 73 75 78 81 81 83 83 84 89 96 101 105 109 110 109 107 105 103 101 98 96 96 97 98 98 97 95 95
40 42 44 46 49 51 53 57 61 64 66 68 69 69 70 72 75 79 84 90 89 90 90 97 103 108 109 108 106 105 103 101 97 93 90 89 87 84 84 85 84 81 80
42 44 47 49 52 55 59 62 65 67 67 66 65 68 71 75 80 87 92 97 104 103 100 103 109 106 106 104 101 100 96 92 87 80 79 78 77 77 77 75 75 75 76
44 47 50 53 57 60 64 66 67 66 64 63 67 71 76 83 88 94 100 105 110 114 115 108 106 103 99 97 92 90 86 83 77 78 77 72 69 69 69 71 71 71 72
46 50 54 58 61 64 67 66 65 62 64 68 73 79 85 91 96 101 107 110 111 111 111 103 98 93 89 86 78 75 77 82 79 72 67 64 62 62 63 64 64 65 66
51 54 58 62 65 68 68 64 62 65 69 73 80 88 93 98 103 110 112 112 108 103 101 97 87 83 77 71 71 71 75 73 69 68 70 68 64 63 62 63 63 64 64
54 59 64 66 69 69 64 62 65 70 75 82 88 94 98 103 109 113 112 107 100 93 87 84 79 73 70 72 73 75 68 62 64 66 63 62 63 61 60 62 64 65 64
59 64 67 69 70 64 64 67 71 77 83 89 95 101 106 110 114 113 105 95 88 82 77 75 73 72 73 77 79 69 60 61 59 56 54 55 56 57 57 58 57 56 57
64 68 70 70 65 65 67 71 78 84 90 95 100 107 111 115 112 101 92 84 78 74 72 72 74 76 80 76 64 62 60 50 44 47 49 47 50 51 50 48 45 43 43
68 70 70 65 65 67 74 81 87 91 97 103 106 110 115 113 101 86 78 75 73 73 73 77 80 81 72 58 59 52 43 37 30 37 43 38 42 40 38 36 31 29 31
69 68 64 64 68 75 82 86 91 96 100 106 110 116 112 97 85 78 73 73 73 73 78 81 77 61 55 55 45 34 29 30 29 31 38 32 33 30 26 15 18 24 29
64 62 63 69 75 81 86 90 96 101 105 110 116 114 97 84 79 78 79 77 77 75 73 62 49 50 49 38 35 33 26 21 23 30 37 28 26 14 9 12 19 27 34
61 63 68 74 79 85 92 97 102 105 111 114 113 95 85 84 83 82 80 75 67 57 43 38 42 38 36 39 38 32 27 22 18 23 33 16 16 7 6 12 18 21 16
62 67 72 79 85 91 97 102 107 112 114 111 91 84 83 81 76 69 62 54 44 32 32 29 26 32 36 40 40 35 29 22 20 17 25 13 14 10 8 14 17 14 23

GFSMA_500_spd_012.txt.gz
Wind_Speed
31 34 36 36 36 33 32 32 35 37 36 37 36 35 35 35 35 34 34 35 35 37 38 40 41 43 43 43 42 43 43 44 45 46 47 47 47 47 47 47 47 47 47
30 32 31 29 30 33 33 33 36 37 35 34 33 33 34 34 35 36 37 37 38 39 41 42 43 44 46 46 46 47 48 50 50 50 52 53 53 54 54 54 54 54 54
28 26 27 27 27 30 32 33 35 36 35 34 34 35 35 36 37 38 40 41 41 42 44 45 46 47 48 49 50 51 53 54 56 57 58 58 58 57 58 59 59 58 59
24 25 26 28 30 32 33 36 38 38 36 35 35 36 37 38 39 41 42 43 44 45 47 48 49 50 51 53 56 58 60 62 63 64 65 65 66 66 65 65 66 65 64
25 27 29 33 33 35 38 40 40 39 36 37 38 39 40 40 42 43 44 46 47 48 50 53 55 57 60 62 64 66 67 68 68 70 71 72 73 73 72 71 71 72 71
29 32 34 37 37 39 40 41 42 41 38 38 39 40 41 41 43 44 47 49 52 54 57 60 62 64 66 67 68 70 71 72 73 73 73 75 76 76 77 77 77 77 77
32 35 38 39 40 40 40 43 44 43 41 39 39 41 43 45 47 50 53 55 58 61 64 66 68 69 69 71 72 74 75 76 78 79 79 80 81 82 83 83 84 85 85
34 37 40 41 42 42 44 43 40 39 41 42 43 45 45 48 51 54 57 60 63 64 66 68 70 71 73 73 74 75 76 78 79 80 82 84 85 87 89 89 90 90 92
37 40 41 42 43 43 40 38 40 42 44 47 49 51 53 53 54 55 58 61 64 65 66 68 70 71 73 74 75 76 78 80 82 84 86 88 90 92 94 95 96 97 97
40 40 42 43 42 39 40 41 43 45 47 49 54 58 62 65 66 65 63 64 65 67 67 67 68 70 73 75 78 81 84 85 87 90 93 94 96 98 99 101 102 103 105
40 42 43 41 40 41 42 45 48 50 52 55 57 60 65 68 71 75 74 72 66 63 64 68 72 76 80 83 86 89 92 94 97 100 102 104 105 105 107 107 107 108 109
42 42 40 41 43 43 45 47 50 52 55 58 63 65 67 70 71 72 73 73 75 73 74 75 80 84 88 92 96 100 102 105 107 109 109 110 111 111 111 111 111 110 110
40 40 41 43 44 45 47 49 52 56 60 63 66 69 71 71 72 72 72 74 76 77 80 82 89 95 100 103 107 110 113 115 116 115 114 112 111 108 106 104 104 104 103
39 41 43 44 45 48 50 54 58 61 64 67 70 71 70 69 69 72 76 82 83 84 85 90 96 104 109 113 117 120 121 120 117 113 109 107 104 101 99 96 93 92 93
41 43 44 46 48 50 55 58 61 65 69 71 70 69 68 70 72 78 84 90 96 98 93 96 105 111 117 121 122 122 117 109 102 98 96 95 93 88 85 85 84 82 82
43 44 46 48 51 56 58 62 67 70 72 70 68 69 71 74 79 86 92 98 104 109 109 108 112 118 121 123 116 106 98 92 87 81 80 80 81 80 79 77 77 75 74
45 47 49 52 56 59 63 68 72 72 70 68 69 71 75 81 87 92 97 103 108 114 120 116 119 120 113 104 95 90 85 83 80 77 78 81 82 80 74 70 70 72 73
48 50 51 56 59 63 68 72 73 70 68 69 72 77 83 87 92 98 104 108 114 120 126 127 117 100 87 80 77 73 72 73 79 83 84 78 69 67 68 69 71 71 71
50 52 56 59 63 68 72 72 68 67 68 72 78 83 89 94 99 104 110 117 121 124 119 108 97 85 78 75 72 70 71 73 78 73 64 66 67 65 63 62 62 61 61
53 55 58 63 68 72 71 66 66 68 72 78 84 90 96 103 108 112 117 122 124 113 100 93 90 85 81 77 77 77 71 70 57 59 58 56 54 54 53 53 52 52 51
55 58 63 68 72 69 66 66 68 72 77 83 91 97 103 108 113 117 123 118 103 96 93 91 87 84 80 77 76 71 60 49 42 40 42 43 47 48 48 46 42 37 36
58 63 68 70 67 65 66 69 73 77 83 91 96 103 109 114 117 118 105 96 94 91 86 81 77 72 67 64 55 44 40 32 28 33 42 35 45 41 41 39 31 28 23
61 67 67 64 64 66 69 74 78 84 92 97 104 111 113 116 111 98 91 88 82 75 68 65 58 50 44 39 36 29 31 33 30 30 41 34 39 36 38 30 22 15 18
66 65 62 63 65 70 75 79 83 90 98 103 109 113 113 105 93 89 85 75 69 58 51 44 40 38 35 29 34 34 30 25 24 28 30 22 30 32 31 20 14 14 19
64 59 61 65 69 74 79 85 90 97 101 106 111 110 100 90 87 79 71 64 50 39 37 37 35 32 35 38 37 29 25 23 20 25 32 27 27 27 20 16 12 14 20
57 59 64 69 73 78 86 92 96 101 105 110 107 91 85 83 74 68 58 47 39 36 28 25 30 35 34 31 29 29 29 28 27 25 31 29 28 18 15 19 16 17 22

GFSMA_500_spd_015.txt.gz
Wind_Speed
30 34 33 33 34 34 32 28 28 30 34 35 36 37 37 36 36 36 37 37 37 37 39 40 40 42 44 44 45 44 45 45 46 46 46 46 48 48 48 48 49 49 49
30 30 32 31 27 25 26 27 29 31 33 36 37 38 38 38 37 37 38 38 39 39 41 41 42 42 44 46 47 48 48 49 49 50 50 50 51 52 53 54 54 55 55
28 31 30 26 25 25 28 30 31 32 35 37 38 38 38 38 38 38 40 40 41 43 44 44 44 45 46 47 48 49 51 51 53 54 56 57 58 58 58 59 60 60 60
29 31 26 24 26 28 32 33 35 36 38 39 41 40 39 40 41 41 42 43 44 45 46 47 48 49 50 51 53 54 57 59 61 62 64 64 65 66 66 66 67 67 67
30 31 30 29 31 33 36 36 37 39 41 42 44 43 41 41 42 43 44 45 46 47 49 51 53 54 56 58 60 62 63 63 64 66 67 67 69 70 71 72 73 73 73
32 32 28 31 33 36 39 41 43 43 42 42 43 42 40 40 42 44 46 48 50 51 54 56 58 59 61 63 64 66 67 67 68 69 70 70 71 72 73 75 76 78 78
29 27 30 33 36 39 42 43 45 45 43 38 36 39 41 43 45 47 50 52 55 57 59 61 63 65 66 68 69 69 70 70 71 71 71 72 74 75 75 76 78 80 82
26 28 32 36 39 41 42 45 47 42 37 38 40 41 42 45 48 51 54 56 59 61 64 66 67 69 69 68 67 67 67 69 70 71 72 74 75 76 77 79 81 83 84
30 33 37 39 40 42 45 47 42 39 41 43 44 45 46 47 50 51 56 60 63 65 66 67 67 67 66 65 64 65 69 73 75 77 79 80 82 83 84 86 87 88 89
34 38 40 41 42 45 47 43 42 43 44 46 48 51 54 57 60 58 57 60 64 66 66 65 64 65 66 69 72 75 78 81 83 85 86 89 90 90 91 92 93 95 97
39 41 42 43 45 46 45 44 44 46 47 49 51 55 59 63 66 67 65 65 64 62 61 62 65 69 72 77 81 85 87 89 91 93 96 97 99 100 102 102 104 105 105
42 43 43 45 46 44 44 45 47 48 50 53 57 62 64 67 68 71 72 72 71 66 66 67 72 77 82 86 90 93 96 99 101 103 106 109 112 114 115 116 117 116 115
43 43 45 45 44 44 46 47 49 52 56 60 63 65 69 72 74 75 74 72 72 72 74 78 83 87 91 96 101 104 107 110 113 116 119 122 124 125 126 125 123 121 119
43 45 44 44 44 46 47 50 53 56 60 63 66 70 72 76 76 73 74 75 76 76 78 82 88 96 103 108 112 115 117 119 121 125 127 127 124 121 115 110 108 106 105
44 44 43 44 46 48 50 53 56 60 63 67 71 74 76 74 71 72 74 79 84 86 84 89 97 102 108 113 118 124 128 130 131 127 117 106 100 95 92 90 88 86 86
42 42 45 47 48 51 53 56 60 65 67 72 75 77 73 71 72 74 79 84 90 96 98 98 105 113 119 124 129 132 131 125 112 99 91 87 83 79 77 76 76 76 77
42 44 47 48 50 53 56 61 64 67 72 76 77 73 72 73 76 80 85 92 99 106 111 107 115 121 126 129 127 122 112 102 94 87 82 77 75 74 75 76 77 78 77
44 46 49 51 54 56 61 63 67 72 77 75 71 72 74 78 81 87 93 99 104 112 120 126 125 122 117 106 99 96 93 92 91 88 81 77 76 77 76 74 69 68 68
46 49 52 54 57 59 62 67 72 77 72 71 73 76 79 83 88 94 101 107 113 119 125 124 116 103 96 91 88 83 76 73 71 69 66 65 66 65 60 59 56 53 52
49 52 55 57 58 62 66 72 74 70 70 73 76 80 85 90 96 102 108 114 121 124 116 101 94 89 83 78 71 63 50 48 46 44 42 45 48 48 49 48 45 42 41
53 56 56 58 61 66 71 72 68 70 72 75 79 86 92 97 104 109 116 120 117 106 93 86 77 72 63 52 48 43 38 30 30 32 35 36 43 45 46 46 44 42 37
56 54 56 60 66 69 72 68 70 72 75 80 86 92 98 105 110 116 116 107 95 88 79 72 63 55 50 46 38 37 38 37 28 36 41 37 43 41 43 40 41 41 37
53 57 61 66 69 68 66 68 71 74 80 86 93 100 105 110 114 110 100 89 81 74 65 55 52 45 40 45 41 33 30 27 26 28 29 27 32 30 32 33 35 34 22
57 60 65 68 63 65 67 70 74 80 87 94 100 105 110 111 106 94 85 77 69 54 44 45 40 41 41 36 34 31 28 26 26 32 31 26 33 32 33 33 24 21 12
60 64 64 62 63 66 69 74 80 86 91 97 103 108 110 103 87 80 71 59 46 38 37 34 40 39 37 36 34 29 26 26 27 33 34 30 33 28 28 26 19 14 13
62 58 60 62 65 68 73 80 86 91 96 102 106 103 92 82 75 65 53 46 36 29 31 32 31 32 32 30 31 30 30 31 30 29 34 28 28 24 20 24 14 9 14

GFSMA_500_spd_018.txt.gz
Wind_Speed
27 29 30 31 32 32 30 25 23 24 27 28 30 31 33 36 36 36 36 37 37 37 36 37 37 38 41 40 41 41 41 41 42 42 43 43 43 44 45 45 45 45 46
27 29 29 30 31 30 25 24 26 28 30 31 32 34 35 36 38 38 38 38 37 38 38 39 40 41 42 43 44 44 44 45 45 45 44 45 46 46 47 48 48 49 50
26 28 29 29 31 28 26 27 28 30 33 35 37 38 39 40 41 40 39 38 39 39 40 42 43 44 44 45 46 46 47 48 49 50 51 52 53 54 54 54 55 56 56
26 27 29 30 32 31 30 30 32 34 36 39 43 43 43 43 43 41 38 38 39 40 41 43 44 45 47 48 50 51 52 53 55 56 58 59 59 60 61 61 61 61 62
26 28 31 33 34 31 31 33 34 37 40 42 43 43 43 43 39 38 38 39 41 42 44 46 48 50 51 53 54 55 56 57 59 60 61 62 62 63 64 64 65 65 66
28 31 33 35 30 29 33 35 37 38 40 42 43 41 37 35 37 40 42 43 45 46 47 51 52 54 56 57 58 60 61 63 63 64 64 64 65 65 66 67 67 68 68
30 31 32 29 29 31 34 38 39 39 41 43 41 38 37 39 41 42 44 45 48 51 54 56 58 60 60 62 64 65 66 66 66 67 67 67 66 67 67 66 67 68 69
31 31 31 32 33 35 38 40 40 42 45 44 39 38 39 43 45 45 48 51 54 56 59 61 63 64 66 67 68 68 67 67 67 67 67 67 69 70 71 72 73 74 74
34 34 35 37 39 39 42 42 43 46 46 45 42 42 43 43 44 45 49 55 59 60 63 65 67 68 69 68 66 66 67 68 70 73 74 76 78 80 81 82 82 82 83
37 38 39 42 42 44 44 44 46 47 45 44 45 47 48 51 53 52 53 56 58 62 64 66 66 66 66 66 68 70 73 76 79 82 84 86 88 90 91 93 93 93 92
40 41 43 44 46 47 46 47 48 46 44 46 47 50 53 56 60 64 63 62 63 65 66 66 65 65 65 68 71 75 79 82 85 88 90 94 98 101 102 103 103 103 103
43 43 45 46 48 47 47 48 47 46 47 49 52 55 58 61 64 68 68 66 64 66 68 66 65 67 70 74 78 81 85 89 93 97 100 104 106 108 111 113 113 114 114
43 45 46 48 47 48 48 47 47 48 50 53 56 59 63 68 71 72 72 71 70 70 72 74 75 76 79 82 86 91 96 100 104 108 112 115 118 121 123 124 124 125 126
45 46 47 46 47 48 46 48 49 51 54 57 60 63 68 71 73 76 77 76 74 73 76 78 79 83 88 93 99 104 109 113 117 121 125 127 130 132 133 134 133 131 128
45 45 45 47 46 46 48 49 52 54 57 60 64 68 70 74 77 77 75 77 80 81 77 81 86 91 98 104 110 116 121 125 129 132 134 131 123 115 110 107 104 100 96
42 43 45 45 45 47 50 52 55 57 60 65 65 69 74 78 76 75 77 81 84 87 87 89 95 103 110 116 121 126 128 128 124 116 107 103 102 101 101 96 92 90 86
42 44 44 45 47 50 53 56 58 62 63 64 69 75 77 75 75 79 82 85 88 95 100 96 105 109 115 123 123 120 114 104 97 91 84 81 82 80 76 74 74 75 76
42 43 44 47 50 54 56 59 61 60 64 70 74 76 74 76 79 82 85 90 97 103 109 112 111 117 119 112 99 92 86 75 66 63 61 61 57 56 55 55 54 55 57
41 44 47 50 54 57 59 57 60 65 70 75 75 72 75 79 80 85 91 97 105 110 115 120 119 111 98 90 82 64 54 52 51 51 52 50 48 46 41 38 37 37 39
43 46 50 53 55 54 57 61 66 71 74 71 72 75 77 81 87 92 98 108 113 116 116 112 101 91 81 61 48 43 40 47 48 51 50 50 48 45 42 39 35 32 30
46 50 52 51 53 57 62 66 70 73 69 71 74 76 81 87 92 97 107 112 114 110 100 90 82 65 48 41 37 40 35 34 36 40 37 40 39 37 37 34 31 26 24
48 49 51 55 58 62 66 70 70 69 70 72 75 81 88 93 98 105 111 112 103 91 84 70 57 47 36 40 34 34 32 32 30 39 38 31 41 38 39 36 36 34 30
50 53 55 57 61 65 69 66 68 69 71 75 81 87 92 99 105 110 108 96 82 74 63 54 40 41 39 35 36 32 29 30 33 38 37 28 39 37 39 37 38 32 27
52 54 57 60 64 66 65 66 68 71 75 80 86 92 98 104 109 105 93 78 66 53 47 40 45 39 34 36 35 33 30 26 32 38 38 32 34 34 33 33 29 24 17
52 55 59 63 61 63 64 67 70 74 79 85 91 98 104 109 104 90 76 64 48 39 38 44 39 36 36 36 36 31 28 29 29 35 39 34 36 34 34 31 25 12 11
54 59 60 61 61 62 66 69 74 79 85 90 95 103 108 101 84 73 62 48 32 35 38 34 35 35 35 35 34 36 35 34 35 31 36 31 33 30 22 24 14 7 12

GFSMA_500_spd_021.txt.gz
Wind_Speed
28 25 25 26 29 30 30 30 26 21 21 22 24 25 27 30 31 33 34 36 37 37 36 35 35 37 37 38 38 38 40 40 40 40 40 40 40 41 41 41 40 40 40
26 26 26 27 29 29 29 30 27 25 25 27 28 29 32 35 37 39 40 40 40 39 37 36 36 37 38 39 40 41 42 42 43 44 44 45 45 45 45 45 45 45 45
24 24 27 28 29 29 30 31 29 29 29 31 32 33 37 40 40 41 42 42 41 39 37 37 38 39 40 40 41 42 43 44 46 47 48 49 49 50 51 52 53 52 53
24 25 27 28 29 31 33 34 32 31 33 34 35 37 40 40 42 42 41 37 34 35 37 38 40 41 43 44 45 46 47 48 49 51 53 54 54 55 56 57 58 59 59
26 26 28 29 31 33 36 36 32 30 32 35 38 39 40 42 42 38 34 35 37 39 41 43 44 45 46 49 50 52 53 54 55 55 56 57 58 59 60 61 63 63 63
28 29 29 31 32 33 35 30 29 31 34 38 40 40 43 44 41 38 39 40 42 44 45 47 49 51 53 55 56 57 58 58 58 59 61 62 62 63 64 65 66 66 66
31 30 31 33 33 34 32 32 33 35 37 39 40 44 45 45 42 41 42 45 47 48 50 53 55 56 59 60 61 62 63 63 63 64 65 66 67 67 67 68 67 67 68
33 33 34 34 35 35 35 36 39 41 41 42 42 44 45 45 43 44 45 47 50 52 55 58 61 63 64 65 67 66 64 65 67 68 69 70 71 71 72 73 73 72 72
35 36 36 37 37 38 39 41 43 45 46 45 46 47 45 43 42 44 47 51 54 56 60 62 66 67 68 68 68 68 69 70 70 72 73 75 76 77 79 80 81 81 82
38 39 39 39 40 41 42 44 47 49 49 49 49 48 47 47 47 46 47 50 54 58 62 67 68 69 70 69 69 71 72 73 75 77 78 80 81 83 85 86 88 89 91
39 40 40 40 41 43 46 48 50 51 51 50 49 48 49 51 53 55 54 55 57 62 64 66 69 69 67 67 68 70 73 76 79 82 84 87 90 91 93 94 96 97 99
38 40 40 41 43 45 49 51 51 52 52 50 49 50 52 54 56 59 62 64 63 62 64 68 66 66 68 71 73 75 78 81 84 87 90 93 97 100 102 104 107 109 112
39 41 42 43 45 48 50 51 52 52 51 51 52 54 56 58 60 64 66 65 67 68 70 71 71 73 76 78 79 82 86 90 93 97 101 104 108 111 113 116 119 121 123
41 42 43 44 46 48 49 51 52 51 51 53 55 56 59 63 65 65 68 71 70 70 72 75 76 77 80 83 87 92 96 101 105 109 112 116 118 121 123 125 128 130 132
42 42 43 43 45 47 49 50 50 51 53 56 58 61 63 63 65 69 73 74 74 75 72 73 78 83 87 92 98 104 109 114 118 120 121 119 115 111 107 102 100 100 102
41 41 41 42 45 47 49 49 51 53 56 58 61 60 62 66 70 73 73 74 77 76 73 78 84 93 98 104 111 117 118 117 112 105 101 98 94 89 82 76 72 69 69
39 39 40 43 46 47 49 51 54 56 59 59 60 64 68 71 73 71 75 76 77 81 83 81 92 97 105 111 114 113 106 99 91 81 72 64 60 60 56 53 52 53 53
39 40 42 44 45 48 51 53 56 56 57 61 65 67 70 70 72 74 75 78 81 87 93 96 101 108 111 108 99 89 81 69 61 55 53 53 52 49 41 42 43 45 45
39 41 42 44 47 50 53 55 55 59 62 66 68 70 69 72 72 75 79 83 89 95 102 108 110 111 100 85 74 61 51 47 50 49 47 41 41 44 46 45 44 41 39
39 40 43 46 49 52 54 57 59 62 65 68 69 70 71 72 76 79 84 90 95 102 109 114 111 91 76 58 46 42 45 44 44 45 46 42 42 45 46 46 43 41 39
39 42 45 48 51 54 56 59 62 64 67 67 69 69 72 76 80 85 90 97 104 109 112 105 86 73 52 41 45 42 36 38 39 41 40 37 41 43 46 44 41 41 39
41 44 47 51 53 56 59 61 64 66 66 67 68 72 76 80 84 89 96 103 111 108 96 81 68 48 40 46 37 33 36 33 29 38 36 35 41 39 41 42 45 39 31
43 47 49 53 55 58 60 64 64 65 65 68 71 76 79 84 91 95 102 108 98 84 77 66 44 42 41 36 33 32 31 28 31 36 36 30 41 40 42 43 43 36 30
46 48 51 54 56 59 62 63 64 64 68 71 75 80 85 90 97 102 106 95 78 69 61 47 39 41 37 35 33 31 30 25 27 34 35 34 39 39 39 39 37 28 23
47 50 52 55 59 60 62 62 64 67 70 74 80 85 91 96 102 103 93 76 63 54 43 37 41 36 37 37 36 33 31 29 25 30 34 36 37 29 33 30 27 21 15
48 50 55 57 59 60 60 63 66 69 73 78 84 90 97 101 98 86 73 62 49 38 39 40 35 35 36 37 38 38 36 32 29 24 32 32 32 26 19 21 21 21 20

GFSMA_500_spd_024.txt.gz
Wind_Speed
30 29 29 29 27 27 28 28 29 29 28 27 26 26 26 27 28 30 32 36 37 40 40 39 40 40 38 37 36 36 37 38 38 39 40 41 41 41 42 42 42 43 43
31 29 28 29 29 28 28 29 30 30 30 30 30 31 31 31 32 34 36 38 39 41 42 40 39 39 38 38 38 38 39 40 41 42 42 44 45 45 45 45 46 46 47
30 29 29 29 30 29 29 31 31 32 33 34 34 34 34 34 35 37 37 39 41 41 39 35 34 34 35 37 40 41 42 43 44 46 46 47 48 48 49 50 51 51 52
31 30 29 30 30 30 31 32 32 34 37 38 34 33 35 36 38 39 40 41 41 39 36 37 38 40 41 43 45 46 47 48 49 50 52 54 55 55 55 55 56 56 57
34 32 31 31 31 31 33 33 34 35 36 31 32 34 36 39 40 40 42 44 43 40 40 41 43 44 46 48 50 52 53 54 56 57 59 60 61 62 61 61 61 62 63
36 33 33 33 33 32 33 34 34 34 33 34 35 37 39 42 42 43 45 46 45 44 44 45 47 49 51 53 55 57 58 60 61 62 63 63 65 66 66 65 65 66 67
37 36 36 35 34 33 35 36 36 36 37 37 39 40 43 44 45 46 48 48 48 47 48 50 52 54 56 57 59 60 63 65 65 66 66 67 66 66 67 68 68 69 69
36 39 38 37 37 36 38 38 38 39 40 41 42 45 47 48 49 50 51 51 50 50 52 54 56 58 60 61 63 66 68 69 68 68 68 68 69 70 71 71 72 73 74
37 38 40 40 40 40 41 41 41 43 44 44 46 48 49 50 50 50 51 51 52 55 57 59 61 63 65 67 70 70 70 70 70 70 72 73 74 75 76 77 77 78 79
37 38 39 41 42 43 43 44 45 45 47 48 49 52 53 54 53 50 47 50 53 57 60 62 65 67 70 72 72 74 74 73 73 73 74 75 77 79 82 83 85 87 88
38 38 39 40 42 43 44 46 47 48 49 50 53 54 54 54 55 54 51 53 56 58 60 62 65 67 69 72 74 72 71 72 74 77 79 81 83 86 88 89 91 92 94
39 39 40 41 43 44 45 47 49 50 51 52 54 54 55 54 53 56 59 59 60 60 61 63 66 70 70 70 70 71 72 71 73 77 80 84 88 91 95 97 99 101 104
41 41 42 42 44 45 46 48 50 51 52 53 53 54 53 55 57 60 62 64 65 64 68 70 67 66 68 69 70 71 74 77 82 87 90 93 98 103 107 110 112 114 115
39 40 41 43 45 46 47 48 50 51 52 52 53 53 55 58 61 63 64 65 66 70 71 73 74 76 76 76 78 78 85 90 96 101 105 109 112 116 118 119 119 119 119
41 40 41 42 43 44 46 48 49 51 52 53 53 56 59 62 62 62 65 70 73 72 71 73 75 77 80 81 85 90 96 102 107 113 117 118 117 109 100 92 84 81 82
42 41 41 42 42 43 45 48 50 51 52 53 56 59 61 61 63 67 70 71 72 74 74 74 77 81 85 89 96 103 108 113 115 115 107 97 88 74 61 55 53 52 51
41 42 42 42 42 43 46 48 50 51 53 56 58 60 62 64 68 70 71 72 73 73 74 73 79 86 94 100 106 112 117 112 99 87 74 62 55 53 43 39 40 41 43
41 42 43 43 42 45 47 49 51 53 56 58 60 62 65 68 69 70 73 72 74 77 79 79 85 93 101 106 112 113 102 85 72 55 54 57 49 46 45 47 47 46 47
41 43 42 41 44 46 48 50 53 56 58 60 63 65 67 69 70 72 72 75 77 80 85 89 93 99 103 110 105 86 73 57 50 52 51 45 47 46 46 46 45 45 46
42 41 40 43 46 47 50 53 55 58 60 63 65 67 68 71 71 73 76 78 83 88 93 99 104 105 105 93 77 63 46 49 51 46 48 44 42 40 43 44 44 48 48
40 38 41 45 47 49 52 55 57 60 62 64 67 68 70 71 74 76 79 84 90 95 101 107 108 103 86 67 53 44 44 40 39 43 42 37 39 41 43 44 47 47 47
37 40 44 46 49 51 54 57 60 61 64 65 68 69 71 72 74 79 85 91 97 103 108 106 96 79 64 48 38 38 35 37 33 37 39 33 39 38 42 42 41 41 45
39 42 45 48 51 53 56 58 61 63 65 67 68 70 71 75 80 85 91 97 104 104 99 86 71 59 44 38 40 36 35 34 33 35 36 30 39 37 40 37 36 37 32
40 44 47 49 52 54 57 60 61 64 66 67 68 71 76 82 87 93 98 103 102 91 76 66 54 41 41 42 41 37 35 32 32 33 36 30 38 34 39 31 28 26 27
42 45 48 50 53 55 58 60 63 64 65 66 71 77 82 87 93 99 104 100 83 68 59 50 43 44 41 41 40 39 38 37 36 33 36 33 37 31 35 26 20 25 28
43 46 48 51 54 56 59 62 62 63 65 70 76 82 86 92 100 104 95 76 61 52 44 46 46 43 44 44 45 43 43 41 38 31 33 30 33 30 21 26 25 26 30

GFSMA_500_spd_027.txt.gz
Wind_Speed
30 31 31 31 32 33 31 32 31 31 32 30 30 30 29 31 31 30 29 30 32 34 34 36 38 38 37 35 34 34 36 37 38 38 38 39 40 40 41 41 41 41 42
30 30 31 32 32 33 33 34 34 31 32 32 32 33 33 33 35 34 33 34 35 36 37 38 38 38 35 33 32 31 33 36 38 40 41 42 43 43 44 45 45 46 45
33 31 31 31 32 33 33 33 34 33 33 33 34 36 37 37 35 35 35 36 38 38 39 40 41 40 37 37 37 38 38 40 42 44 45 46 48 48 49 49 50 51 51
34 34 33 33 34 35 34 34 34 35 35 35 35 36 36 33 33 34 36 39 40 39 41 43 43 43 42 41 42 43 44 45 47 49 50 51 52 54 55 56 56 57 57
36 35 35 36 36 36 36 36 36 35 36 35 35 34 33 33 34 37 38 40 41 42 43 44 47 46 45 45 46 48 50 51 52 54 56 58 59 61 62 62 63 63 63
37 38 37 38 38 38 38 38 37 38 38 38 37 37 36 37 38 40 41 43 44 46 47 48 49 48 47 48 51 53 54 56 58 59 60 61 63 65 66 66 66 65 65
36 38 39 38 40 39 40 40 40 40 40 40 39 39 40 42 42 44 45 47 49 50 51 51 52 50 50 52 55 58 59 60 61 63 65 67 68 68 67 67 67 66 66
37 38 38 39 39 40 42 42 42 42 42 44 43 43 44 46 47 49 50 51 53 53 53 53 52 53 55 58 59 61 63 64 66 68 68 68 68 69 68 69 69 69 70
37 38 38 39 40 41 43 44 45 46 45 46 46 47 47 48 50 50 52 54 55 56 55 54 56 59 61 62 64 66 67 68 69 69 70 72 73 73 74 75 76 76 76
39 39 38 40 41 42 43 44 46 47 48 48 48 50 51 52 53 52 53 54 54 54 56 57 59 62 65 68 69 70 70 70 73 73 73 73 74 76 77 79 80 81 83
38 41 40 41 42 44 45 45 46 47 48 48 49 51 52 53 54 55 53 55 56 56 58 59 61 62 64 66 68 71 73 72 71 73 74 75 76 77 77 79 82 85 87
38 39 41 43 44 45 46 46 47 48 48 49 51 52 53 53 54 56 57 55 55 57 62 64 63 63 65 68 70 71 71 73 74 74 75 77 80 82 84 88 91 94 97
39 39 40 43 45 47 47 47 48 49 50 50 50 52 51 52 54 57 58 59 61 62 63 62 66 68 69 69 70 71 72 73 74 76 76 80 84 89 94 98 102 106 109
39 41 41 42 44 45 46 47 48 48 49 49 50 50 52 54 55 57 60 64 66 66 67 69 69 69 70 72 72 72 74 76 78 81 86 91 96 101 105 109 113 114 113
40 42 43 43 45 46 47 47 47 48 48 49 51 51 53 54 56 59 63 67 69 71 70 68 71 74 77 77 78 78 80 84 89 95 100 105 109 112 113 109 97 87 77
40 43 44 44 44 45 46 47 48 48 49 50 52 52 54 56 60 64 66 68 70 72 73 73 76 77 79 80 82 86 91 95 100 106 111 115 114 107 91 77 60 55 55
41 43 43 44 44 45 46 47 47 48 51 52 52 54 57 60 63 66 68 69 70 73 76 74 76 78 81 85 90 95 101 106 111 115 112 101 88 73 56 51 51 43 44
42 42 44 45 45 46 46 45 46 50 52 52 55 58 61 63 65 67 69 70 73 74 76 76 77 82 88 95 100 106 111 114 110 97 79 68 55 50 51 44 44 44 45
41 43 44 45 46 46 45 44 49 52 52 55 58 61 63 65 67 69 71 73 74 74 76 79 83 90 96 103 108 112 111 97 79 68 53 52 48 45 40 43 44 40 40
42 43 45 46 47 45 44 48 52 53 55 58 61 63 64 67 68 71 72 73 75 78 82 87 90 96 104 110 111 102 84 71 59 47 43 44 41 42 42 41 37 36 39
40 42 46 46 46 44 46 52 53 56 57 59 62 64 66 68 69 70 72 75 80 84 89 94 100 105 108 100 87 73 64 52 42 47 39 43 40 41 42 39 37 36 39
44 44 45 45 42 46 51 53 57 57 59 60 63 65 67 67 68 72 76 80 86 91 97 103 107 104 89 76 65 53 45 42 41 41 41 39 42 40 42 39 37 37 39
47 45 42 41 45 49 54 55 56 57 60 62 64 65 65 68 72 76 80 85 92 99 106 106 96 80 68 55 46 43 45 42 40 43 43 38 42 39 42 41 39 36 36
41 39 40 45 49 53 53 54 56 59 61 62 62 64 68 72 77 80 83 91 99 104 100 86 74 59 49 48 49 46 48 46 41 42 46 39 39 38 40 40 40 35 31
37 41 44 48 50 50 52 56 57 59 60 59 63 67 72 76 80 85 92 98 102 93 78 65 51 49 50 50 52 52 51 49 46 40 44 41 38 37 38 37 40 34 30
40 44 45 47 49 52 55 56 59 58 57 61 66 72 77 81 86 93 98 100 87 71 53 46 48 48 48 47 49 51 51 50 46 42 47 44 36 40 33 34 38 36 30

GFSMA_500_spd_030.txt.gz
Wind_Speed
30 30 28 27 27 30 31 31 32 33 33 33 33 32 31 30 31 29 30 33 33 31 31 31 31 32 34 34 34 33 32 31 29 29 31 33 35 37 37 38 38 39 40
33 31 30 29 28 27 29 30 31 32 33 34 34 35 34 32 32 32 34 35 35 34 33 33 33 34 34 35 36 36 35 35 35 35 35 36 38 39 39 40 41 42 42
34 33 33 31 30 29 28 30 32 33 33 34 35 36 35 34 34 33 32 31 33 33 33 34 34 35 36 37 39 40 40 39 39 40 40 42 43 45 46 47 46 46 47
34 33 33 34 34 33 31 33 33 34 34 35 35 35 36 34 34 31 31 31 30 33 35 35 35 37 39 40 41 43 44 42 42 43 45 47 49 50 51 52 53 54 55
35 34 33 34 35 36 35 35 35 36 36 37 37 37 36 36 35 35 33 34 34 37 37 40 42 42 43 44 45 46 46 45 45 47 49 52 53 55 56 58 59 60 60
34 34 34 34 35 38 38 37 38 38 38 38 40 39 38 38 37 38 38 39 40 42 42 43 44 46 46 47 50 49 47 47 49 52 54 56 57 58 60 61 63 64 64
34 33 33 35 36 37 38 39 39 39 40 41 42 41 41 42 44 42 42 42 44 45 46 48 49 50 50 51 53 50 50 52 55 57 59 59 61 62 63 64 64 65 65
35 35 34 35 35 39 40 39 39 40 41 43 44 45 45 44 46 46 46 46 47 47 49 50 51 52 54 55 54 53 54 56 59 62 62 62 62 63 63 63 64 65 66
37 36 36 35 37 38 41 40 41 42 43 44 45 46 47 48 49 48 48 49 50 50 51 52 52 55 57 56 56 58 62 63 62 63 63 64 65 66 67 68 69 69 70
41 38 36 36 38 40 42 41 43 44 45 46 48 49 49 49 49 49 50 50 49 51 52 52 54 56 57 59 62 65 66 65 65 66 68 68 68 70 71 72 74 75 75
43 39 36 37 38 40 41 42 43 44 45 47 49 49 49 51 52 52 49 49 50 52 53 55 54 55 59 62 64 66 68 69 70 70 70 71 73 75 75 76 76 77 77
41 41 39 38 40 42 41 42 44 45 47 49 49 50 51 52 52 51 51 49 50 51 53 54 57 60 63 64 65 66 68 68 69 71 73 75 76 77 78 79 80 81 82
41 42 42 41 40 42 42 44 45 45 46 47 49 49 50 51 51 52 53 54 54 50 53 56 62 64 65 66 67 67 69 71 73 74 75 77 78 79 81 84 87 90 93
43 43 42 40 41 41 43 45 46 47 48 48 48 49 51 52 52 53 56 57 54 55 57 60 62 65 66 67 69 71 73 72 73 75 77 80 84 88 91 94 98 101 105
45 45 43 41 41 41 43 45 47 48 48 48 50 51 51 53 54 54 55 57 61 63 62 61 63 64 66 69 71 72 72 74 77 82 86 90 94 98 101 105 109 112 114
45 44 43 41 39 41 43 44 46 48 48 50 51 51 52 54 53 54 57 61 64 67 67 65 66 68 69 69 71 74 78 81 86 91 97 102 106 109 111 110 104 91 77
42 42 43 40 40 41 43 45 46 46 50 52 51 52 54 54 55 58 61 64 65 66 68 66 68 68 70 72 75 80 85 91 96 102 107 109 111 107 94 81 67 54 50
42 42 41 39 41 42 44 45 45 47 51 51 52 54 55 56 59 62 64 64 66 67 68 69 68 70 73 77 84 89 94 99 105 107 107 96 86 74 64 47 43 45 42
41 40 41 40 41 44 44 45 47 47 53 52 55 56 58 61 62 64 65 66 66 65 67 70 72 77 81 87 92 98 102 106 102 91 81 70 61 49 41 40 41 41 39
38 40 40 41 44 42 43 46 48 51 53 55 57 60 62 63 64 65 65 65 64 67 71 75 78 82 90 96 101 104 103 92 74 63 55 48 46 43 44 43 43 40 38
37 38 40 39 51 41 44 46 51 51 53 57 61 61 62 64 65 65 64 64 68 71 75 79 85 91 98 103 106 98 80 62 49 52 50 44 46 44 43 43 43 42 39
34 42 41 45 43 46 48 46 48 53 57 60 59 60 63 64 64 63 66 69 74 78 82 88 92 98 104 103 89 68 53 48 48 51 52 48 49 44 44 44 45 44 43
36 42 42 44 45 43 43 48 53 56 58 58 60 62 62 62 63 66 70 73 77 84 91 96 100 104 97 74 57 51 53 53 51 53 57 52 50 44 43 43 46 47 45
43 47 40 40 42 46 48 52 54 54 56 59 60 61 60 63 66 70 72 76 83 92 97 100 99 86 64 51 53 50 47 45 45 48 53 46 45 42 41 42 44 45 45
43 40 41 42 43 46 49 51 52 55 57 59 59 60 63 67 70 73 78 84 90 96 99 92 73 54 49 49 48 48 47 46 45 46 51 47 43 42 39 39 42 44 43
36 37 40 43 45 48 48 51 55 55 57 56 60 64 68 71 74 80 85 91 96 96 84 59 47 48 47 48 50 51 51 51 49 43 48 44 42 42 33 30 36 42 42

GFSMA_500_spd_033.txt.gz
Wind_Speed
27 27 28 28 28 29 28 29 28 29 29 30 31 33 34 34 33 32 32 32 32 32 32 33 34 32 31 29 29 28 28 29 31 32 33 32 31 30 29 30 32 34 36
32 30 31 30 29 29 30 30 28 28 28 29 31 32 33 33 33 34 33 33 32 32 34 32 32 31 30 29 29 30 30 32 34 35 36 37 38 37 37 36 37 38 39
31 32 31 30 29 29 31 30 30 30 31 31 31 31 32 32 33 33 33 33 32 31 30 29 29 30 31 30 31 32 34 35 36 37 39 39 40 41 40 41 42 45 46
29 31 30 30 30 28 29 30 30 32 33 33 33 32 34 34 34 35 34 33 34 34 32 32 32 33 35 36 37 38 38 38 39 40 42 42 42 43 45 46 48 49 51
30 30 30 30 30 30 30 31 32 33 33 34 35 35 35 35 36 37 37 36 38 38 37 38 39 39 39 40 42 42 42 43 43 44 45 44 44 46 48 51 53 54 55
32 28 29 29 29 29 31 32 33 35 35 35 36 36 36 37 38 39 40 41 41 42 42 42 43 44 44 45 46 46 46 46 46 48 47 46 47 50 52 55 57 57 58
34 32 30 30 30 32 32 33 33 34 36 37 37 38 38 39 40 42 43 43 44 44 46 46 47 47 47 47 47 48 48 49 51 50 49 50 52 55 58 58 59 60 60
36 35 33 32 33 33 33 34 36 37 36 38 40 40 40 41 42 43 45 46 47 47 47 48 48 48 48 49 49 49 51 52 52 52 54 57 59 59 59 58 59 60 61
35 34 35 35 36 38 36 36 37 38 39 39 41 42 42 43 44 45 47 48 48 49 49 49 48 49 49 51 51 53 54 53 54 58 61 61 61 60 61 61 61 62 63
37 34 34 37 37 39 38 37 37 37 39 41 41 43 44 46 47 47 48 49 49 49 49 49 49 50 52 53 55 54 55 58 61 62 62 62 63 64 64 64 65 66 68
40 39 36 36 37 39 39 37 39 40 40 41 42 43 44 45 46 47 47 48 48 49 51 51 51 53 54 54 54 56 60 63 64 64 63 64 66 67 68 70 72 73 74
43 40 40 37 37 40 41 41 41 42 41 42 43 43 45 46 48 49 48 48 48 47 50 53 55 55 54 55 59 62 63 63 63 63 64 66 69 70 71 73 74 75 76
46 44 41 40 40 40 42 40 41 41 42 43 43 44 46 47 50 51 52 52 51 49 49 50 53 55 58 61 63 65 64 64 64 65 67 69 71 72 73 76 78 80 83
48 46 42 42 41 42 42 42 41 41 41 43 44 45 47 49 51 53 55 56 54 54 51 51 54 59 62 64 65 66 66 66 66 67 69 71 74 76 79 82 86 89 92
48 46 44 44 43 45 43 42 40 40 42 43 44 47 49 50 53 56 57 57 59 56 52 55 58 60 62 63 64 66 66 67 69 70 73 77 82 85 88 92 95 99 103
46 45 45 44 44 44 44 40 39 41 42 44 46 48 50 53 55 56 57 59 57 59 61 62 62 63 63 62 63 64 66 69 72 76 81 86 90 93 98 101 106 109 107
44 45 45 43 43 45 43 41 40 41 43 45 47 49 52 54 58 59 59 59 62 64 65 65 67 66 64 64 65 67 71 75 80 85 90 95 100 104 108 107 100 90 82
44 44 42 40 43 44 43 41 41 42 45 46 48 50 53 57 61 59 61 63 64 64 66 67 66 64 66 68 72 75 79 83 89 95 100 105 108 105 91 77 66 58 50
42 41 39 38 38 43 41 42 43 43 48 48 50 54 55 60 59 63 65 65 65 66 67 67 65 67 70 74 77 82 88 93 98 105 107 101 83 68 60 53 47 42 45
40 39 34 41 40 38 39 42 49 51 57 53 53 54 58 61 63 65 63 64 66 66 65 66 68 71 75 79 84 88 92 101 104 99 82 66 57 58 57 55 52 49 47
34 39 42 35 39 35 41 44 47 53 54 54 56 58 60 62 62 63 65 66 65 64 67 70 72 75 80 86 92 97 101 102 81 63 58 55 55 55 53 54 55 55 52
35 37 46 41 31 42 44 51 46 51 52 55 57 59 61 61 63 66 66 64 65 69 73 75 77 83 90 96 99 102 99 69 48 52 52 48 52 49 50 51 51 53 54
31 36 23 36 43 34 43 50 51 51 53 55 57 59 60 64 64 63 63 66 69 73 77 81 87 92 96 102 102 85 58 51 48 50 50 48 52 48 49 47 46 49 49
38 41 39 43 52 52 50 48 49 52 54 56 58 61 62 61 61 64 67 70 72 76 83 89 95 100 104 97 73 52 48 46 47 50 54 49 51 49 47 45 48 49 48
32 38 41 43 39 40 45 49 51 52 54 57 59 59 59 61 65 68 71 73 77 84 91 100 104 101 82 59 49 46 47 47 45 48 54 52 50 47 44 40 45 47 48
36 34 34 37 41 44 47 48 50 55 56 55 56 59 63 67 71 73 77 82 87 93 99 104 87 67 49 45 47 48 47 47 47 45 55 52 48 46 36 34 37 42 44

GFSMA_500_spd_036.txt.gz
Wind_Speed
29 28 28 28 27 27 27 29 29 29 28 28 29 30 31 33 33 34 35 35 35 34 33 32 33 34 35 36 35 33 31 31 29 28 27 28 28 30 31 32 31 29 29
29 29 30 29 28 28 29 30 28 28 29 29 29 30 31 31 31 32 33 33 33 34 33 33 32 32 33 33 33 32 31 31 30 30 31 32 32 32 34 35 36 36 35
29 30 31 28 28 28 29 29 28 28 28 30 31 31 31 31 31 31 32 32 32 33 33 33 32 32 32 32 33 34 34 35 36 36 36 36 36 36 37 38 39 39 39
29 31 30 28 27 27 28 28 29 29 29 31 32 32 32 32 32 33 34 34 34 35 35 36 37 37 37 37 37 38 38 40 40 40 40 41 41 41 40 41 42 42 43
31 30 29 27 27 27 27 27 27 28 30 31 33 34 34 34 34 35 36 36 37 37 38 40 40 40 43 43 42 43 44 44 45 44 45 45 44 44 45 45 45 45 47
32 33 31 27 28 28 28 28 29 30 30 31 33 33 34 36 37 37 37 37 39 40 42 43 44 45 45 46 46 47 48 47 47 47 47 47 47 48 48 47 48 50 52
30 32 33 32 32 30 30 31 31 32 32 33 35 35 35 37 38 39 39 39 39 40 41 43 45 47 48 48 48 49 49 49 49 49 49 50 50 51 50 50 52 54 58
31 34 33 31 33 34 34 35 33 34 35 35 36 36 37 38 38 39 40 41 41 42 44 45 46 47 48 49 51 51 50 50 50 51 52 53 54 52 53 55 59 61 60
36 36 34 32 33 36 36 36 37 37 37 36 36 36 36 37 38 40 41 42 43 44 45 45 45 46 47 47 49 49 50 51 52 53 55 55 55 57 60 62 63 61 61
40 40 37 35 35 35 35 35 37 37 37 37 38 40 40 39 39 40 41 42 44 45 46 47 48 49 50 51 51 52 53 54 55 55 55 58 61 64 64 64 63 63 63
43 42 40 39 38 39 38 38 38 38 37 37 40 41 41 41 42 42 43 45 45 46 48 49 50 51 52 53 54 54 54 53 54 57 61 63 65 65 65 65 66 67 68
48 47 45 43 42 43 41 41 39 40 41 40 39 40 41 42 43 44 45 46 46 48 50 53 54 54 55 56 56 55 54 56 59 61 62 64 66 67 67 68 69 70 71
50 50 49 48 47 45 45 44 41 42 42 42 42 42 42 42 44 46 47 48 48 49 51 52 54 56 57 56 56 57 59 61 62 63 63 65 66 66 68 69 71 72 73
51 49 50 50 49 47 46 45 44 44 43 44 44 44 43 44 46 47 48 50 51 53 53 55 55 57 56 58 60 62 64 65 65 65 66 67 67 68 70 72 73 75 78
52 48 49 48 49 49 49 46 46 46 44 47 44 45 45 46 48 49 51 54 57 56 55 57 57 58 60 62 62 64 65 65 66 67 69 70 71 73 75 78 80 83 86
55 50 48 48 49 47 48 47 47 46 46 43 47 47 47 48 50 52 53 57 60 61 61 62 63 64 64 63 65 66 66 67 67 68 71 73 76 79 82 85 88 92 95
55 50 48 48 46 47 47 47 47 45 42 44 49 47 49 49 53 55 57 60 63 66 66 67 67 68 67 68 67 67 68 68 69 72 76 79 82 86 89 93 96 99 103
53 51 49 46 47 46 47 48 51 51 42 45 46 50 54 54 56 58 62 65 64 66 67 68 69 68 69 69 69 68 69 72 76 80 83 87 90 94 97 100 104 105 90
55 53 48 46 45 45 44 44 45 37 44 44 48 50 51 54 59 62 64 64 66 68 70 69 70 70 70 68 69 72 74 77 81 87 92 96 98 101 106 102 86 70 65
50 49 45 44 45 45 46 47 39 42 43 50 51 50 55 58 61 61 66 67 68 68 69 71 71 69 69 71 75 77 78 84 88 95 100 102 106 101 83 70 62 59 59
44 43 42 43 43 44 48 47 45 46 50 61 56 56 58 60 61 64 66 67 67 68 69 69 69 72 73 77 80 83 88 91 97 104 107 98 85 68 60 59 58 58 59
40 37 41 41 40 41 38 42 45 49 59 51 55 58 57 59 62 64 65 67 67 67 68 72 74 77 80 84 88 92 96 100 102 94 83 62 55 52 54 56 58 59 59
33 36 35 41 36 43 36 49 51 56 55 59 55 59 60 61 63 65 64 64 66 70 74 78 79 83 86 92 97 101 105 103 84 58 53 47 54 52 54 55 58 59 61
28 29 31 37 39 45 46 47 51 52 58 55 57 58 59 61 62 62 64 67 70 73 77 81 86 90 97 101 105 102 86 66 45 48 54 46 52 51 52 54 57 60 61
30 31 31 32 41 46 51 54 51 52 53 55 57 59 58 58 62 66 69 71 74 80 85 90 95 100 104 99 86 67 48 43 44 46 54 49 50 51 52 52 54 56 56
31 35 38 36 38 39 40 45 49 51 53 53 55 56 59 63 66 69 73 76 80 85 91 97 102 98 84 66 53 45 45 44 46 47 56 54 53 57 53 48 44 47 48

GFSMA_500_spd_039.txt.gz
Wind_Speed
30 29 29 30 27 25 26 28 27 28 29 28 28 29 30 30 31 33 34 34 34 34 34 32 31 32 31 32 32 35 37 36 35 34 32 31 29 29 28 28 27 27 29
30 29 30 31 28 26 26 27 27 28 28 27 27 28 30 30 31 33 33 33 33 33 33 32 31 31 30 31 31 31 31 34 34 33 32 32 32 32 32 32 31 31 32
29 29 31 31 29 28 28 27 28 28 27 27 26 28 30 32 32 33 33 33 34 34 34 34 33 32 33 34 33 34 34 35 35 36 37 38 38 38 37 37 37 36 35
25 29 32 31 29 28 28 28 28 26 26 26 26 28 30 31 32 33 33 34 34 35 36 36 37 37 37 37 38 38 39 40 41 41 42 42 43 43 42 42 41 41 41
26 29 32 31 29 29 30 29 27 27 27 27 28 29 29 30 31 32 34 34 34 35 35 36 37 39 40 41 41 41 42 43 43 46 47 47 47 47 46 46 45 45 45
30 30 30 30 30 32 32 31 29 30 30 30 31 31 31 33 33 33 33 35 35 35 36 36 37 37 38 39 41 42 44 45 46 48 49 49 49 49 48 48 49 49 49
32 34 34 31 31 34 36 34 34 34 34 34 34 34 35 35 36 36 35 35 36 36 37 38 39 40 40 41 42 43 43 44 46 47 48 50 51 51 51 51 51 52 53
35 36 37 35 34 34 35 36 37 37 38 38 38 37 36 36 35 35 36 36 36 36 38 39 39 40 41 42 43 44 45 46 47 48 49 50 50 52 53 53 54 55 54
40 41 41 38 38 33 34 35 37 37 38 38 38 37 36 37 37 38 39 40 41 41 41 42 42 41 41 42 44 45 47 48 50 51 52 53 54 55 55 55 55 55 56
42 44 44 41 38 37 38 38 38 38 38 38 38 38 38 38 38 38 40 41 41 43 44 44 44 44 44 44 45 47 48 50 52 53 54 56 56 57 56 57 58 60 62
45 47 48 47 47 44 42 41 40 39 41 41 41 42 41 40 40 41 41 42 43 44 46 46 46 46 47 49 50 51 51 52 54 55 55 56 57 58 59 61 63 64 64
51 50 50 50 49 48 47 46 45 43 43 43 44 46 45 43 42 43 43 44 46 47 49 49 49 50 52 54 54 55 56 57 55 54 56 58 60 63 64 65 66 66 66
50 52 50 50 49 50 49 50 50 49 47 46 46 47 46 46 45 44 44 46 48 49 51 53 55 55 56 56 58 60 59 59 59 61 62 63 64 66 67 67 66 66 67
48 48 49 49 48 48 48 49 50 50 50 50 49 48 46 52 43 44 45 47 47 49 52 56 57 58 58 59 62 64 64 65 64 65 67 68 69 69 68 68 69 70 71
53 48 49 53 50 48 49 50 51 51 50 51 51 50 46 46 50 49 47 48 50 51 53 56 59 61 63 65 67 66 68 66 67 68 70 71 71 72 72 72 72 74 75
62 54 54 54 52 52 53 52 51 51 50 51 53 52 51 51 46 51 47 50 55 57 59 60 62 66 69 70 69 69 69 70 70 72 72 72 72 72 74 75 77 79 81
69 64 60 61 61 60 57 54 52 52 51 51 56 57 58 47 44 50 49 54 53 56 62 66 67 70 71 71 70 72 73 73 74 74 74 73 74 76 78 81 82 84 87
63 62 64 60 61 60 57 54 52 52 51 50 54 52 50 49 49 51 55 61 61 64 67 70 70 69 70 72 73 73 74 74 73 73 75 77 79 81 84 87 91 93 96
59 49 55 60 60 57 55 53 52 51 49 48 50 51 54 53 52 61 62 63 67 68 70 69 69 72 71 71 73 72 71 72 74 77 80 83 86 89 93 96 100 104 106
50 53 55 55 56 55 54 53 51 48 49 47 53 49 50 57 58 67 65 67 64 65 68 70 71 72 72 71 71 73 73 77 80 83 88 90 95 101 105 107 109 103 88
51 51 52 50 49 49 50 50 47 47 47 55 53 53 54 53 60 61 63 66 67 68 70 71 72 71 70 73 77 79 80 82 85 92 96 100 106 108 103 96 78 62 57
47 45 40 44 46 44 45 45 44 44 47 51 61 59 56 55 58 63 66 68 69 72 70 69 71 74 77 80 82 84 86 89 92 101 106 105 97 81 69 56 55 57 57
35 34 37 39 37 38 40 35 47 48 61 59 57 61 58 63 66 66 67 68 68 68 72 76 78 80 82 85 89 92 96 100 104 103 95 75 61 52 52 52 55 56 58
31 32 33 29 35 36 38 41 44 47 50 55 61 60 67 69 65 64 65 65 68 73 77 80 83 86 90 93 97 100 103 104 86 66 60 48 50 50 49 52 55 57 60
22 32 28 33 37 36 37 35 37 40 44 45 51 59 60 59 60 63 67 70 74 79 82 86 91 94 98 101 104 101 82 65 49 46 54 54 52 52 54 55 55 59 63
26 16 25 29 30 31 37 41 43 50 50 52 54 56 57 60 64 69 74 77 80 84 88 92 98 102 103 92 73 57 47 45 48 47 55 57 59 62 60 56 52 51 51

GFSMA_500_spd_042.txt.gz
Wind_Speed
30 29 29 30 32 29 27 26 25 25 26 27 27 27 27 28 28 29 29 30 30 31 31 32 31 31 30 29 28 28 29 29 28 30 32 33 33 33 32 31 29 28 26
28 28 28 30 31 29 28 28 28 26 26 25 26 27 27 26 27 28 29 30 31 31 31 31 31 32 32 32 31 30 30 30 30 30 31 31 32 32 32 32 32 32 32
28 27 27 29 29 27 30 30 29 27 25 25 26 25 25 25 26 27 29 30 31 31 31 31 31 31 33 34 35 35 35 36 36 36 35 36 35 36 37 38 38 38 37
28 27 27 29 29 27 29 30 29 29 27 27 27 26 26 26 27 28 29 29 29 30 31 31 31 31 32 33 34 35 36 37 38 39 39 40 41 43 44 43 43 43 43
30 29 29 31 30 28 30 31 30 28 28 29 29 28 28 29 30 31 31 31 32 32 32 32 31 32 32 33 33 34 34 35 36 37 39 41 43 45 47 47 47 47 47
34 31 33 34 32 27 29 33 31 31 32 31 31 31 32 33 33 34 35 36 36 34 33 32 32 33 33 34 35 36 37 37 38 38 39 41 42 42 43 45 47 49 49
37 36 37 37 34 31 32 33 33 34 35 36 36 36 36 37 37 37 35 33 34 35 35 34 33 33 34 34 35 36 37 38 39 40 40 41 42 44 45 45 46 46 48
40 40 39 38 38 37 35 35 35 35 36 37 37 37 38 38 38 36 34 35 36 36 37 37 38 38 38 38 38 38 39 39 40 41 42 43 45 46 47 49 50 50 52
43 44 43 42 42 40 37 38 39 39 37 37 38 37 37 38 37 36 35 37 37 37 38 37 38 39 39 39 40 41 41 41 43 45 46 47 48 49 50 51 52 52 53
48 46 47 46 45 43 41 39 38 36 38 39 40 39 39 39 40 40 39 40 41 39 39 40 40 41 41 41 42 42 43 45 46 47 48 49 50 51 53 54 54 53 53
51 50 49 49 49 48 45 45 44 46 45 43 40 40 41 42 43 43 43 44 45 44 42 42 42 44 44 45 45 46 47 48 47 48 50 52 53 54 55 56 56 56 57
50 52 52 52 51 50 49 48 48 48 48 48 49 48 47 47 45 45 45 46 46 46 46 44 44 47 48 49 49 49 51 51 49 50 54 56 57 59 59 58 58 60 62
49 49 51 53 54 56 55 52 50 49 48 48 49 50 51 50 49 48 45 50 50 48 45 47 49 50 51 52 54 54 53 55 58 61 63 66 64 65 63 63 64 66 66
60 55 53 54 55 56 55 54 51 49 48 47 47 48 48 50 45 54 50 50 53 43 44 49 52 54 56 57 58 60 61 64 66 68 70 72 72 67 66 70 70 71 70
63 61 58 54 52 54 54 54 54 51 51 48 48 48 49 53 53 55 54 54 55 58 52 50 55 57 60 60 60 62 64 66 70 71 72 70 70 71 72 76 74 74 73
66 64 61 57 54 55 55 56 55 54 54 50 49 50 50 53 55 57 53 59 51 46 47 51 56 59 62 64 65 67 68 69 71 72 71 73 74 74 74 74 73 73 73
71 71 69 64 63 60 58 59 59 57 54 53 52 52 51 55 53 56 57 61 60 53 47 53 60 63 63 68 69 69 71 72 74 76 74 74 75 74 73 72 73 75 76
69 68 68 67 66 65 61 60 59 59 56 53 50 50 54 55 54 53 55 62 63 64 57 63 65 68 68 67 68 71 74 75 75 75 75 74 75 76 77 79 80 81 82
65 64 63 62 61 57 57 55 58 59 56 53 49 52 55 54 57 54 58 60 58 64 64 64 68 68 69 71 74 73 75 75 74 75 78 81 82 84 86 86 87 89 92
57 56 58 58 58 57 54 50 52 52 52 53 48 56 55 57 57 58 65 64 62 67 61 66 69 70 72 72 74 76 74 76 77 80 83 86 88 92 94 96 98 100 102
60 55 53 55 55 54 54 51 50 49 50 49 56 56 56 55 60 62 60 63 65 61 65 72 74 74 72 72 75 77 79 82 83 86 90 93 98 100 104 106 107 103 95
51 54 48 51 51 48 47 47 47 46 49 49 50 49 56 59 58 65 59 60 63 67 67 71 73 73 74 78 80 83 86 87 89 94 99 101 106 105 103 90 75 63 57
39 41 42 45 48 47 47 44 41 44 45 47 47 48 50 51 53 57 60 67 69 71 74 74 74 78 80 84 86 89 93 97 101 105 108 99 90 74 60 54 56 57 58
26 31 38 40 44 40 35 39 43 38 44 51 46 48 48 50 54 57 59 61 64 67 72 75 79 83 87 90 94 99 103 105 97 81 66 51 51 50 51 54 57 60 61
17 20 26 23 30 30 36 38 41 38 44 43 48 48 51 53 55 57 61 62 66 72 76 81 86 90 94 99 103 99 81 56 42 44 52 52 54 55 57 57 58 58 61
12 21 18 17 31 30 31 26 26 30 36 44 48 48 51 53 56 59 64 68 73 77 82 88 94 98 97 85 61 43 38 41 45 47 55 54 47 47 43 40 41 45 49

GFSMA_500_spd_045.txt.gz
Wind_Speed
28 28 28 28 29 29 28 29 28 26 25 24 25 25 25 26 26 25 26 26 26 26 27 28 28 29 29 28 27 28 29 28 28 28 28 27 26 27 28 29 30 30 30
29 29 28 29 29 29 28 29 29 27 27 26 26 26 26 26 25 24 24 24 25 26 27 28 29 30 29 29 28 28 30 31 32 32 32 32 31 29 29 29 30 30 30
29 29 29 28 29 29 27 28 27 27 27 26 25 25 25 25 25 24 25 25 26 27 27 28 29 30 30 30 30 29 29 30 31 32 34 35 35 36 36 35 35 35 35
31 31 30 30 32 30 27 28 27 27 27 26 27 27 27 26 27 27 26 27 29 29 28 29 30 29 30 31 31 30 30 30 30 31 31 32 34 36 37 38 39 40 41
35 34 32 32 34 33 30 30 29 28 27 28 28 27 28 29 29 28 30 30 31 33 33 30 30 29 30 31 32 31 31 32 32 33 34 34 35 36 37 38 38 38 39
39 37 35 36 37 36 34 33 31 29 29 30 30 30 31 31 33 33 32 33 34 33 30 29 29 30 31 32 31 31 31 30 30 31 32 33 34 36 37 38 39 40 41
42 40 40 40 40 40 38 37 35 34 33 32 32 33 33 33 33 34 34 34 34 33 31 31 31 32 33 33 35 35 35 35 35 35 35 36 37 37 37 39 39 41 42
46 45 44 44 43 42 41 39 38 37 35 36 37 37 35 35 35 35 34 34 34 34 34 34 34 34 34 34 34 34 34 35 36 36 37 37 37 38 39 40 40 41 42
50 50 49 47 46 44 45 44 40 40 40 36 38 41 38 37 39 37 35 35 35 37 38 38 38 38 39 38 38 37 38 38 39 39 39 40 41 40 40 40 41 41 43
51 50 50 50 48 48 47 46 44 43 42 40 39 39 37 39 41 38 39 40 39 39 41 42 42 42 43 42 42 41 42 42 42 43 44 45 45 44 43 42 42 43 45
53 52 52 52 51 50 49 48 48 47 46 44 45 43 45 43 41 43 42 42 44 44 43 43 45 46 49 47 46 45 46 47 47 48 49 48 48 49 49 51 53 55 54
54 54 54 54 53 52 52 52 51 50 48 47 47 45 45 45 43 43 45 46 47 48 48 45 47 50 54 55 49 48 49 50 52 53 54 52 51 52 53 55 57 58 60
57 56 56 56 55 53 53 54 54 53 51 50 50 50 50 45 45 43 43 47 46 53 52 51 50 51 55 52 51 53 53 53 53 54 55 55 56 55 56 59 60 64 67
60 62 60 60 57 57 56 54 56 56 56 55 53 53 52 50 48 46 45 48 49 55 47 55 52 52 60 61 61 61 57 54 53 55 57 62 64 64 64 67 71 71 68
64 64 62 61 59 58 58 58 57 58 59 59 57 54 53 52 52 50 47 49 55 49 54 56 56 59 59 58 63 59 57 58 58 62 66 65 68 68 71 75 73 73 73
71 69 66 63 60 60 59 60 59 59 60 60 58 56 56 54 54 55 53 50 53 57 56 60 57 55 62 65 62 59 63 65 66 68 71 72 70 73 75 75 75 74 74
73 72 71 67 66 63 60 59 58 58 59 61 61 60 57 58 58 57 55 53 55 57 60 61 56 61 63 65 67 65 69 68 70 71 72 73 74 74 75 75 74 74 75
71 71 70 68 65 62 61 60 59 61 61 61 61 60 60 57 55 55 57 60 61 61 61 62 65 67 70 72 73 70 70 71 72 72 72 72 74 74 76 77 78 79 80
68 67 65 64 63 60 58 57 56 54 53 54 55 57 58 60 61 57 58 60 61 61 63 63 65 72 69 63 65 68 69 75 72 68 70 74 77 80 84 86 87 88 89
53 59 58 56 55 55 54 53 51 49 49 48 48 49 50 54 57 58 62 62 56 61 62 66 67 64 62 65 68 72 77 70 70 72 77 82 85 89 93 96 97 99 101
33 44 51 49 47 46 45 47 47 46 44 44 47 48 55 52 55 60 65 57 60 61 61 58 59 63 68 71 72 72 72 75 77 81 85 90 94 98 103 106 106 104 101
27 26 37 41 42 42 40 41 43 42 40 40 43 47 49 56 58 59 63 62 67 59 57 62 64 65 68 70 71 74 77 80 83 89 93 98 103 103 95 79 69 64 61
14 19 20 14 29 38 41 39 38 40 40 41 39 47 48 53 53 56 55 57 58 59 63 65 64 65 69 74 76 80 85 88 92 98 99 90 76 57 54 56 59 62 64
10 11 9 18 19 22 26 32 36 38 35 39 44 46 51 54 55 52 53 53 56 59 62 66 70 74 78 82 85 88 91 92 85 63 57 45 50 51 54 55 58 59 58
0 4 7 8 16 16 22 24 32 38 39 40 47 45 44 47 49 50 51 54 58 63 68 72 77 81 85 88 88 85 70 50 40 48 51 49 45 38 38 42 43 44 42
4 3 9 10 14 23 32 30 35 31 30 32 34 35 37 41 45 51 56 61 65 71 77 82 85 85 79 67 48 35 37 42 45 47 41 29 31 30 28 33 38 39 38

GFSMA_500_spd_048.txt.gz
Wind_Speed
28 28 27 27 27 29 28 29 30 30 29 29 29 27 26 26 26 25 26 26 26 24 24 24 24 25 26 27 28 27 27 27 27 27 28 28 29 28 27 27 26 26 26
31 30 29 28 29 30 30 29 29 29 29 28 28 28 27 26 26 25 24 24 24 24 25 25 26 27 27 28 28 27 28 28 28 28 29 30 32 32 32 32 31 30 29
34 33 33 31 31 32 31 30 30 29 29 28 27 27 27 26 27 26 25 25 26 25 25 28 28 28 29 30 29 29 29 29 29 30 29 29 30 31 32 32 33 34 35
36 37 37 35 35 34 33 32 31 31 29 28 28 28 28 28 28 27 26 28 27 26 28 27 29 30 29 28 28 29 29 30 30 31 31 31 31 32 32 32 32 33 35
37 39 40 40 39 37 36 35 34 34 32 29 29 30 28 29 29 29 28 29 29 30 28 29 29 28 27 27 27 28 30 30 29 29 30 31 31 31 32 33 33 35 35
45 44 42 42 42 41 40 39 38 37 35 33 34 31 30 30 31 31 31 31 30 30 30 30 30 29 28 29 29 30 30 32 33 34 35 34 35 35 34 34 34 34 35
49 49 48 46 44 44 43 44 43 39 39 39 37 34 35 33 34 35 34 32 32 32 32 31 30 31 32 32 32 32 32 33 34 34 34 35 36 36 36 37 37 37 37
50 51 50 51 50 50 48 46 47 44 42 41 40 37 35 35 35 39 38 36 35 35 34 33 34 34 35 36 35 35 35 36 37 37 38 38 38 39 38 39 39 40 39
53 53 53 55 54 51 51 49 49 48 47 45 43 42 39 37 36 37 39 39 40 41 38 38 38 39 39 40 40 40 40 41 41 42 43 42 42 42 43 42 44 43 42
57 57 55 55 54 53 53 51 51 50 50 48 46 44 43 42 40 39 40 40 41 34 37 39 40 42 44 45 46 45 45 46 48 49 49 47 46 46 46 46 46 46 46
58 58 58 57 56 55 53 52 51 51 49 50 49 49 47 45 46 45 44 43 43 41 40 42 43 44 44 47 43 45 49 52 51 54 54 53 51 49 49 49 48 47 48
58 61 62 62 62 58 56 55 54 52 51 53 53 52 50 48 47 48 47 46 46 43 44 45 46 49 51 55 44 45 50 52 54 57 56 57 56 54 52 52 51 51 51
58 59 63 65 66 64 60 58 57 56 53 55 55 56 54 52 51 52 51 51 50 48 47 47 49 49 51 49 50 51 52 52 54 57 61 59 61 59 57 55 54 55 57
62 63 62 63 66 66 66 65 59 58 58 59 58 57 56 56 55 55 55 54 54 53 50 53 54 51 56 57 55 57 54 55 53 51 56 64 61 59 61 61 63 66 65
68 69 68 67 66 63 64 64 63 62 60 60 61 59 62 61 59 58 58 58 57 55 56 52 61 59 60 58 60 57 60 58 58 64 63 64 66 67 66 67 69 69 71
69 71 71 70 68 67 65 62 63 63 61 59 61 61 61 61 60 59 65 56 58 59 60 60 64 62 63 68 70 63 64 58 63 65 67 69 71 73 71 72 72 74 76
68 68 68 69 68 66 65 64 62 60 60 61 61 61 63 63 62 60 61 62 62 63 63 63 65 67 72 70 70 66 66 63 64 67 75 72 75 77 75 75 76 79 81
62 60 58 60 63 65 62 61 61 59 58 59 59 61 61 62 61 60 68 59 67 67 64 64 69 69 74 70 67 69 69 69 70 70 67 66 69 71 74 79 82 83 81
57 57 59 55 56 57 59 57 54 54 55 56 55 55 57 58 58 58 59 60 70 62 56 62 66 70 74 69 65 68 72 71 64 65 69 73 76 76 77 79 81 82 84
47 50 49 53 45 51 49 50 47 45 47 48 49 49 49 49 53 54 56 59 67 59 66 67 63 67 75 69 71 66 62 65 69 71 72 74 76 79 82 86 88 90 94
26 29 40 36 41 39 41 39 35 33 35 37 39 40 41 43 48 48 52 58 62 62 63 67 71 71 75 72 66 66 68 66 68 73 75 79 82 85 89 93 97 100 102
17 21 18 24 20 27 28 27 26 27 28 29 31 32 35 36 45 48 53 55 54 60 68 63 66 66 65 66 65 67 70 73 76 81 84 87 91 93 93 89 81 73 66
14 8 11 13 13 15 19 22 25 29 32 31 31 33 37 39 44 47 54 59 61 61 63 64 64 63 63 66 69 73 78 82 85 89 88 80 69 58 57 58 61 61 57
12 8 5 11 16 21 10 14 18 25 29 28 33 36 35 40 43 49 51 51 51 51 55 59 63 67 71 74 77 82 83 81 75 63 52 43 51 53 55 52 50 44 40
10 10 4 6 3 9 14 10 16 19 25 33 35 38 40 45 42 37 40 45 49 53 56 61 66 70 75 78 73 67 59 45 37 42 44 46 48 42 40 43 44 44 43
10 2 5 7 6 7 12 17 21 27 28 29 31 27 29 33 37 42 47 51 54 58 64 65 66 65 60 55 50 40 36 37 35 38 41 38 39 36 32 38 41 44 44

GFSMA_500_spd_051.txt.gz
Wind_Speed
30 29 28 28 27 28 28 28 28 29 29 28 27 27 27 27 27 28 24 26 26 26 25 23 23 24 25 27 27 26 24 24 23 24 24 25 25 26 26 27 27 26 25
33 31 30 30 30 30 31 30 30 30 31 29 28 28 27 27 28 28 24 25 25 25 24 24 26 25 27 26 26 26 27 25 24 24 25 25 26 27 27 27 28 29 30
35 34 34 33 33 34 34 33 33 33 33 33 30 28 28 27 27 27 27 25 27 25 26 27 26 28 24 25 25 24 24 24 25 25 26 26 27 27 27 27 27 28 29
40 38 36 36 37 36 36 36 37 36 37 36 34 29 29 29 28 28 28 28 27 27 27 28 29 27 27 25 24 24 23 23 24 24 25 26 26 26 27 28 29 30 30
44 43 42 41 40 40 39 39 39 40 40 39 38 34 32 31 30 29 28 29 29 29 29 30 31 28 28 26 26 25 25 26 26 27 27 29 30 31 31 30 30 31 31
45 46 47 47 46 45 44 43 43 43 44 41 39 38 37 35 33 31 31 31 32 33 32 32 31 31 30 29 28 28 28 29 29 29 30 30 31 31 31 32 32 32 33
48 48 47 49 49 49 50 50 50 48 46 46 44 40 40 38 36 34 35 34 35 36 35 34 34 34 33 31 31 31 32 32 34 33 33 33 34 35 35 35 35 35 36
51 51 51 50 51 52 52 52 52 53 51 51 49 46 43 41 37 38 38 37 38 39 39 38 37 38 36 35 34 35 35 36 38 38 37 36 37 38 39 39 40 40 40
55 55 55 55 55 56 56 56 55 54 55 54 52 50 47 44 41 41 41 41 42 38 37 39 39 40 39 39 38 37 40 42 43 43 42 41 41 42 42 43 45 44 43
57 59 57 57 58 59 60 59 58 54 52 53 51 50 50 48 46 44 43 44 46 43 41 40 42 40 36 35 34 37 41 42 44 42 44 44 46 48 47 48 49 48 46
57 59 62 61 60 61 60 59 61 60 57 56 53 51 50 49 49 47 45 47 47 48 47 44 43 43 41 39 42 43 44 46 48 43 44 47 49 48 49 51 48 51 51
55 57 59 61 63 63 64 65 63 62 61 59 58 55 54 53 52 51 49 49 49 49 50 48 47 47 47 47 46 45 48 48 47 45 47 51 53 54 54 50 51 54 54
56 57 59 61 62 63 65 67 66 64 64 62 62 59 58 57 56 54 55 56 54 53 52 54 53 52 52 51 52 50 55 55 53 55 59 57 54 56 58 58 55 55 61
58 60 62 66 68 67 68 68 67 65 64 62 62 64 61 59 59 59 58 59 59 59 55 57 58 58 56 56 56 58 61 56 60 62 58 64 58 61 60 66 62 61 60
61 61 62 65 68 69 71 70 69 67 64 61 62 62 62 63 58 60 60 59 55 54 58 58 64 64 56 57 59 60 63 63 63 67 67 64 71 68 65 64 67 68 65
66 67 67 68 69 68 69 70 69 66 65 63 59 59 60 59 59 60 56 57 58 57 57 57 60 61 56 61 64 66 67 70 66 68 65 71 73 69 69 65 69 67 66
66 68 67 68 64 65 65 63 62 64 64 60 58 59 57 57 56 56 56 53 56 60 55 63 63 67 59 65 69 66 74 70 68 73 74 68 71 68 69 72 75 75 71
59 55 54 55 53 54 58 54 53 54 57 59 58 56 56 55 57 56 57 58 60 61 63 62 70 62 55 65 67 61 60 67 69 71 70 74 71 70 72 73 68 67 69
53 50 49 50 50 48 47 45 49 44 45 49 54 54 55 54 56 58 59 59 58 61 63 64 67 71 70 68 72 67 62 64 67 71 74 74 75 71 71 70 70 72 73
42 40 40 40 36 39 45 43 43 42 40 40 44 46 47 50 51 51 53 54 54 55 54 55 58 61 64 67 69 71 74 72 70 67 65 67 68 69 70 71 74 77 81
35 31 33 34 29 29 32 34 38 34 35 33 35 37 39 41 43 44 45 46 48 50 54 56 57 64 66 68 68 67 68 66 65 66 67 70 72 75 78 81 85 88 90
35 28 27 23 26 24 15 21 32 33 38 26 22 25 26 29 32 35 39 38 44 47 51 57 61 63 62 63 56 59 62 64 68 71 72 77 79 81 82 82 79 75 70
25 26 19 21 25 18 18 15 18 23 16 16 19 22 25 29 29 35 42 42 48 50 51 56 54 55 56 58 60 64 68 70 74 75 75 74 70 62 58 54 55 55 55
23 19 19 16 18 17 12 8 9 16 17 22 18 22 24 28 33 40 42 44 47 48 47 48 50 54 58 60 63 67 71 72 71 64 57 48 46 43 45 51 52 51 48
18 15 14 14 10 6 4 8 12 8 13 16 18 23 28 35 35 34 32 35 40 45 48 52 56 60 61 65 67 66 62 56 48 43 41 40 41 41 44 47 47 46 42
21 17 14 14 14 14 10 7 12 10 12 16 20 20 22 24 28 32 37 41 45 49 53 57 61 62 66 64 58 50 43 41 40 40 38 40 42 42 37 43 44 45 42

GFSMA_500_spd_054.txt.gz
Wind_Speed
27 26 28 26 26 26 28 28 29 28 28 29 29 27 26 26 26 25 23 26 25 24 23 23 23 22 22 25 25 23 20 20 20 20 19 18 18 19 20 20 20 20 21
31 31 30 28 27 28 29 29 29 30 30 31 30 31 30 29 28 26 24 26 25 24 25 25 24 24 25 25 24 20 19 18 18 19 20 20 20 19 20 21 21 21 21
33 34 33 32 31 32 32 32 32 30 31 33 33 33 32 31 31 29 26 24 27 25 26 26 26 26 25 26 25 22 21 20 19 18 17 19 19 20 19 20 21 22 22
37 37 37 37 37 36 36 37 37 34 34 35 36 37 34 33 33 32 29 26 26 27 26 27 28 27 27 28 26 25 24 23 22 21 21 21 21 21 23 23 23 24 24
39 41 40 40 41 41 40 39 42 42 42 40 39 40 37 35 35 33 32 30 27 28 28 28 29 30 31 30 29 28 27 26 25 25 25 25 25 24 25 25 25 25 26
40 42 43 43 43 44 42 42 44 46 45 46 46 45 42 41 39 37 34 34 33 31 29 32 32 32 32 32 32 32 31 31 29 28 29 28 28 28 28 28 28 28 28
42 43 44 45 46 47 47 47 47 48 48 49 49 49 48 47 43 40 39 37 36 37 34 32 35 35 36 35 33 33 34 33 33 32 32 33 33 33 33 32 32 32 32
45 47 49 48 47 49 49 50 51 51 51 53 53 53 51 51 46 44 42 41 40 39 38 37 36 36 36 36 34 36 38 37 36 36 35 36 37 36 37 36 36 36 38
49 49 50 51 52 54 52 52 52 53 53 54 52 55 54 51 50 47 45 45 45 42 42 42 42 41 38 38 38 38 39 40 38 35 36 38 37 40 39 39 40 39 40
50 53 53 54 56 57 58 56 56 57 56 54 57 55 57 54 52 49 47 46 46 46 45 45 45 43 44 43 43 42 37 35 33 32 38 40 42 41 40 39 40 42 42
47 48 50 54 55 57 59 60 60 60 60 60 59 58 56 57 56 55 51 49 47 46 46 44 46 45 44 44 44 40 40 42 40 44 44 42 42 42 44 45 48 48 47
46 47 49 52 55 57 59 61 63 64 65 63 61 59 58 58 57 57 55 52 51 50 49 49 48 49 50 49 47 46 44 47 48 48 49 48 51 51 50 50 53 51 52
44 46 50 52 55 58 61 63 66 69 68 68 66 62 60 59 58 58 58 57 53 54 53 52 52 57 59 53 52 44 46 50 51 52 53 55 58 58 58 58 58 57 55
46 50 53 51 52 58 62 64 66 68 69 68 68 67 62 61 60 58 57 58 58 54 52 55 56 59 58 51 55 52 51 56 59 46 52 55 59 60 61 59 61 65 66
46 46 46 53 56 61 66 69 70 69 68 67 65 65 63 61 61 58 58 56 58 59 56 50 57 62 57 53 51 49 57 52 53 53 59 64 65 65 60 64 64 67 68
42 43 48 54 61 67 62 58 63 65 63 63 63 62 63 59 59 58 56 57 56 57 56 61 56 47 54 55 50 53 54 63 58 65 61 63 64 68 69 68 67 67 70
37 41 48 54 61 57 58 50 52 56 52 53 55 56 56 51 54 56 55 55 53 52 51 54 58 64 55 48 55 61 64 55 63 63 68 61 64 62 62 64 67 65 69
32 38 45 52 53 45 51 49 48 46 50 47 47 47 52 54 55 56 51 49 44 52 60 53 71 55 63 66 65 64 66 68 66 67 68 68 68 65 67 70 64 67 68
34 40 42 48 42 40 42 44 47 45 44 42 40 43 45 52 53 52 53 50 50 54 57 58 59 61 63 64 62 63 61 55 58 62 67 68 68 67 67 66 64 65 65
34 38 40 41 37 34 37 40 44 43 34 35 34 41 41 42 43 47 47 49 49 50 52 53 55 58 59 60 61 65 64 62 65 69 67 66 65 62 61 64 66 67 68
35 37 37 35 30 28 33 41 35 34 28 27 27 32 32 33 30 35 37 40 42 45 47 49 51 53 53 49 56 58 60 61 59 59 59 61 61 65 69 72 74 74 74
36 32 33 30 29 27 28 29 29 26 22 18 21 25 30 35 30 28 31 35 36 38 42 48 46 47 51 55 54 52 54 56 59 62 60 65 64 71 73 74 74 70 67
29 27 26 25 26 24 22 27 23 22 19 18 13 15 19 21 22 24 27 30 31 35 40 44 47 47 51 54 53 54 57 60 60 62 64 68 68 67 62 58 55 52 52
27 26 23 22 22 24 23 25 21 20 16 15 14 11 16 18 17 20 24 28 34 39 38 39 41 46 49 52 56 60 62 64 67 68 63 61 55 49 46 47 46 47 47
26 24 23 23 22 21 22 21 17 16 17 14 13 15 18 20 22 22 22 25 29 34 38 43 47 51 55 60 64 66 66 67 62 56 49 43 42 40 42 46 46 46 46
24 23 22 22 22 22 20 19 17 16 16 15 15 16 18 19 22 26 29 33 36 40 44 47 51 56 61 66 70 66 56 47 43 41 39 40 43 41 37 42 43 43 43

GFSMA_500_spd_057.txt.gz
Wind_Speed
23 24 25 24 25 26 25 26 27 26 28 28 27 27 27 26 25 25 25 27 27 26 24 23 22 22 22 21 22 22 22 18 17 17 17 18 18 18 17 17 17 17 17
25 26 26 26 27 28 28 28 29 29 30 30 30 30 29 29 28 27 26 27 27 27 26 25 25 24 23 23 24 23 22 20 18 18 16 16 16 18 20 20 19 18 17
28 28 29 28 30 30 31 31 31 32 33 33 33 33 33 33 31 30 29 28 28 28 26 26 25 25 25 26 25 24 24 24 22 21 19 18 16 17 17 19 19 19 18
32 33 33 33 34 33 34 35 35 35 35 35 36 38 39 37 36 34 31 32 31 30 29 27 26 26 26 27 28 27 27 27 26 25 24 22 21 20 20 20 21 21 21
34 35 35 35 37 37 37 37 39 41 42 41 40 40 41 41 40 40 36 36 34 33 34 31 30 29 29 30 30 30 31 31 30 29 28 26 26 24 24 24 24 24 23
33 35 37 38 40 41 42 42 42 43 43 45 46 46 45 44 43 42 41 37 37 36 36 36 35 34 33 33 32 33 33 33 33 32 31 31 30 29 28 28 28 29 29
38 38 38 40 41 43 45 47 46 46 46 47 48 49 49 49 48 48 46 43 40 39 39 39 39 39 38 36 35 35 37 37 36 35 36 35 34 32 33 32 32 32 33
40 40 41 42 43 44 45 46 48 48 46 49 50 50 51 50 48 48 48 46 45 43 41 42 41 41 41 40 39 36 36 38 39 36 40 41 39 39 37 36 33 35 37
46 45 44 43 45 47 47 49 49 49 50 51 53 55 57 55 53 53 53 50 47 45 44 45 45 45 45 45 44 42 41 40 43 41 40 43 44 43 39 36 36 36 39
46 47 46 45 46 47 49 51 52 52 52 54 57 58 57 58 58 57 55 51 50 49 48 46 46 47 47 45 47 46 43 42 44 45 44 40 42 45 37 35 38 40 38
43 44 45 46 46 46 47 48 51 54 56 58 60 61 62 61 61 60 58 56 53 51 51 52 49 46 46 46 44 43 46 45 45 49 45 43 43 43 44 44 46 42 42
41 40 41 43 44 46 48 51 54 56 57 58 61 64 65 66 65 63 61 57 56 55 53 55 51 49 46 45 50 49 48 49 49 47 50 47 47 51 52 51 49 47 49
40 40 39 40 44 48 49 47 48 53 59 64 66 66 68 70 68 65 65 62 59 57 56 53 54 53 48 48 44 50 54 54 56 48 51 48 46 49 52 53 53 53 54
39 39 39 43 46 43 43 47 52 57 63 65 59 63 67 69 68 66 61 63 62 61 58 53 52 56 55 50 49 50 54 58 45 42 53 51 55 42 44 46 48 53 55
36 39 41 40 40 39 44 48 54 59 54 54 57 55 59 65 66 67 57 59 60 61 59 57 56 54 52 52 52 58 53 55 42 48 47 46 44 45 47 50 54 63 64
35 35 37 38 36 39 45 51 54 48 48 51 49 50 56 56 58 58 42 52 57 56 55 56 57 56 53 54 58 50 54 56 42 43 44 54 58 56 55 60 60 61 59
34 35 36 34 35 39 45 48 42 43 47 53 56 51 53 47 47 51 49 49 45 46 40 51 54 56 55 46 49 54 49 53 53 61 59 58 62 62 65 64 61 62 62
35 35 34 34 37 42 44 42 37 38 45 54 54 50 45 40 39 42 42 43 47 44 41 36 29 38 49 50 51 53 56 60 60 60 61 62 62 60 58 59 58 61 61
34 33 34 37 40 41 41 39 37 41 40 45 46 49 33 31 29 32 35 40 56 52 45 47 55 51 48 52 54 54 58 61 61 61 60 56 57 60 61 62 61 59 57
33 34 36 36 40 38 37 34 32 33 37 39 39 33 28 28 31 32 34 37 46 43 44 51 54 49 46 48 51 53 56 57 56 53 55 55 51 51 54 55 56 57 59
33 32 34 36 38 35 33 31 29 33 32 32 29 28 22 23 24 24 25 30 26 35 40 42 42 44 47 48 50 51 51 51 52 54 53 54 55 58 60 61 60 60 63
30 30 33 34 35 35 30 29 29 29 27 27 26 21 16 19 22 24 30 31 24 25 28 34 37 38 38 40 45 49 50 51 53 52 54 60 61 64 65 66 67 68 68
28 29 30 32 32 30 28 27 27 26 24 23 22 19 21 17 15 15 16 15 17 20 24 28 31 35 39 41 42 44 48 52 55 58 61 67 67 69 70 71 70 67 63
26 26 28 29 27 26 26 25 23 23 22 21 19 20 22 20 20 18 19 19 21 23 24 25 30 33 38 42 46 49 53 57 61 64 68 70 69 67 63 58 53 49 48
25 26 27 24 23 22 21 21 20 19 19 19 19 20 20 19 19 20 21 23 24 26 29 32 35 39 42 46 49 53 58 65 68 69 66 56 49 47 45 46 46 47 47
25 26 24 22 21 20 20 20 19 20 21 21 22 22 22 23 24 25 26 28 30 32 33 36 39 42 46 49 54 59 66 73 68 55 42 39 41 41 43 46 46 46 46

GFSMA_500_spd_060.txt.gz
Wind_Speed
22 23 23 22 23 25 26 27 28 28 28 30 30 31 31 29 28 27 27 28 28 26 25 24 25 24 23 24 22 22 23 23 21 20 18 18 18 19 19 18 18 18 18
23 24 26 26 27 27 28 28 29 29 29 30 32 33 35 34 33 32 30 28 30 30 28 28 27 26 26 25 24 24 25 24 23 22 22 21 20 19 19 20 21 21 21
26 26 26 28 31 31 31 30 31 32 32 33 34 35 36 37 36 35 35 32 32 32 31 30 30 29 28 27 27 26 27 27 27 26 25 24 24 22 20 20 20 20 21
29 29 30 31 33 31 31 32 34 34 35 36 37 39 41 41 40 39 38 37 34 33 33 33 33 32 31 31 30 29 29 30 30 30 29 28 27 26 25 24 23 22 22
31 30 31 31 33 34 34 35 36 37 38 39 40 42 43 43 44 43 42 42 40 37 36 36 35 35 36 35 35 34 33 33 33 32 32 32 31 30 30 29 28 27 26
33 34 34 33 36 37 37 39 40 41 41 42 43 44 45 46 46 45 45 45 44 42 42 42 40 38 38 39 39 38 38 37 36 36 35 34 35 34 34 34 33 32 30
34 34 36 37 38 40 42 43 44 44 45 45 45 45 47 46 47 48 48 49 49 46 42 43 44 44 43 42 41 41 42 40 40 39 39 39 38 37 37 38 38 38 35
37 38 39 39 40 42 43 45 46 46 47 47 49 49 49 50 50 53 55 54 54 54 50 46 45 46 47 46 46 44 44 45 45 40 37 40 42 42 41 41 43 43 43
41 43 42 42 42 43 44 45 45 47 47 47 47 50 51 50 51 53 56 58 58 56 53 50 48 46 47 49 51 50 48 49 50 46 44 42 41 45 46 44 46 48 45
43 45 46 46 44 43 44 44 44 44 47 47 49 51 55 56 57 58 56 57 59 59 59 57 56 53 51 51 50 48 50 50 48 51 50 47 41 48 52 51 49 49 47
43 45 46 45 44 45 44 42 44 44 47 50 52 53 53 55 59 62 63 62 60 60 62 60 57 52 52 53 49 49 48 50 51 50 44 45 45 48 53 49 46 44 45
44 44 43 43 43 42 43 43 44 47 50 45 47 51 56 60 65 69 69 66 59 59 66 61 61 59 53 50 52 54 48 51 47 51 52 48 52 55 44 53 52 50 51
44 42 42 40 40 41 42 44 48 45 43 45 50 54 58 61 60 61 64 63 62 63 64 60 60 65 60 52 51 53 47 57 57 49 52 46 50 45 48 49 47 51 49
43 43 42 41 40 40 44 45 44 42 43 47 50 49 49 49 54 57 61 59 58 57 63 55 64 68 64 61 53 52 49 46 49 50 46 52 52 50 44 50 51 51 42
42 42 41 39 39 42 41 44 40 40 44 46 44 43 45 48 56 59 54 57 62 61 59 48 43 51 49 56 52 55 54 56 51 50 52 44 46 42 45 54 48 37 38
42 41 39 39 39 40 39 37 38 42 44 44 42 42 46 50 57 55 53 55 56 57 53 55 42 40 37 56 58 47 49 53 51 49 51 52 49 46 44 42 46 50 51
41 39 39 39 40 40 37 37 40 43 43 44 42 42 45 46 51 53 43 39 38 44 46 49 51 31 27 50 53 51 36 44 46 46 43 50 51 50 53 54 55 54 56
39 40 39 40 38 38 38 39 40 41 41 41 38 41 43 44 44 47 40 36 34 32 38 36 41 46 47 34 20 45 43 41 54 54 55 53 50 51 52 53 53 52 55
39 38 37 35 35 38 36 38 40 40 41 40 37 38 40 40 40 36 35 29 30 31 32 34 37 46 53 50 48 43 43 39 43 50 52 53 54 50 48 49 52 52 50
36 37 38 36 36 36 36 38 38 39 38 36 36 35 35 33 34 30 29 25 25 28 33 37 37 33 39 38 40 38 40 40 42 45 46 49 48 47 49 51 49 48 49
35 37 36 35 35 35 35 36 38 36 34 34 33 31 29 27 24 25 24 25 27 27 30 34 24 23 33 38 36 34 35 37 39 41 42 43 45 47 50 52 55 56 57
32 33 32 33 32 33 34 36 34 31 29 30 26 26 26 25 25 23 21 21 19 20 18 19 19 23 25 28 31 34 36 40 41 44 47 50 51 54 56 60 63 65 66
31 29 30 30 31 31 33 32 29 27 25 24 23 24 24 23 22 22 22 21 20 19 18 18 20 21 24 29 32 36 40 44 47 50 53 56 58 62 66 69 72 73 73
27 28 28 29 29 31 29 28 26 24 23 24 23 23 24 24 23 24 24 23 23 23 24 25 26 28 31 34 38 42 45 48 51 54 58 62 66 69 73 76 68 60 54
24 26 27 28 29 28 27 26 24 24 23 23 24 25 25 26 26 27 28 29 29 29 30 31 32 34 35 38 41 44 48 51 55 58 62 68 71 72 62 51 46 45 45
24 25 27 27 27 25 25 24 23 23 23 24 25 27 28 30 30 31 33 33 34 35 35 36 37 39 41 42 44 48 51 54 58 59 65 70 60 48 45 46 47 47 47

GFSMA_500_spd_066.txt.gz
Wind_Speed
21 22 21 22 22 22 23 24 25 27 27 27 28 29 30 30 31 31 32 33 34 35 36 36 36 35 34 33 32 31 30 30 29 28 29 29 29 27 24 22 22 21 21
23 23 23 24 25 25 27 28 29 29 29 28 30 31 32 33 34 35 36 36 36 37 37 37 38 38 38 37 36 34 33 32 32 32 31 31 30 29 28 26 24 24 23
25 25 25 27 28 28 29 30 31 31 31 31 33 34 35 37 38 39 39 39 39 39 38 38 38 38 39 39 39 39 38 37 36 35 35 34 33 32 31 29 28 27 27
26 27 27 30 31 31 31 32 33 33 34 35 36 37 38 40 41 41 40 40 39 39 41 42 41 40 40 42 41 39 40 40 41 39 38 38 38 37 35 34 32 31 30
29 29 30 32 34 34 34 35 35 35 37 39 40 41 42 42 42 41 41 42 42 43 43 43 41 41 42 43 43 43 42 42 42 43 42 41 41 41 40 38 36 34 34
32 32 33 35 36 37 37 37 37 38 41 41 42 42 43 43 42 41 41 42 43 42 42 43 45 44 44 45 45 46 45 42 44 46 46 44 42 42 42 41 39 38 36
35 35 36 37 38 39 40 39 40 42 42 44 45 44 43 42 42 42 42 43 41 43 45 46 46 48 47 47 47 48 47 46 45 46 47 48 46 44 44 42 42 42 41
38 38 39 40 41 41 42 42 42 44 44 46 47 46 42 41 41 43 43 43 45 44 43 47 49 52 53 51 50 51 50 50 49 47 50 48 49 49 47 46 45 44 46
42 41 41 42 43 44 45 44 45 45 46 46 45 45 45 44 44 42 42 41 40 44 47 50 54 56 53 54 54 55 56 57 55 53 51 50 52 52 50 49 48 48 50
43 43 44 44 45 45 45 46 47 47 48 46 45 44 43 44 43 43 41 39 42 46 48 51 54 52 51 52 53 55 57 55 57 57 54 58 52 53 54 48 49 49 49
46 48 46 45 46 45 46 47 49 48 47 45 43 42 42 42 44 42 38 40 45 48 48 50 52 53 54 56 58 61 63 61 58 61 50 56 57 56 56 52 49 47 50
52 49 47 47 46 45 47 49 49 48 47 45 43 43 42 43 42 39 39 44 47 48 49 50 52 53 56 59 61 61 63 61 61 60 60 50 60 54 53 51 47 46 53
50 49 47 45 44 46 48 49 49 48 46 44 44 42 43 42 43 42 44 46 47 48 46 49 52 54 56 58 55 55 54 57 56 50 53 59 48 53 55 51 41 46 45
47 45 42 42 45 47 48 47 46 44 43 42 42 43 42 42 44 43 46 47 48 47 46 49 50 51 53 50 51 52 49 49 47 55 55 54 57 51 40 34 44 40 41
43 42 42 47 49 49 48 46 43 41 41 40 41 41 41 42 43 44 46 48 49 45 45 45 44 45 45 42 43 42 40 36 33 42 49 52 48 46 45 45 48 41 39
43 46 51 53 51 48 45 42 41 40 40 40 40 39 40 40 42 44 45 48 45 44 40 39 41 40 39 39 38 32 31 25 22 27 25 28 39 36 32 32 37 48 45
50 55 53 50 47 44 41 40 40 39 40 41 40 40 40 41 43 43 46 44 41 39 36 36 35 36 35 34 35 29 20 19 26 18 16 12 21 28 28 29 38 35 36
51 48 46 44 42 39 39 39 39 39 40 40 40 42 41 42 41 44 42 39 35 33 33 34 33 34 34 32 30 21 15 16 16 13 14 17 20 20 24 24 27 30 31
45 43 41 39 38 38 38 38 39 39 41 42 42 40 41 40 42 41 37 33 30 31 31 31 31 31 30 29 27 21 16 18 16 15 19 20 20 21 25 28 29 29 29
41 38 36 37 37 37 38 39 39 39 39 39 39 38 38 39 39 35 31 30 30 29 30 30 28 28 28 29 26 22 20 19 18 18 18 20 22 23 26 27 29 30 32
37 36 36 35 38 39 39 37 36 36 35 34 35 35 36 35 34 31 30 28 29 29 30 29 28 28 28 27 28 28 26 26 25 25 25 25 27 29 31 33 35 36 37
36 36 36 37 36 33 33 33 33 33 33 33 34 33 33 32 31 31 29 29 30 29 29 30 30 30 30 29 29 29 30 31 32 32 34 35 35 36 38 39 40 42 43
35 35 32 29 29 29 29 29 29 30 31 31 32 32 31 30 30 30 30 31 31 31 32 32 32 32 32 32 33 33 33 34 35 37 38 40 40 40 42 43 43 44 45
28 26 25 26 27 27 27 28 29 30 29 30 30 30 30 30 30 31 31 32 32 32 33 34 35 35 36 36 37 38 38 39 40 41 43 43 45 46 47 48 48 49 51
24 23 23 25 24 25 26 26 27 28 28 29 29 30 30 31 32 33 33 32 32 35 36 37 37 38 38 39 40 40 41 42 43 44 46 47 49 51 52 53 55 56 56
21 21 21 22 23 22 23 25 27 28 28 28 28 29 31 32 32 32 33 34 36 37 36 37 38 39 40 41 42 42 43 43 44 46 48 50 52 54 55 55 57 58 59

GFSMA_500_spd_069.txt.gz
Wind_Speed
19 19 19 20 20 20 21 22 24 25 26 27 28 28 28 30 31 31 31 31 33 33 34 34 35 35 35 35 35 34 33 33 33 33 33 32 32 32 30 29 27 25 23
22 22 22 23 23 22 23 25 26 27 29 29 30 30 31 33 33 34 34 35 36 37 37 36 36 35 35 36 35 34 33 34 34 34 34 34 34 33 33 33 31 28 26
25 24 25 25 25 25 25 27 29 30 31 32 33 33 35 37 36 38 37 38 38 38 38 39 38 39 39 38 36 33 34 33 34 35 36 37 36 35 34 35 35 33 31
27 27 27 28 27 28 29 31 32 33 34 35 35 36 38 39 40 40 40 41 40 39 40 39 39 39 38 38 37 37 36 36 37 35 35 36 38 38 38 37 36 36 34
30 30 29 30 30 31 33 34 35 36 36 37 37 39 40 41 41 42 42 41 40 40 38 39 39 41 41 41 39 38 39 38 39 40 41 40 38 40 41 40 39 37 36
33 33 32 33 34 35 36 37 37 38 38 39 39 40 42 43 43 44 42 42 40 38 38 39 41 40 38 40 42 42 42 42 42 42 44 43 43 41 42 43 41 40 40
37 36 36 37 38 38 39 40 41 42 41 41 41 41 42 43 44 44 43 41 40 38 39 41 38 40 43 43 44 46 45 42 43 43 45 46 44 44 44 46 44 44 41
41 40 39 39 39 40 42 43 45 45 45 43 43 44 43 43 43 43 41 41 39 39 40 38 39 43 44 45 47 46 45 46 46 45 43 45 49 49 47 47 45 45 46
44 44 43 43 43 44 44 46 49 48 46 44 45 47 47 44 41 40 40 39 39 38 38 38 42 45 46 47 48 49 48 49 51 50 50 51 50 50 52 50 48 47 49
46 47 46 45 45 45 45 50 49 47 47 44 46 48 45 44 42 40 40 39 38 36 35 40 44 45 46 48 49 51 51 52 52 56 56 56 55 57 48 56 50 44 58
48 48 47 47 47 49 53 50 48 47 45 45 47 47 45 43 41 40 38 37 37 36 39 43 45 46 47 47 51 52 53 52 52 52 50 51 59 59 57 62 55 52 57
49 50 50 50 53 52 50 49 47 45 46 47 46 45 43 41 40 39 38 37 37 37 40 44 45 47 48 49 48 48 49 51 51 48 49 48 48 48 55 40 48 55 45
51 51 51 52 50 49 47 46 43 44 47 48 47 45 42 40 39 39 39 39 39 39 40 44 45 47 46 44 43 45 48 49 50 47 40 41 43 47 55 56 41 50 40
52 52 50 48 47 45 43 41 44 49 48 47 45 42 41 39 39 39 40 40 39 39 40 43 44 44 41 40 40 41 43 46 43 39 34 32 26 24 32 40 37 42 29
48 46 46 44 43 43 43 46 51 49 46 43 41 40 39 38 38 39 38 39 39 39 41 42 40 38 35 35 38 38 38 36 30 21 23 25 23 24 30 28 32 41 37
44 43 43 44 44 46 49 52 49 45 42 40 39 39 38 37 38 39 39 39 40 40 42 39 34 32 32 33 33 34 34 23 18 18 14 17 21 19 20 19 20 24 32
45 45 44 45 47 50 51 48 44 42 39 38 38 37 37 38 40 41 40 40 40 40 38 33 30 30 30 30 30 31 30 22 23 22 10 9 8 8 8 9 16 19 21
45 44 45 48 51 47 45 43 40 38 38 37 37 38 38 40 40 39 39 38 38 38 32 29 28 28 29 29 27 29 27 24 23 23 20 18 15 13 13 12 17 20 24
43 45 48 47 45 43 40 38 37 37 38 38 38 39 39 38 37 36 36 37 36 32 30 29 28 29 28 28 28 27 28 26 24 22 21 20 20 19 19 19 22 25 26
47 45 44 44 40 38 36 36 37 38 39 39 37 36 35 34 35 35 35 34 31 30 29 28 29 29 29 29 30 29 29 29 28 26 25 24 22 22 22 23 24 25 27
43 43 40 38 36 36 36 38 38 38 33 33 32 32 32 33 33 34 33 31 30 29 29 30 30 30 30 30 31 31 32 31 31 31 31 29 28 28 28 29 31 32 32
39 39 37 37 36 36 35 36 32 30 29 29 30 31 32 33 32 32 31 31 30 29 30 31 31 32 33 33 33 34 34 34 34 35 35 36 35 34 34 35 36 36 38
36 37 38 36 35 34 30 28 27 26 26 28 29 29 31 31 30 30 31 31 31 32 32 33 33 34 35 36 36 37 37 37 38 38 38 40 39 37 38 38 40 41 42
38 37 35 32 28 27 25 25 24 25 26 26 27 27 28 28 29 29 30 30 32 33 33 33 35 37 37 37 38 38 39 39 40 40 41 41 41 41 41 42 44 44 45
29 27 26 26 25 24 23 22 24 24 24 25 26 27 27 29 29 30 30 30 31 33 34 37 39 39 38 38 40 40 40 41 41 41 42 42 43 43 44 46 48 50 53
25 24 24 23 23 22 22 23 23 25 25 25 27 28 30 32 33 34 35 35 35 35 37 38 39 40 41 41 41 41 42 42 42 43 43 44 45 46 46 49 52 55 55

GFSMA_500_spd_072.txt.gz
Wind_Speed
17 17 18 18 18 19 21 22 23 24 25 26 27 28 30 30 30 33 34 34 35 35 35 35 35 34 34 34 34 35 34 33 30 30 31 29 30 31 32 32 31 29 28
19 21 21 21 21 22 23 25 26 27 27 29 30 31 32 32 33 35 36 36 37 37 38 37 35 35 35 34 35 33 33 31 31 32 32 31 32 32 32 33 32 32 31
23 24 24 24 25 26 26 27 28 29 31 32 34 34 35 34 35 38 37 38 39 39 39 37 37 34 35 34 32 32 32 31 31 32 33 34 35 34 33 34 34 34 33
26 27 28 29 29 28 28 30 31 32 33 36 36 37 37 37 38 39 40 40 41 42 40 39 37 37 36 34 34 31 29 31 33 33 34 35 37 38 37 36 36 36 36
30 30 31 31 31 31 32 32 34 35 36 37 38 38 40 40 40 40 41 42 43 42 41 40 40 38 36 36 32 32 33 34 36 38 39 37 38 38 38 38 39 38 38
33 32 32 33 34 34 35 36 36 38 39 40 41 41 42 42 42 42 44 45 44 44 43 42 40 38 38 35 34 36 38 39 40 40 39 39 39 40 40 40 38 39 39
36 36 35 37 37 38 39 39 40 41 41 42 43 44 43 43 43 43 45 46 46 44 42 40 39 40 38 36 37 40 41 41 43 43 41 38 41 41 41 43 44 42 42
40 40 40 39 40 41 42 42 43 44 44 44 47 49 44 42 42 44 46 46 46 44 42 41 41 40 38 37 40 42 42 43 44 43 44 44 40 42 44 44 45 46 45
43 43 43 43 43 44 43 44 45 46 47 48 52 49 47 45 42 44 44 45 43 42 40 42 41 40 37 40 42 43 44 44 43 45 45 45 45 46 46 49 52 52 50
46 47 46 46 46 46 46 45 46 47 50 52 48 47 47 44 45 45 45 43 41 40 40 41 40 39 41 43 43 44 45 43 43 41 42 44 46 48 49 50 47 56 43
50 49 49 48 48 48 47 47 48 50 54 52 51 47 42 44 47 47 46 43 41 39 40 40 40 40 42 43 44 44 43 41 40 39 41 44 46 48 48 48 48 43 52
53 52 51 51 50 50 49 49 51 52 49 47 44 41 44 47 47 48 44 41 40 38 38 41 42 41 42 43 44 43 39 37 37 39 42 45 39 37 41 49 50 50 49
54 54 53 52 52 52 51 51 50 48 45 42 42 45 50 49 48 45 43 40 38 37 39 41 42 41 42 43 42 38 35 35 36 37 40 31 31 31 31 42 37 34 38
53 54 55 55 54 53 50 47 45 43 43 45 47 52 52 49 45 43 41 41 38 39 40 40 41 42 43 41 37 33 33 31 32 34 29 27 31 31 24 28 33 27 25
55 56 55 53 50 47 45 44 42 44 46 48 51 50 47 44 43 41 40 41 41 40 42 42 41 42 42 38 33 31 30 30 30 30 26 26 28 30 25 30 23 35 31
52 52 50 49 46 44 43 43 44 46 48 49 48 44 42 41 40 41 41 41 42 43 41 40 41 41 39 33 30 30 27 27 27 25 26 27 24 22 20 19 23 28 32
51 50 48 45 44 44 43 45 47 47 47 45 42 41 39 39 40 40 41 42 41 40 39 39 39 38 34 31 29 29 27 27 27 24 24 24 22 24 21 14 13 16 19
50 47 45 44 42 42 44 45 46 46 45 41 40 39 39 39 39 40 39 38 37 37 38 38 36 33 32 30 29 29 29 28 28 26 25 25 25 22 17 20 17 19 19
51 46 43 42 42 43 44 45 44 42 39 38 38 38 39 40 37 36 34 34 36 36 36 35 33 31 30 29 30 30 30 30 30 29 28 29 27 27 27 22 18 20 24
45 43 42 43 44 45 44 42 39 38 37 37 38 38 37 34 32 33 34 34 35 34 34 33 32 31 30 31 31 32 32 32 33 32 32 32 32 31 30 31 30 26 25
40 42 43 47 44 41 38 38 38 36 40 39 36 32 31 30 30 31 32 33 34 32 32 32 31 30 31 31 32 33 34 34 35 35 35 35 35 35 34 34 35 34 35
46 45 40 40 43 40 35 34 38 38 34 33 30 27 28 29 29 30 31 32 32 32 31 31 31 31 32 32 32 34 36 36 36 37 36 37 38 38 38 39 39 38 38
41 39 40 39 38 38 39 38 35 31 29 27 27 27 28 27 28 27 27 28 29 30 30 31 31 31 32 33 35 37 37 36 36 37 38 39 40 40 41 42 42 41 41
36 36 39 41 40 38 34 30 28 27 26 26 26 27 26 26 27 27 27 27 28 30 31 32 33 34 35 36 36 37 37 38 39 39 40 41 42 42 42 43 44 44 45
37 37 35 34 30 28 27 26 25 25 26 27 26 26 25 26 27 29 31 32 32 32 32 32 34 36 37 38 38 38 39 40 41 42 43 43 43 43 44 46 46 47 47
28 30 29 29 27 26 25 25 25 25 26 26 25 26 26 27 30 31 32 31 32 33 34 35 36 36 37 38 38 38 39 40 42 43 44 44 45 46 47 48 49 50 50

GFSMA_500_spd_075.txt.gz
Wind_Speed
17 16 15 15 15 16 18 19 20 22 23 25 26 28 30 32 33 34 33 33 35 35 35 36 38 37 36 34 32 31 30 30 30 28 27 26 26 27 28 29 29 29 28
19 18 19 18 19 20 21 21 23 24 26 27 29 30 32 33 35 35 35 35 36 36 37 38 40 39 36 34 33 32 31 32 30 26 26 26 28 29 30 30 30 30 29
20 21 22 22 22 24 24 25 25 27 29 30 32 33 34 35 37 38 38 38 37 37 38 40 42 41 37 34 34 32 33 31 27 29 29 30 31 33 33 33 32 32 32
23 24 25 25 26 27 27 28 28 29 31 33 34 36 37 37 39 40 42 41 40 39 40 42 43 40 37 36 35 35 34 29 30 33 33 33 35 36 37 36 34 34 33
27 28 29 29 29 29 29 30 31 32 33 36 37 38 39 40 40 43 44 43 42 40 41 43 42 43 40 38 36 36 34 31 32 34 36 37 37 37 36 36 35 36 36
32 32 32 33 33 32 33 33 34 35 37 38 39 40 41 41 42 45 44 43 43 42 43 44 45 44 42 40 37 35 33 33 36 38 38 39 40 38 37 37 36 37 38
36 36 36 36 36 36 36 36 38 39 40 40 40 42 42 43 46 46 45 44 43 43 44 46 47 44 41 39 38 36 35 36 38 39 41 43 40 39 41 39 39 39 40
40 40 39 39 40 40 40 41 41 42 43 43 44 45 44 46 48 44 42 42 43 45 47 49 47 43 40 38 37 38 38 39 40 40 42 41 42 40 39 39 40 40 41
43 43 43 43 43 44 44 44 45 46 46 45 46 47 49 51 50 45 41 40 43 47 49 48 44 42 39 39 39 39 40 40 41 42 41 39 38 38 39 39 42 43 46
46 46 47 46 47 48 48 48 48 48 48 47 48 47 50 49 47 44 42 42 46 49 48 46 43 40 39 41 41 41 41 40 42 42 37 34 34 37 40 38 40 38 42
47 48 50 51 52 52 51 51 50 50 50 50 50 50 49 47 45 43 44 46 50 48 45 44 42 40 40 41 42 41 40 41 42 37 33 33 32 37 36 30 33 39 42
52 54 55 55 55 53 53 53 53 51 51 51 51 50 47 45 43 45 48 51 50 46 43 43 42 42 42 42 43 42 41 41 39 32 31 30 31 29 27 31 35 38 46
60 60 58 56 54 53 55 54 53 52 52 51 47 46 45 45 47 49 52 50 46 42 41 40 42 43 44 43 43 42 41 40 33 31 29 29 28 26 24 29 33 30 34
55 54 54 55 55 54 54 55 54 51 48 46 45 44 46 47 49 51 51 47 44 42 41 40 42 43 44 44 41 41 40 35 29 28 26 27 24 27 29 29 30 30 31
54 54 53 54 55 54 52 50 48 47 45 43 44 45 48 48 50 49 46 44 43 41 40 40 42 45 43 41 41 39 37 31 30 27 26 25 22 22 24 27 31 25 26
53 55 55 54 52 51 49 48 46 45 44 43 45 47 47 49 48 45 43 41 41 40 41 42 42 40 39 39 39 37 31 29 29 26 27 25 23 22 24 22 25 27 23
55 55 54 53 52 50 48 46 44 44 43 44 46 46 47 45 42 41 39 38 39 40 41 38 37 37 37 37 35 32 30 29 29 28 28 28 26 25 24 24 23 25 25
56 55 55 53 51 49 47 45 43 44 45 46 45 46 44 41 39 38 38 39 41 38 35 35 36 36 36 34 32 30 29 30 29 29 28 29 29 29 28 26 26 23 24
58 56 55 52 49 49 45 43 43 44 45 46 44 41 40 38 38 39 37 36 34 34 33 34 35 34 33 32 31 30 30 30 30 29 30 30 30 30 31 30 28 27 25
46 46 47 45 44 42 42 44 44 44 43 41 37 36 38 38 38 35 34 30 30 30 31 32 32 32 32 31 31 31 30 30 29 29 31 32 32 32 32 32 33 33 32
43 44 43 42 42 41 45 46 48 48 42 42 37 35 39 36 35 29 29 28 29 29 29 30 30 30 29 29 30 30 30 30 29 31 33 34 34 33 33 34 35 36 36
40 40 41 41 42 46 48 46 40 41 35 33 35 35 32 31 28 27 29 29 27 28 29 28 28 27 27 27 28 29 30 32 34 34 32 33 35 35 36 37 37 38 39
48 43 46 46 49 46 44 42 41 37 39 39 35 31 30 28 27 28 28 27 28 27 27 28 28 29 29 30 31 31 32 33 34 34 35 35 36 36 38 39 40 40 40
46 49 49 45 40 38 38 38 35 34 36 32 29 27 27 27 28 28 28 28 30 31 32 31 31 31 31 32 33 35 35 35 34 35 35 36 37 38 39 40 41 41 42
32 31 33 33 38 39 38 35 33 30 28 27 26 26 27 28 28 27 28 30 32 33 30 29 30 31 32 34 34 35 35 35 35 35 36 37 39 40 42 44 45 47 48
27 27 26 27 30 31 31 30 29 26 24 25 26 26 28 29 27 27 28 30 29 27 27 29 30 32 34 35 35 34 33 34 36 36 38 40 42 44 46 47 48 49 49

GFSMA_500_spd_078.txt.gz
Wind_Speed
16 15 14 14 14 14 15 17 17 17 19 20 22 23 25 27 29 30 32 33 34 36 36 35 35 33 35 37 36 34 31 31 30 30 30 25 26 26 27 27 27 27 26
18 18 17 17 16 17 18 19 19 20 21 22 23 24 27 28 30 32 33 33 35 39 38 37 36 36 36 37 37 35 33 32 31 31 28 27 28 28 29 30 30 30 30
21 21 21 21 20 20 21 21 22 23 23 24 26 27 28 31 32 34 34 35 37 40 40 39 36 37 37 38 38 35 33 32 33 31 29 29 30 31 32 32 32 32 32
25 25 24 23 23 24 24 24 25 26 26 27 28 29 30 32 33 36 37 38 41 41 37 37 38 39 38 39 38 36 34 32 33 33 31 31 32 32 34 35 35 33 32
29 28 27 27 27 27 27 28 28 29 29 30 31 32 33 35 36 36 37 40 44 42 38 38 38 38 39 42 40 37 34 34 34 33 32 35 35 34 35 37 36 34 33
31 30 31 31 31 31 31 31 31 32 33 34 34 34 36 37 38 39 40 43 45 43 40 41 38 39 41 44 42 37 35 35 35 34 35 37 37 36 38 38 35 34 33
34 34 34 35 35 34 34 35 35 36 36 37 38 38 38 41 42 43 41 44 45 43 40 38 42 42 44 44 41 37 35 35 36 35 37 37 39 39 41 37 34 33 32
36 37 38 37 37 37 37 38 39 39 40 41 41 42 43 42 43 45 45 42 42 39 42 40 43 45 48 44 38 37 37 36 36 38 39 38 39 39 37 35 34 36 38
39 40 39 40 40 40 41 41 41 42 43 44 45 46 47 46 45 45 45 41 40 39 41 43 46 47 47 41 38 37 37 36 38 39 38 37 39 38 34 32 33 37 46
43 44 43 43 44 44 44 43 45 47 48 47 47 48 49 48 49 45 46 43 41 42 44 47 49 45 44 39 38 37 37 38 39 38 37 38 38 33 31 30 33 32 26
45 46 47 47 47 47 48 49 51 51 51 51 50 50 49 49 49 46 43 42 43 45 47 49 48 43 40 38 38 37 38 40 39 38 37 37 34 30 28 30 27 25 27
50 50 52 52 51 52 53 55 55 52 51 50 52 51 51 49 45 43 43 42 44 46 49 49 45 42 39 38 38 38 39 40 39 36 36 33 30 27 28 25 23 24 27
54 54 55 55 55 55 56 55 52 51 52 52 52 51 48 46 45 43 43 44 44 46 47 45 42 41 39 38 38 40 40 37 36 35 34 28 28 25 24 21 22 27 30
59 58 58 58 58 56 53 52 52 52 51 51 49 48 46 43 43 43 44 46 46 46 44 40 39 39 38 39 40 39 35 35 34 34 29 27 25 24 22 19 21 21 25
56 56 58 57 55 54 53 52 51 51 49 48 48 45 43 43 43 44 46 46 48 44 40 37 37 38 39 41 38 34 33 32 32 29 27 26 24 24 23 21 20 21 23
53 54 54 54 53 51 51 51 51 49 47 46 45 43 42 43 43 45 46 47 45 42 37 36 36 39 40 35 34 33 32 31 28 26 26 26 26 25 26 25 22 23 23
54 53 53 53 52 52 51 49 48 47 45 43 43 43 42 43 44 45 46 44 40 36 35 34 36 33 32 32 31 31 30 27 26 26 26 26 26 26 27 27 25 24 23
56 55 55 54 53 53 52 51 50 46 44 44 42 43 43 44 44 45 43 38 36 34 33 33 30 30 29 28 27 27 27 26 26 27 27 26 26 26 28 28 28 28 27
59 57 57 57 56 53 51 50 47 44 43 43 42 43 43 43 44 39 35 35 34 34 31 29 28 27 26 26 26 27 26 25 26 26 27 26 25 26 27 29 29 28 28
53 57 51 47 47 46 44 44 43 41 42 43 44 44 44 44 40 37 34 38 32 33 28 27 27 27 27 27 26 26 26 26 26 26 26 26 27 28 29 29 29 29 29
43 42 45 47 47 46 44 42 41 41 43 46 47 48 44 39 34 35 35 29 30 29 28 26 26 25 26 25 25 25 26 26 26 28 28 29 30 28 29 30 31 31 31
41 41 42 42 41 41 42 43 42 46 47 48 48 39 35 32 37 30 33 29 27 29 27 25 26 25 26 27 29 28 27 28 28 31 32 31 31 31 32 32 32 32 33
39 38 41 42 44 45 46 45 46 49 51 48 43 44 37 35 30 30 28 28 27 28 27 26 28 29 28 28 28 27 28 29 30 31 31 31 32 32 33 33 33 33 34
38 38 39 36 39 44 47 48 49 43 36 37 31 32 33 30 30 27 28 28 28 27 27 29 29 29 26 26 27 27 29 30 31 31 31 31 32 33 34 34 35 37 38
39 38 37 35 33 30 31 32 35 36 31 26 28 29 29 28 28 26 28 31 28 28 28 28 27 26 26 27 28 30 31 31 30 31 31 32 34 35 37 39 40 41 39
32 29 27 27 26 25 26 26 27 26 27 28 26 26 25 26 27 27 30 31 28 27 28 30 28 28 29 29 30 30 31 32 32 33 34 36 37 39 41 39 37 38 42

GFSMA_500_spd_081.txt.gz
Wind_Speed
18 16 15 14 14 14 14 14 14 15 16 16 17 18 19 21 23 24 26 28 31 31 32 34 35 32 31 31 32 32 33 34 32 30 29 30 28 26 25 26 26 27 26
20 19 17 17 17 17 17 17 17 17 18 18 19 19 21 23 24 25 27 29 31 33 35 36 35 32 32 32 31 32 35 36 33 31 30 31 29 27 27 28 29 29 29
23 22 21 20 20 20 20 20 20 20 20 20 21 21 23 25 27 28 29 30 31 32 35 38 39 36 35 32 32 34 37 36 34 33 32 31 30 29 30 30 30 31 31
26 26 24 24 24 23 23 22 22 23 23 23 23 24 26 27 29 30 32 35 36 36 36 37 38 37 34 32 33 36 38 37 35 34 33 33 32 30 30 32 31 32 33
29 28 28 27 26 25 25 25 25 25 26 26 27 27 29 30 32 33 35 35 38 39 39 38 37 33 32 33 34 37 39 36 36 34 34 33 33 33 33 33 33 34 33
30 30 30 30 28 28 29 28 28 28 28 29 30 30 32 33 34 36 37 38 39 41 39 39 37 34 33 35 37 39 39 36 35 35 33 34 35 35 36 35 34 34 31
31 32 31 31 32 31 32 32 31 31 31 32 32 33 33 35 37 39 40 40 40 42 41 39 37 36 36 38 41 41 38 34 33 33 34 35 35 36 36 34 35 33 32
34 34 34 34 34 34 35 36 35 35 35 36 37 37 37 36 39 40 42 43 43 41 39 38 36 37 38 40 41 41 38 34 33 32 33 34 35 33 33 34 35 33 30
33 36 38 37 37 38 39 39 39 39 40 38 41 43 43 42 39 41 43 42 42 40 37 36 36 38 41 42 40 38 36 34 33 33 33 35 34 33 33 34 32 30 29
36 35 41 44 43 44 43 43 42 43 43 44 46 49 47 48 47 46 44 45 43 40 38 37 38 40 42 44 41 37 35 33 34 34 35 36 34 32 33 32 29 27 28
41 42 43 44 46 46 46 46 46 46 48 50 52 51 49 47 48 49 46 43 42 41 39 39 41 42 43 43 39 35 33 33 35 37 37 34 32 32 31 28 27 27 26
45 46 45 46 48 50 50 51 50 53 53 52 53 51 48 47 47 46 44 42 42 41 41 42 42 43 44 41 37 35 33 34 36 36 34 31 31 30 26 27 25 25 23
50 49 51 52 53 54 54 54 54 53 53 54 51 48 47 46 45 43 41 40 40 40 41 42 44 44 43 39 36 34 35 37 34 31 30 29 29 26 25 25 23 21 20
52 52 53 55 57 59 61 61 59 58 56 53 49 48 46 45 43 42 40 39 39 40 41 43 46 45 41 36 34 35 37 31 30 29 30 29 25 23 24 22 21 21 19
52 54 52 56 56 56 55 55 54 54 53 52 48 46 45 43 41 39 38 38 39 40 42 43 44 41 35 33 36 34 31 29 28 27 27 26 23 23 23 22 21 21 21
54 56 56 56 56 55 55 54 54 54 51 48 44 43 42 41 40 38 39 39 41 42 42 42 39 35 34 35 34 31 30 27 24 24 24 24 23 23 23 22 22 22 22
54 57 60 58 56 55 54 54 53 52 49 48 45 44 43 42 42 40 41 42 42 42 42 38 35 33 32 34 31 29 25 25 24 24 22 22 23 24 23 22 21 21 23
52 51 48 51 53 54 54 55 54 54 53 51 47 47 43 42 43 43 42 42 43 43 38 32 30 31 33 29 28 26 25 24 23 23 22 23 24 24 23 22 22 23 23
56 57 58 56 56 55 55 54 55 56 56 52 49 44 42 43 42 44 43 42 43 34 32 35 35 30 28 27 27 24 24 23 22 23 23 24 24 24 24 25 25 27 27
58 54 57 58 57 56 54 52 52 51 50 46 43 43 43 43 44 45 42 40 36 33 35 30 30 28 28 25 24 23 23 22 23 24 24 25 25 25 27 28 28 27 28
47 47 46 44 45 47 47 47 47 48 49 47 45 41 42 44 45 43 43 36 33 30 28 29 29 28 27 24 23 23 24 24 25 26 25 27 27 28 29 30 29 30 30
41 41 42 43 43 42 42 42 44 44 45 46 46 43 44 45 47 36 36 32 35 31 29 28 29 26 27 26 24 27 27 25 25 26 27 28 28 28 29 29 29 31 31
42 43 44 43 42 42 41 41 44 45 44 46 44 40 35 38 46 42 37 35 27 28 28 28 29 27 27 28 29 29 27 25 25 26 28 29 28 28 29 28 28 29 30
42 42 42 42 41 40 39 37 37 38 42 46 48 46 49 42 34 31 30 28 28 25 28 28 29 27 27 28 26 26 26 26 27 28 28 29 29 30 30 30 31 32 33
37 37 39 39 38 37 36 35 34 32 31 31 32 34 33 29 25 27 27 24 22 26 28 29 28 26 26 27 25 26 27 28 28 29 29 31 31 32 33 33 34 36 38
33 32 31 31 32 30 29 29 29 29 29 28 25 25 26 27 30 25 20 21 24 27 28 28 29 29 29 28 28 28 29 29 31 31 32 33 33 34 35 36 38 39 37

GFSMA_500_spd_084.txt.gz
Wind_Speed
21 19 18 17 15 16 16 16 16 15 15 15 15 16 16 18 19 20 22 24 25 27 29 29 31 31 31 30 30 29 28 29 31 34 33 31 30 29 29 27 27 26 25
24 22 21 20 19 18 18 18 18 18 18 18 17 18 19 20 22 23 25 26 28 30 31 33 34 33 33 31 30 28 29 31 32 35 35 32 31 30 30 28 28 27 27
26 25 24 23 21 20 20 20 19 20 20 20 20 20 21 22 24 26 27 27 30 32 33 35 36 37 35 32 31 30 31 34 36 37 35 31 31 30 30 29 29 28 29
29 28 27 27 25 24 24 23 23 22 22 22 22 22 23 24 26 28 29 30 33 34 34 35 36 34 34 33 33 31 33 35 38 39 36 34 31 31 30 29 28 29 30
31 29 30 30 28 27 26 26 25 25 24 24 24 24 26 27 28 30 32 32 35 35 36 36 37 34 33 33 32 32 34 37 39 38 37 34 33 32 30 29 30 31 29
31 31 32 31 30 29 29 29 29 27 27 27 28 28 29 31 32 34 34 35 37 39 40 39 38 36 34 33 32 33 35 38 39 37 36 33 32 32 32 31 31 31 28
31 32 32 33 33 33 32 32 32 31 32 33 32 33 32 34 34 37 39 39 40 41 43 40 39 37 35 34 34 36 37 39 39 37 35 33 31 31 31 33 33 30 29
29 32 33 35 35 36 35 36 36 35 35 37 38 37 35 35 38 40 44 43 42 44 44 41 38 37 36 35 37 38 38 40 38 36 33 33 33 32 32 30 31 31 31
27 32 36 35 36 39 40 39 39 38 39 38 40 41 40 39 44 46 47 44 44 45 45 40 37 36 34 35 36 37 39 40 39 36 32 32 33 34 33 33 31 29 29
34 33 30 34 39 40 41 45 44 43 45 43 43 44 44 47 49 49 45 47 48 45 42 38 36 34 34 35 37 38 40 40 38 35 33 33 35 38 34 31 29 29 25
37 40 40 41 43 43 42 43 44 47 49 48 48 48 49 52 55 55 51 45 47 44 41 38 36 34 34 36 38 41 41 37 35 33 33 36 36 35 30 29 29 26 24
44 45 44 45 46 47 47 46 47 50 51 52 52 52 52 52 53 53 53 49 47 43 41 39 36 35 35 37 39 41 40 34 32 33 38 34 29 28 28 28 27 24 23
47 46 50 49 53 53 52 53 53 53 53 55 58 59 58 57 54 51 49 46 44 42 39 36 35 36 38 39 40 39 37 34 33 38 32 29 27 27 27 26 23 23 21
54 53 53 56 59 58 59 60 61 62 60 57 55 54 52 51 51 50 46 43 41 40 37 35 38 40 40 41 41 38 35 33 36 31 29 28 26 25 25 23 22 21 20
47 43 46 47 46 51 46 52 53 54 53 52 53 52 53 51 49 45 41 40 38 37 38 39 41 42 42 41 41 36 33 36 32 29 25 25 24 23 23 23 21 21 20
46 47 49 49 49 50 54 54 52 54 53 53 52 53 52 50 48 45 42 41 41 39 41 41 43 43 43 42 38 34 33 32 28 26 23 24 24 22 21 22 22 21 21
47 47 50 52 47 47 51 54 55 54 54 54 53 54 51 48 48 47 46 43 42 42 42 43 44 44 42 38 34 32 33 29 24 24 24 23 22 21 21 22 22 22 22
49 51 48 49 50 52 57 56 52 54 54 54 55 54 51 50 49 47 46 45 44 44 44 44 43 44 37 33 35 33 29 27 24 25 22 21 21 21 21 22 22 21 21
55 57 56 56 58 58 57 58 59 59 57 56 54 54 51 51 48 45 44 44 44 45 46 43 42 38 35 36 32 30 29 26 25 24 23 22 22 22 23 23 22 23 24
55 56 57 57 58 55 55 61 60 59 61 58 55 52 50 48 46 44 45 47 45 45 44 39 42 37 35 31 32 30 28 26 24 24 24 24 23 23 24 25 26 26 26
47 48 49 49 48 50 51 49 47 48 47 48 49 49 50 51 49 45 42 43 44 41 37 42 36 32 28 30 29 31 29 26 25 25 26 26 24 24 25 26 27 27 28
45 47 47 47 48 48 47 47 47 47 46 45 46 46 48 46 42 42 37 40 43 40 35 34 37 34 25 28 29 30 29 28 28 27 27 26 25 25 26 27 27 27 27
43 44 45 45 46 47 47 46 44 43 43 42 42 41 43 47 46 42 40 40 41 46 40 38 32 23 26 28 29 30 30 30 29 26 26 27 26 26 26 26 27 28 28
38 40 40 42 43 43 43 43 44 44 43 42 42 42 41 41 45 45 46 46 44 38 33 30 25 24 26 27 28 28 28 26 25 25 26 28 28 27 27 28 29 30 31
38 39 39 38 37 37 37 37 38 38 37 37 37 38 37 36 33 31 33 35 32 32 28 23 23 25 26 27 26 26 27 27 26 27 28 29 30 30 30 30 31 32 33
33 32 32 33 33 34 36 36 32 34 34 34 33 32 34 30 28 30 31 30 31 24 22 22 24 24 26 28 28 29 29 29 29 29 30 31 32 32 32 32 33 34 35

GFSMA_500_spd_087.txt.gz
Wind_Speed
22 21 21 20 18 17 16 16 16 16 16 16 17 17 18 19 19 20 21 23 23 24 25 27 29 31 32 34 34 33 31 29 27 28 30 33 33 32 31 30 29 28 27
25 23 23 22 21 20 19 19 19 19 18 18 19 19 20 21 21 21 23 24 25 27 29 31 32 33 34 36 36 33 31 31 30 30 33 34 34 33 32 30 29 28 27
27 26 25 24 24 23 23 23 22 21 21 21 21 22 22 22 23 24 26 26 28 30 32 33 35 36 36 37 36 35 33 31 32 32 35 36 35 35 33 30 30 28 27
28 28 27 28 28 27 26 26 25 24 24 25 25 24 24 24 25 27 29 29 30 31 33 34 36 38 38 39 37 36 34 32 33 35 37 37 36 35 33 31 29 28 26
31 29 30 31 30 30 29 29 28 28 29 29 28 26 27 28 29 31 32 33 33 33 35 37 38 40 41 39 37 34 33 32 34 35 37 37 37 35 33 31 30 28 27
32 31 33 33 32 32 32 32 32 31 31 32 31 31 31 32 32 35 35 36 36 36 39 41 40 42 43 42 38 35 32 33 35 35 36 37 36 35 33 32 30 29 30
32 32 35 36 35 35 34 34 33 33 34 36 34 35 34 35 36 36 36 38 38 43 47 45 43 45 43 40 38 36 33 34 35 36 38 37 35 32 31 30 31 31 31
35 34 35 36 37 36 36 36 36 36 38 39 39 38 35 36 38 38 39 41 45 46 47 45 46 47 44 38 37 38 36 36 36 37 37 35 34 31 31 30 32 32 29
25 26 31 36 38 40 38 38 37 37 39 40 42 42 41 39 40 41 42 44 46 48 49 46 46 46 43 37 36 35 35 36 37 38 36 34 32 32 31 32 33 31 28
37 38 30 29 25 34 37 38 37 37 39 41 43 47 51 51 47 46 45 48 49 52 50 49 46 42 39 37 35 33 35 36 37 38 36 33 32 33 35 34 30 28 28
31 32 32 40 41 36 33 35 37 41 42 44 46 47 50 52 53 54 51 53 56 56 53 50 45 41 38 35 33 34 36 38 38 37 35 33 33 36 34 29 27 26 26
34 36 41 39 42 42 43 43 46 47 49 51 52 51 52 53 54 57 60 59 53 49 47 46 43 40 37 35 35 36 37 39 40 36 34 33 35 33 27 27 26 24 25
39 44 45 48 46 55 47 48 48 51 54 56 56 57 55 59 57 53 50 49 49 47 46 43 40 39 36 36 37 38 40 41 40 37 35 33 34 28 26 24 23 24 22
44 47 46 49 53 52 53 54 50 48 51 53 53 51 50 50 50 50 49 49 48 48 44 42 40 40 39 39 38 39 40 40 39 36 35 34 29 25 23 21 20 21 21
48 47 49 48 50 47 46 44 46 49 49 47 49 49 50 51 52 51 50 47 47 46 42 42 42 43 43 42 40 40 41 40 37 35 36 29 26 24 22 22 21 19 19
50 51 49 45 45 49 51 51 50 51 53 54 52 52 54 52 50 50 51 52 48 46 46 45 44 45 44 42 42 40 41 36 34 33 35 27 23 24 23 21 20 18 19
48 48 50 47 46 47 52 51 50 51 50 52 53 55 53 53 53 53 53 51 50 49 46 45 45 45 44 43 42 41 39 34 31 36 30 26 25 23 22 19 19 18 18
49 53 55 54 55 56 52 52 51 52 54 56 57 58 57 58 59 56 55 54 50 49 49 46 47 45 44 42 41 37 35 31 34 31 29 25 26 24 22 20 18 18 18
49 49 50 51 53 54 54 56 58 59 61 61 60 59 56 60 58 53 53 53 50 47 48 47 46 46 44 36 41 35 35 35 29 31 28 25 25 25 23 21 19 19 19
46 46 46 46 46 46 47 48 49 50 50 50 49 49 48 48 47 48 49 50 47 47 46 45 42 41 39 38 35 37 37 29 31 31 28 26 24 25 24 22 21 21 22
36 38 40 43 44 45 45 46 47 48 48 48 47 47 47 46 46 46 47 46 47 49 49 41 40 39 36 35 40 36 30 30 30 31 28 27 25 26 24 22 22 23 23
39 40 41 42 44 45 45 45 45 46 46 46 46 46 44 42 42 42 42 43 43 40 38 41 38 41 35 38 35 38 30 28 31 30 30 28 28 26 24 23 24 24 23
40 40 41 41 41 41 41 42 43 44 44 44 44 44 44 45 44 42 43 42 42 43 39 36 37 40 39 37 32 25 27 26 30 32 31 31 29 25 24 24 25 25 25
39 39 39 39 38 38 39 41 43 43 42 43 43 42 40 39 40 41 39 38 38 40 39 42 41 36 36 31 27 25 25 27 30 30 28 27 26 25 25 25 26 27 27
40 40 40 40 40 41 40 38 37 38 39 40 39 38 35 34 35 34 33 34 29 29 34 41 43 37 28 23 22 24 25 26 28 27 27 27 26 26 26 27 27 28 30
42 43 42 38 37 37 37 37 38 39 37 38 36 35 33 34 36 33 31 30 30 33 36 33 27 28 25 22 24 23 24 27 30 30 29 29 29 28 28 28 29 30 32

GFSMA_500_spd_090.txt.gz
Wind_Speed
22 22 21 20 19 19 18 18 17 17 16 16 16 17 18 20 21 22 22 21 22 23 24 26 27 28 29 32 35 36 37 35 32 31 31 28 30 32 32 31 31 28 26
23 24 23 23 21 21 21 21 21 20 20 19 20 21 22 23 24 25 24 24 25 26 28 29 29 30 31 35 36 38 39 37 35 33 32 30 31 33 33 31 30 28 26
25 26 25 25 25 24 24 24 24 24 23 23 23 23 25 26 26 26 26 27 27 30 32 32 31 30 34 37 37 38 40 38 35 34 33 31 32 32 33 32 31 29 26
29 29 31 29 29 28 27 27 28 28 28 27 26 26 26 27 27 28 30 30 31 32 33 33 33 34 38 41 41 43 43 39 36 33 32 33 32 32 32 31 30 28 25
34 33 32 31 32 31 31 31 31 32 31 31 30 30 29 29 29 31 33 34 35 34 34 35 35 38 43 43 44 44 43 38 34 33 32 33 33 34 33 30 29 28 26
37 34 34 34 34 34 34 35 35 35 35 34 32 32 32 33 34 34 34 36 38 37 37 37 39 43 41 44 45 44 45 37 34 33 33 34 33 33 33 31 30 28 27
35 38 37 37 35 38 38 39 39 39 39 38 37 37 36 37 38 37 36 37 38 39 40 41 43 45 44 44 43 44 45 39 33 32 33 34 35 34 32 30 29 28 28
41 42 46 38 39 39 43 43 42 39 39 39 37 37 37 39 40 40 39 40 40 42 44 45 46 47 48 48 48 44 40 40 34 33 33 34 35 35 33 31 29 29 31
32 32 32 35 37 41 43 43 41 39 39 40 40 39 38 38 39 40 42 45 45 45 46 47 49 52 54 49 45 41 39 38 33 32 34 34 34 34 31 30 30 34 34
35 30 33 32 31 30 32 37 40 45 40 37 38 38 40 42 41 41 44 47 48 49 51 52 53 50 48 44 41 39 37 36 34 33 34 34 34 32 30 31 35 34 28
31 31 23 25 29 30 27 30 33 35 34 34 36 38 41 46 49 50 52 52 52 52 55 53 46 43 43 42 39 37 36 36 34 35 35 34 33 31 29 32 35 27 25
32 31 31 31 32 34 32 32 36 36 41 44 44 46 48 49 52 54 55 57 56 51 47 46 44 42 41 39 38 37 37 36 35 36 36 35 34 30 30 33 30 25 22
31 36 41 37 33 36 43 45 45 44 47 48 48 50 51 51 51 52 49 48 47 47 46 44 42 41 41 39 38 38 38 37 39 37 36 34 31 29 29 31 26 22 20
43 39 40 39 42 40 46 43 43 45 46 48 47 46 48 47 47 45 47 46 46 49 48 44 44 45 44 41 40 40 41 41 39 38 38 33 30 28 29 26 20 20 18
43 45 49 46 46 50 50 49 47 43 46 43 43 48 50 50 51 52 52 52 52 48 47 46 46 46 44 44 45 43 43 42 39 37 36 30 31 27 29 22 21 20 18
42 46 48 51 51 51 51 49 48 47 50 47 47 47 50 49 48 50 52 54 54 53 53 49 48 48 48 47 46 45 44 42 38 33 36 30 27 28 24 22 22 19 16
48 50 51 51 51 52 53 52 53 55 52 51 50 49 51 52 53 54 57 59 60 59 57 56 52 50 50 48 46 44 42 39 38 34 32 27 29 26 23 22 23 20 16
52 51 48 48 50 51 51 50 52 52 52 50 51 51 53 53 55 56 55 55 54 53 53 53 51 48 46 45 43 40 36 36 38 32 28 32 27 26 24 23 24 21 18
48 49 50 48 46 47 49 50 52 53 51 48 47 46 47 48 50 50 50 50 48 47 46 45 45 44 44 43 42 38 37 33 31 32 31 29 26 27 25 24 23 22 20
43 44 45 46 45 45 44 42 40 41 43 45 47 49 49 49 48 46 46 45 45 44 43 41 39 39 38 43 43 40 38 35 32 34 29 25 25 27 26 24 24 22 21
32 32 33 35 36 38 39 40 41 43 45 47 48 47 46 45 45 45 43 43 44 43 42 41 40 36 31 33 36 34 34 34 34 31 25 27 25 26 26 25 25 25 23
37 38 39 40 41 41 41 41 42 43 42 41 40 40 40 41 41 42 42 41 41 41 42 40 35 32 34 33 31 34 33 32 36 30 26 28 24 25 27 28 28 27 24
43 43 42 42 43 41 41 41 40 40 39 39 41 41 40 40 40 40 38 37 36 36 37 35 32 33 29 33 28 33 35 34 34 31 28 23 25 27 30 30 29 28 25
44 43 43 42 41 41 41 40 39 40 40 40 38 38 38 40 39 37 33 31 30 29 28 29 27 30 34 37 40 37 35 34 31 25 23 24 26 28 29 29 28 28 26
44 42 41 42 43 42 41 41 42 40 39 38 38 39 39 40 38 36 33 30 31 29 26 26 26 29 31 32 33 25 27 24 22 24 23 22 23 25 25 25 27 28 27
42 41 42 43 44 44 44 43 41 40 40 38 38 41 38 36 31 32 30 29 29 28 27 26 25 25 24 24 23 21 20 22 23 22 23 24 26 26 27 27 28 29 29

GFSMA_500_spd_093.txt.gz
Wind_Speed
26 25 23 21 21 22 21 21 20 20 20 20 20 20 20 21 22 23 24 24 24 24 25 24 25 27 28 29 29 31 36 35 36 38 37 34 31 29 29 29 29 29 29
27 27 24 25 24 25 25 23 23 23 23 23 23 23 23 24 26 27 27 27 26 27 27 27 28 29 30 31 30 34 39 38 39 39 38 36 33 30 30 30 30 30 28
30 28 28 27 26 27 28 27 27 27 27 27 26 27 26 28 29 30 30 30 29 30 31 31 32 32 32 33 34 37 37 40 42 39 39 36 34 31 30 31 31 30 28
30 31 31 28 28 30 32 32 32 31 30 31 31 30 30 31 31 32 31 32 32 33 35 35 36 35 36 36 38 41 40 40 39 41 41 36 33 31 29 30 31 30 28
35 37 35 33 34 36 36 36 36 36 33 33 33 34 34 34 33 33 33 33 34 34 37 38 38 36 36 39 40 42 43 43 45 41 40 35 32 30 30 31 31 29 28
39 40 37 36 36 38 39 39 39 38 39 37 36 37 36 36 36 35 35 37 37 36 37 38 38 38 39 42 43 43 45 50 47 40 38 35 32 30 30 30 30 28 27
41 43 41 41 40 39 42 42 41 42 42 41 38 39 37 38 39 38 38 38 39 38 39 39 41 43 44 44 47 47 50 49 50 38 36 35 32 31 30 31 29 28 26
36 32 37 42 43 42 45 46 46 45 47 45 41 40 38 39 40 39 39 39 39 38 38 41 45 47 49 51 52 52 52 46 42 38 36 35 33 32 31 31 28 28 26
37 38 38 38 37 31 31 30 38 45 49 48 44 41 40 40 39 40 37 38 39 40 42 45 49 49 51 54 56 52 44 41 40 37 35 35 34 34 32 32 31 26 26
39 40 37 37 35 36 39 37 38 42 40 36 43 45 45 41 39 37 38 39 43 46 49 50 52 54 54 53 46 44 40 39 37 35 36 35 35 35 33 33 31 28 26
30 36 39 35 32 34 31 33 39 45 40 35 39 40 39 39 38 39 42 44 47 48 50 52 51 47 44 45 42 40 38 37 35 34 36 37 37 36 34 33 30 29 28
32 31 32 33 34 29 31 26 30 36 37 36 32 39 41 44 43 46 47 48 45 44 44 41 41 42 43 44 42 39 38 37 36 37 37 37 37 36 34 31 30 29 26
26 28 30 33 34 36 39 36 33 34 37 42 43 41 41 40 43 46 45 43 42 43 43 45 44 45 45 44 44 42 41 40 39 39 39 38 38 34 32 30 27 28 25
29 33 34 31 41 41 34 38 41 43 46 43 46 47 47 46 43 43 45 46 44 47 47 47 47 47 48 47 46 45 42 41 43 41 40 39 37 34 31 31 26 26 23
27 33 37 38 40 41 44 45 48 49 55 53 50 49 44 45 46 48 47 47 48 49 48 49 51 50 50 51 49 47 47 47 46 45 41 37 33 34 30 29 23 23 21
33 35 38 40 44 44 45 48 50 52 51 52 50 47 48 49 50 50 51 50 50 53 55 56 56 56 56 56 55 52 50 49 48 41 37 34 33 33 30 22 23 22 21
39 40 42 45 45 46 49 51 53 54 53 52 50 48 47 47 50 49 51 51 53 54 55 54 52 52 51 50 49 47 47 45 43 45 35 31 31 30 25 24 24 22 22
43 46 44 45 46 47 49 52 50 48 47 47 48 49 50 53 52 47 46 48 49 51 52 51 49 48 47 46 44 44 41 39 41 40 31 32 32 27 27 24 25 23 23
48 49 50 50 51 52 50 48 48 47 47 47 46 46 44 42 43 46 49 49 49 48 47 46 45 44 42 41 38 38 37 37 39 34 34 35 30 32 27 22 23 24 23
53 51 46 43 44 45 43 41 40 38 37 37 39 41 43 45 47 47 46 45 45 44 43 42 42 41 39 39 39 36 33 32 34 35 36 32 29 26 21 23 22 24 23
46 42 39 36 34 34 34 35 36 38 39 41 42 43 44 44 42 41 41 41 40 40 41 39 38 38 35 34 32 30 31 30 30 29 29 29 27 22 23 23 22 24 24
41 39 38 38 37 38 40 40 40 40 41 42 40 40 42 42 41 40 38 37 39 39 39 35 34 34 35 34 29 27 28 32 30 31 31 31 28 23 24 25 24 24 26
44 43 44 41 41 41 42 42 42 40 39 40 40 40 40 39 38 37 36 38 39 36 34 30 29 28 28 29 27 27 31 33 32 34 28 27 28 28 28 25 26 26 28
46 46 46 45 44 44 44 42 42 42 40 40 40 40 40 39 37 37 37 38 36 32 30 29 28 28 27 24 24 24 25 30 34 30 30 33 29 24 24 24 24 26 29
47 47 47 47 45 43 43 42 43 43 42 41 41 40 39 38 37 37 36 33 30 29 29 29 28 26 26 26 24 24 25 23 22 22 22 20 23 23 21 21 22 24 25
43 44 44 44 43 42 42 42 43 42 41 41 40 40 39 39 37 37 35 33 31 30 27 25 24 23 24 24 22 21 17 19 18 17 20 23 23 22 23 22 22 24 26

GFSMA_500_spd_096.txt.gz
Wind_Speed
35 32 31 28 25 23 22 23 23 21 22 23 24 24 24 24 23 23 24 25 25 25 26 27 29 30 29 30 32 33 34 34 37 35 37 38 39 40 37 33 31 29 30
38 35 31 28 27 25 24 25 25 25 26 26 27 27 26 25 26 25 27 28 28 28 28 28 28 31 33 32 33 33 34 35 39 40 41 41 44 41 37 35 33 30 29
41 38 31 30 29 28 27 28 28 29 30 31 30 30 30 30 30 29 29 31 30 31 30 31 31 32 34 35 34 35 35 36 40 41 43 45 47 42 37 35 33 31 30
44 38 34 32 34 30 31 31 31 32 34 35 35 34 34 33 33 33 33 34 35 33 33 33 35 35 36 37 37 36 37 39 42 44 44 46 47 41 37 34 33 32 31
42 39 36 37 34 32 36 33 34 36 38 39 39 38 37 37 36 36 36 37 36 36 35 35 35 37 37 38 39 38 41 45 46 46 47 47 44 37 35 34 33 32 31
42 41 42 37 38 37 39 37 40 40 42 43 42 41 40 40 40 40 39 39 39 39 38 39 37 38 39 40 40 43 45 47 48 50 50 47 38 37 35 33 34 32 32
45 50 45 44 39 39 38 41 43 43 45 47 46 45 41 43 43 43 43 41 41 40 41 40 40 39 40 41 43 46 47 48 52 53 49 40 39 36 35 34 32 32 30
51 39 45 40 35 42 46 45 47 39 42 47 48 48 44 44 44 43 44 44 42 42 43 43 40 41 42 46 48 50 52 51 51 43 41 39 38 36 36 35 34 33 31
40 41 34 31 33 36 35 40 41 42 37 38 40 44 47 46 45 44 45 46 46 43 42 42 44 47 50 51 54 55 55 51 44 43 41 39 37 36 36 36 34 33 31
42 37 41 36 40 34 42 46 47 40 38 39 38 38 37 38 41 45 45 44 44 45 44 45 49 51 52 53 52 50 45 45 43 41 39 39 37 37 36 34 35 34 32
40 46 47 46 31 39 46 47 43 48 34 35 44 49 45 39 38 40 42 42 43 42 44 45 48 48 47 46 45 44 45 45 45 42 39 40 39 39 36 36 35 35 33
27 32 42 44 45 43 37 31 28 28 31 33 33 41 42 38 36 37 40 45 46 45 46 43 44 46 44 46 48 47 49 47 44 44 43 42 42 41 39 37 36 35 30
26 27 29 39 40 39 33 27 28 27 25 28 27 36 36 35 35 38 43 45 43 42 43 45 47 47 48 50 49 48 49 49 47 47 47 43 43 43 41 39 36 33 31
21 22 22 26 28 25 28 30 33 37 35 37 36 41 45 48 50 49 46 44 45 45 47 47 48 49 51 52 54 55 55 56 54 53 50 46 46 46 43 38 35 31 31
27 28 26 27 30 30 31 34 35 37 39 41 42 43 46 50 51 49 47 44 45 45 47 47 50 53 55 57 58 59 59 59 57 55 52 50 48 45 45 37 35 32 32
29 29 32 33 34 34 36 37 40 40 43 46 47 50 50 50 50 49 46 46 46 48 48 49 51 53 53 54 54 54 54 54 51 49 47 43 42 40 42 34 33 33 27
31 34 36 39 38 39 40 43 45 47 48 50 54 58 53 48 46 46 46 47 49 50 48 47 47 50 53 55 54 52 50 49 48 45 41 37 38 39 40 35 33 30 30
38 39 40 42 42 44 47 48 48 51 53 54 53 53 52 51 50 48 46 42 41 43 46 50 51 51 50 49 49 47 46 44 44 43 39 33 34 32 33 36 38 29 24
38 40 44 46 47 50 51 53 54 53 52 51 48 47 46 43 39 37 39 41 44 47 48 47 45 44 44 44 43 42 42 40 38 40 38 35 35 34 39 35 35 34 23
45 48 49 50 52 55 56 53 50 49 43 38 34 32 33 36 37 39 41 43 44 45 44 44 43 44 44 43 41 40 40 39 35 35 35 35 33 34 35 39 37 28 23
53 52 54 54 55 55 53 49 45 40 37 37 37 36 36 38 41 42 42 42 42 42 42 41 42 42 41 39 39 39 39 38 36 32 31 32 34 34 35 31 27 23 25
55 55 54 52 51 49 47 44 42 42 41 40 43 42 40 41 42 41 41 40 40 40 41 41 41 40 38 36 37 36 35 32 32 32 30 30 34 35 32 26 23 26 26
54 55 53 51 48 47 46 45 45 44 42 41 44 45 43 42 41 40 41 40 40 40 39 39 38 35 33 32 33 32 32 29 29 30 27 24 28 30 29 26 29 29 28
51 50 50 48 48 48 47 46 47 46 45 42 43 43 42 41 40 40 40 40 41 39 38 37 33 31 32 33 32 31 27 27 26 25 23 26 27 23 20 24 26 26 28
49 51 51 51 51 49 49 47 46 46 44 42 43 42 41 40 40 40 40 41 41 38 36 35 34 33 30 28 28 27 26 25 27 24 20 19 21 20 18 22 25 28 28
51 50 49 49 49 49 48 46 45 44 44 43 41 40 40 41 41 41 41 41 39 36 35 34 32 31 31 29 29 28 28 24 21 18 16 14 13 15 20 22 23 24 25

GFSMA_500_spd_099.txt.gz
Wind_Speed
34 34 34 32 31 29 27 27 25 24 24 23 24 24 24 25 25 26 27 26 26 26 28 29 29 30 30 30 32 32 33 34 33 33 35 36 38 38 40 41 39 34 32
36 37 36 35 34 32 29 28 27 26 26 25 26 26 26 26 27 28 28 28 29 29 30 30 30 32 33 33 35 35 35 35 35 36 37 40 40 40 42 43 40 35 32
38 39 38 37 36 33 31 29 28 30 29 29 29 29 28 28 29 31 31 32 32 33 33 33 35 36 37 35 37 38 37 38 38 38 40 43 45 45 48 48 40 36 33
42 42 41 39 37 35 31 31 34 36 32 32 32 32 32 32 33 35 35 35 35 35 36 37 37 38 39 39 40 39 41 41 41 42 43 45 48 49 49 44 39 38 34
43 43 43 40 40 37 34 39 41 35 36 35 34 35 35 35 37 38 39 39 39 38 40 39 40 38 40 42 42 40 43 43 42 44 46 48 49 50 45 40 37 36 35
46 46 46 45 40 40 39 41 41 36 39 39 38 38 37 39 40 41 41 41 41 41 42 43 42 41 44 43 44 43 44 43 45 48 51 53 51 46 40 40 38 35 34
49 52 45 45 40 41 44 48 42 40 40 41 41 43 42 43 43 44 43 42 42 42 42 43 44 43 45 43 46 44 45 48 51 52 53 52 51 44 43 39 38 35 33
48 51 45 47 42 48 51 52 47 39 40 43 38 42 41 42 41 42 43 44 43 43 43 44 45 45 44 42 44 47 48 51 52 52 50 47 45 43 40 40 37 33 32
50 50 46 44 46 49 41 37 36 37 37 38 37 39 39 40 36 34 38 42 44 45 45 45 45 45 47 48 47 47 47 47 49 48 48 45 45 45 41 39 37 35 33
45 45 45 47 50 48 40 35 40 42 45 49 44 43 41 40 37 37 38 39 42 39 41 43 44 44 43 46 48 48 49 51 49 51 52 47 47 45 42 40 40 37 34
48 43 43 42 39 40 42 38 35 38 42 45 47 41 42 42 43 43 47 45 37 38 39 42 45 46 47 46 47 49 51 51 50 51 49 47 47 46 43 43 42 40 38
41 33 34 39 41 45 52 48 41 42 45 36 28 27 29 35 33 37 38 36 35 31 34 40 43 46 46 48 48 50 50 51 52 52 50 50 50 49 46 45 44 41 40
37 40 42 30 35 36 44 53 39 38 39 28 20 21 24 26 30 30 33 35 37 42 43 45 45 46 47 48 50 51 53 53 54 55 56 54 55 55 51 49 45 44 42
22 23 17 19 23 19 21 30 39 33 22 23 23 26 31 33 38 42 43 44 48 48 48 50 47 50 49 49 49 52 54 54 56 55 55 55 54 51 48 47 46 45 44
23 21 19 23 21 26 21 21 23 24 26 28 30 32 33 35 38 42 45 47 50 50 48 47 47 49 49 51 51 52 52 51 54 56 57 54 52 48 47 44 42 41 40
30 27 25 23 27 27 30 29 29 30 31 33 35 37 36 40 41 45 49 50 48 47 46 46 46 48 47 45 45 50 54 56 55 53 51 49 48 44 44 41 36 36 38
37 33 34 34 34 35 34 34 37 36 37 37 39 42 40 44 48 53 53 50 48 47 45 43 38 39 42 47 51 52 53 50 47 45 45 43 41 39 37 39 36 37 39
39 40 40 38 37 38 38 41 41 40 41 43 45 46 48 51 52 54 53 50 47 41 36 37 39 43 46 48 50 48 45 46 45 44 41 42 42 38 36 39 37 35 34
43 43 42 42 40 41 41 42 44 45 46 49 51 51 51 52 51 46 39 34 35 38 41 41 43 45 46 45 44 45 46 46 45 43 43 41 40 40 37 37 36 37 36
43 44 45 45 43 43 43 46 48 49 51 51 54 53 52 48 41 37 37 37 40 41 43 43 42 41 41 43 45 45 45 44 42 43 42 40 37 36 35 33 36 34 34
46 47 47 48 49 49 50 52 52 52 53 54 53 48 43 41 42 41 41 39 39 41 43 44 43 43 43 43 44 44 43 40 36 36 35 35 32 31 33 32 32 30 33
54 53 54 54 55 55 54 54 52 52 52 52 51 47 44 44 46 45 44 42 41 42 43 43 42 41 42 42 42 41 37 35 33 33 33 31 31 31 28 24 29 34 33
60 59 59 59 57 56 56 54 51 51 48 48 47 48 47 45 46 47 43 42 41 41 40 39 41 42 40 40 39 37 36 35 34 33 30 29 29 27 22 21 19 23 28
60 59 56 55 55 53 53 53 51 50 49 48 46 46 46 46 45 44 43 41 39 39 39 38 40 40 39 40 37 36 35 32 30 30 30 30 28 28 26 19 13 15 18
60 58 58 55 53 53 53 53 52 52 50 49 47 45 46 44 44 43 42 40 37 38 40 40 40 40 39 39 36 34 33 32 30 31 30 29 25 23 21 20 17 15 16
55 53 53 53 52 52 52 52 52 50 50 50 46 46 46 44 41 43 40 38 38 39 40 40 41 40 38 37 35 33 32 31 30 30 27 25 21 19 15 12 12 14 17

GFSMA_500_spd_102.txt.gz
Wind_Speed
37 35 33 31 30 29 29 28 29 27 26 25 25 24 24 23 23 24 25 25 25 27 28 29 31 30 29 31 32 34 35 36 37 36 38 36 36 39 41 43 43 43 40
38 36 34 33 32 32 31 31 31 29 29 29 25 25 25 25 25 25 26 27 27 28 29 30 33 34 34 35 35 36 37 39 40 39 39 40 39 39 42 45 46 47 44
40 38 36 35 35 35 34 33 33 31 31 28 25 32 27 26 26 28 29 28 30 29 31 32 34 36 37 37 38 38 38 39 39 39 39 40 39 42 46 48 47 46 39
41 40 39 39 39 38 36 35 34 32 32 28 31 34 30 29 29 30 31 31 31 33 34 35 36 38 41 41 40 41 41 41 41 41 42 42 41 44 48 49 47 47 41
43 42 41 42 40 40 40 37 35 37 36 35 38 37 33 34 32 34 34 35 34 35 36 38 39 41 42 43 42 43 43 41 42 42 41 45 48 46 46 47 48 44 39
46 45 45 45 43 43 41 38 36 38 40 44 36 37 36 37 38 36 37 38 37 37 39 40 41 42 44 43 44 44 44 44 43 41 43 43 43 44 47 48 46 41 37
52 51 48 48 45 44 41 45 35 41 41 42 41 40 40 39 40 43 43 42 41 41 40 42 43 43 43 44 44 43 43 42 46 46 45 43 47 47 48 47 40 38 36
53 53 49 48 46 43 46 40 39 43 49 49 45 47 42 40 39 37 40 39 38 39 41 44 46 45 44 44 43 41 41 39 40 43 44 46 47 48 48 46 41 39 37
55 54 54 52 55 51 41 40 48 45 50 50 36 42 42 41 37 37 39 40 38 32 33 37 41 42 39 38 37 38 41 42 44 46 47 47 47 48 48 46 44 42 40
55 62 46 57 51 39 43 44 43 47 53 39 39 33 35 38 42 41 38 40 40 39 44 44 42 37 33 35 36 39 42 45 48 49 49 48 48 50 49 48 45 44 42
51 49 43 47 45 46 44 42 47 46 43 44 37 45 47 45 47 50 45 42 43 41 46 44 39 34 34 37 40 43 45 46 48 49 51 52 50 51 52 52 50 48 45
34 33 35 33 39 42 30 34 31 36 44 48 43 45 41 36 39 38 31 32 35 32 29 32 35 38 39 42 45 46 48 49 50 51 53 54 55 54 54 54 52 48 47
46 48 51 55 38 32 38 30 37 41 42 42 41 44 45 23 15 16 20 25 28 31 34 38 43 46 47 49 51 51 51 51 50 52 54 53 54 53 54 53 53 48 43
25 40 40 31 21 30 24 24 34 35 40 41 47 37 19 16 17 19 22 26 29 34 37 39 45 48 48 49 48 48 48 51 50 50 50 51 55 55 53 51 50 46 42
14 19 21 17 18 21 23 24 25 23 26 22 20 22 17 19 23 26 28 31 33 37 41 43 45 43 42 44 46 47 47 45 43 48 52 52 51 48 47 43 42 41 37
22 23 25 24 25 23 27 30 27 23 25 22 21 24 25 25 28 31 34 36 38 40 46 47 46 44 43 42 39 37 40 44 46 50 52 51 48 47 41 38 37 38 35
32 33 33 33 34 33 32 30 32 33 33 31 31 30 31 32 34 36 37 39 42 46 49 48 44 39 33 34 37 39 41 45 49 51 49 47 45 43 40 39 37 36 36
32 34 34 37 39 40 38 39 40 40 39 40 38 37 36 36 36 40 40 41 45 45 44 39 32 32 35 38 39 41 45 48 48 46 46 45 43 40 39 38 37 35 33
38 39 41 41 43 45 45 44 43 44 45 45 40 40 42 41 41 42 43 42 45 44 38 35 35 38 40 40 41 43 45 45 45 46 45 43 40 36 37 36 34 31 31
36 38 39 40 41 44 45 45 45 45 46 46 45 44 46 45 45 46 46 45 45 41 38 39 40 40 41 41 43 43 44 44 44 44 42 39 35 33 35 32 29 29 28
43 44 45 47 47 47 48 48 48 48 49 50 50 49 49 48 47 48 47 44 41 38 40 41 42 41 41 43 43 41 41 41 43 39 38 36 34 33 31 28 27 26 24
53 53 54 54 54 54 54 54 54 54 54 54 51 51 49 48 48 45 44 43 43 41 40 41 40 41 42 43 39 39 39 39 39 37 36 37 33 31 28 26 26 26 21
58 58 59 60 59 59 58 58 57 55 54 52 51 49 47 46 46 45 45 46 45 42 41 39 39 39 40 39 38 38 37 38 38 36 34 33 29 29 27 26 23 23 22
56 61 62 61 61 61 59 58 57 55 53 51 50 50 48 48 46 47 47 45 44 41 40 39 38 38 37 38 38 36 37 37 37 34 33 31 29 28 27 26 24 22 20
58 52 53 59 62 59 58 57 56 53 52 52 52 50 49 49 49 47 46 46 43 40 41 39 37 37 37 38 38 38 38 38 36 33 31 29 29 28 25 23 21 18 19
58 52 50 51 55 58 60 58 55 56 52 51 51 52 52 51 50 48 48 46 44 41 39 37 38 37 36 38 37 37 37 36 34 32 30 28 27 26 22 21 17 13 13

GFSMA_500_spd_105.txt.gz
Wind_Speed
39 36 34 31 29 28 28 28 28 28 27 27 26 26 25 23 23 24 23 24 25 26 27 28 28 27 28 30 31 32 34 35 37 38 38 37 37 37 37 35 39 40 41
42 39 35 34 32 31 31 31 30 30 30 30 29 28 26 21 24 26 25 25 26 27 29 29 30 31 32 33 33 35 36 37 38 39 41 40 40 37 36 38 42 42 41
42 41 39 38 36 34 34 34 33 32 33 32 31 31 28 24 26 30 27 27 27 28 30 32 33 35 36 37 37 37 38 39 39 40 40 40 41 39 36 41 42 40 39
45 45 42 41 39 37 37 36 35 35 35 35 34 33 30 28 27 34 28 29 28 31 32 34 36 37 39 40 39 41 40 41 41 41 42 43 43 38 40 39 42 44 43
47 46 44 43 41 39 39 38 38 38 38 36 35 31 35 32 37 35 34 33 31 34 34 36 39 40 41 42 43 42 43 43 43 42 42 41 41 42 37 40 43 44 44
50 49 47 45 43 43 41 41 41 41 41 38 37 34 37 43 42 38 35 34 37 38 41 42 42 42 45 44 43 43 44 45 45 42 40 39 36 38 42 44 46 45 44
57 54 51 49 47 47 45 44 44 42 41 40 42 37 40 42 38 41 39 39 40 43 44 41 41 43 44 44 43 42 42 42 38 38 36 37 38 42 46 48 46 45 42
60 57 55 53 52 50 50 48 44 42 40 47 51 39 43 44 43 42 48 45 40 37 37 38 38 35 32 34 36 38 37 38 37 36 36 40 42 43 47 47 47 44 41
58 60 59 56 55 52 52 51 50 52 47 53 49 47 48 46 45 39 45 44 42 40 41 40 39 36 38 41 41 38 37 36 36 39 41 42 45 48 51 49 48 47 45
48 51 55 59 59 56 55 45 51 42 42 43 39 46 48 43 38 43 38 40 38 39 40 44 45 44 47 47 44 38 36 37 41 43 45 48 49 49 51 49 49 49 48
50 53 45 43 47 39 28 34 36 36 38 39 41 38 40 38 40 37 42 46 49 47 48 47 44 43 43 44 35 34 35 40 42 45 47 47 48 47 49 51 50 47 48
34 28 36 33 34 38 42 45 29 33 39 34 38 36 38 42 42 44 46 42 38 42 28 22 26 28 30 31 36 38 41 43 46 47 50 49 50 50 48 47 49 51 50
40 31 37 37 40 44 44 41 46 44 42 37 37 40 39 38 40 43 43 35 25 16 17 21 25 29 30 33 37 42 46 47 48 50 51 48 48 47 48 51 52 49 46
32 34 40 46 47 40 43 50 50 26 32 38 40 52 39 38 39 38 30 22 17 16 18 23 30 33 36 39 40 43 45 45 45 45 45 43 45 47 50 51 49 44 41
16 19 12 13 18 27 28 29 18 23 22 21 33 28 23 31 31 15 12 16 19 23 26 28 33 38 41 42 44 46 46 43 40 38 42 42 45 49 49 47 45 42 39
19 22 19 17 21 23 24 25 24 26 27 29 28 23 24 21 18 17 21 24 27 28 30 33 38 41 43 41 42 40 35 33 37 39 42 45 48 49 47 45 43 40 37
20 21 22 24 28 31 32 35 33 33 31 31 33 34 29 27 28 28 30 32 32 32 35 38 38 39 41 42 39 34 34 36 40 41 45 48 49 46 44 44 42 38 36
25 29 31 32 34 34 34 36 36 37 38 39 39 42 42 35 36 37 39 38 36 38 39 40 40 41 41 41 38 37 37 38 38 41 44 45 43 43 44 41 38 36 34
28 31 33 37 39 40 40 41 42 42 44 46 47 47 48 42 46 45 42 44 45 44 43 42 42 43 41 39 39 38 38 39 39 41 42 41 41 42 40 37 34 34 31
31 33 35 36 38 41 42 43 43 44 45 46 48 49 49 49 51 52 50 49 47 47 44 40 40 42 42 39 40 41 41 39 38 39 38 37 40 39 38 35 34 29 28
40 41 43 44 46 47 48 49 50 50 51 51 50 49 50 51 53 52 51 51 48 47 44 42 41 42 43 42 40 41 39 38 37 36 37 37 38 37 37 33 30 26 25
48 51 55 57 58 56 55 56 56 56 56 56 57 55 53 53 53 54 52 52 49 47 44 42 43 43 43 42 38 38 37 38 36 36 36 38 37 36 34 30 27 26 25
46 47 49 47 48 52 57 59 59 59 60 59 59 59 58 56 55 53 52 51 48 47 46 44 44 42 41 39 39 37 37 37 36 36 36 38 38 34 31 28 26 26 24
52 54 58 60 59 57 56 56 56 58 60 60 58 58 59 59 58 55 53 51 48 48 47 46 43 41 41 40 39 37 35 35 36 37 37 38 37 32 30 27 25 23 21
59 63 66 69 67 68 63 58 58 57 56 57 58 58 58 58 58 56 54 52 50 48 46 46 44 42 42 41 39 37 35 37 36 36 36 35 34 30 29 27 23 21 20
62 65 69 70 74 72 71 63 60 62 60 60 57 56 57 59 57 54 53 52 50 50 47 47 46 44 40 41 38 37 35 37 35 35 33 31 30 29 28 26 22 20 18

GFSMA_500_spd_108.txt.gz
Wind_Speed
45 41 37 35 35 32 31 31 30 28 27 27 26 26 26 26 27 25 24 24 25 27 27 28 27 28 30 30 31 33 35 36 37 38 39 39 38 39 40 40 41 39 39
48 44 36 39 37 35 35 35 32 30 30 30 28 28 28 29 28 27 25 23 27 29 27 29 29 30 31 32 34 35 37 39 41 40 40 40 41 41 42 42 40 38 38
52 47 49 43 42 39 38 37 34 33 33 32 31 30 30 30 30 30 28 27 30 32 30 31 32 33 35 35 36 38 38 40 41 41 42 43 44 43 41 38 39 35 37
55 51 51 43 43 41 41 38 37 36 35 34 34 33 32 33 33 31 31 28 32 35 33 34 35 36 37 39 40 40 41 42 43 42 43 43 43 44 39 35 33 37 40
63 53 54 44 46 43 42 40 39 38 37 37 37 36 35 35 34 33 35 34 36 41 40 40 39 39 41 44 45 44 45 45 43 42 42 40 38 36 37 36 35 39 42
51 54 53 46 48 45 43 41 41 41 41 40 40 39 38 38 36 35 38 45 49 44 43 45 44 43 45 48 43 42 40 37 35 36 38 39 37 37 35 37 39 42 45
67 67 67 52 48 46 46 46 44 44 44 45 43 43 43 41 43 44 44 47 43 42 44 45 45 44 45 41 40 39 34 35 38 40 39 38 37 36 39 42 45 47 48
72 63 58 56 50 50 49 48 48 49 49 49 48 48 47 48 46 51 53 49 48 47 46 52 48 44 39 39 39 41 41 43 43 44 40 38 37 42 43 44 47 49 48
74 64 57 58 56 55 55 53 53 53 55 55 51 50 50 51 56 55 52 48 50 51 45 44 47 46 44 39 42 44 46 47 46 42 40 40 42 44 45 47 46 48 48
69 68 63 62 63 59 51 52 59 57 54 57 57 61 51 36 41 46 48 50 47 44 44 40 43 44 45 46 48 46 45 39 33 35 37 40 43 45 46 48 47 47 45
33 35 56 63 59 57 59 59 49 48 40 39 34 32 33 38 41 42 42 41 46 42 39 41 44 49 51 48 38 33 35 34 35 36 39 42 44 45 45 46 47 45 46
35 32 31 39 44 40 39 41 44 40 40 37 33 35 50 53 46 53 50 46 45 43 43 45 40 35 35 30 26 28 30 33 36 38 40 42 45 46 46 45 45 47 47
34 34 31 31 28 26 30 33 43 37 42 44 49 45 44 47 48 49 42 43 43 44 40 34 27 27 24 22 25 31 34 37 38 43 44 45 45 44 44 45 47 49 52
24 32 33 34 35 38 34 38 41 46 46 46 44 52 49 52 52 49 49 46 44 42 33 29 26 24 27 27 28 33 36 36 40 43 46 45 42 40 42 43 47 48 50
30 31 35 37 38 36 38 40 34 39 43 38 41 38 33 46 51 49 38 37 40 38 37 27 27 27 25 27 31 32 34 36 39 42 42 41 39 41 43 47 48 47 48
20 22 27 26 22 19 21 25 26 26 25 26 28 31 27 29 33 33 29 25 21 21 24 28 30 32 34 36 39 39 39 39 42 42 38 39 39 42 44 46 48 46 41
7 13 17 23 23 20 24 28 31 30 35 35 35 35 33 33 32 34 32 30 29 31 32 33 35 36 37 39 40 41 42 42 42 40 40 40 40 43 44 46 45 42 40
18 21 23 27 30 30 31 33 36 39 40 42 41 40 42 37 43 44 44 40 41 42 45 45 44 42 45 44 44 44 45 44 40 39 39 40 41 41 44 42 39 38 36
24 27 29 31 34 37 39 42 44 45 46 46 47 43 45 43 51 48 51 56 51 50 49 49 49 50 49 49 48 48 44 42 42 42 40 39 40 41 40 37 37 36 34
28 30 32 35 37 39 41 44 45 46 47 48 48 49 51 52 55 54 56 54 54 57 57 56 57 56 55 52 49 47 45 44 40 40 38 38 39 40 37 37 36 36 32
30 35 39 42 45 49 51 53 54 54 54 55 55 54 53 55 55 47 56 56 56 56 63 62 59 57 55 53 51 47 46 45 41 40 39 39 39 38 36 36 36 34 30
33 37 40 43 45 47 50 52 53 54 54 56 60 63 63 61 59 58 62 59 52 63 59 59 57 58 56 54 51 50 46 45 41 41 41 41 38 37 37 35 36 33 29
41 43 47 52 55 58 60 61 62 62 61 62 62 60 61 62 62 62 63 62 62 64 61 54 52 57 56 54 51 49 46 44 42 42 41 39 39 39 38 36 35 30 26
45 48 52 55 60 64 64 65 68 69 69 66 64 63 64 64 65 65 64 63 62 62 64 66 60 60 56 53 49 47 45 44 44 42 39 39 40 39 36 34 34 28 24
49 54 57 60 69 68 68 69 69 73 76 76 73 68 69 69 68 66 64 64 63 61 61 61 58 55 54 51 47 45 45 45 43 42 39 38 38 36 35 32 31 27 23
59 62 68 73 75 76 76 78 85 84 78 75 69 70 70 71 70 68 66 63 62 60 60 58 56 54 51 49 49 46 45 43 42 41 39 37 36 34 32 29 28 25 22

GFSMA_500_spd_111.txt.gz
Wind_Speed
48 48 44 40 39 38 37 34 35 34 30 28 27 26 26 26 26 27 27 27 28 28 27 27 28 31 30 30 32 33 35 36 37 38 40 41 42 42 40 42 41 41 39
54 52 48 43 43 43 39 39 38 36 33 31 29 29 28 28 29 29 28 29 30 30 29 29 29 33 33 33 35 36 36 38 38 40 42 42 43 42 41 40 41 38 37
59 55 51 47 46 48 43 44 41 39 37 35 33 32 31 30 31 31 31 31 32 33 31 31 33 37 39 41 40 40 40 40 42 43 44 43 43 41 40 38 34 35 35
52 58 56 50 51 48 45 45 46 43 40 38 36 35 34 33 33 34 33 33 33 35 36 36 41 44 41 45 45 45 43 44 46 45 43 43 40 36 37 39 36 34 34
49 53 59 59 56 55 49 52 52 48 43 41 39 37 36 36 37 36 36 36 36 37 40 44 47 49 49 50 49 48 46 48 47 43 39 35 35 38 40 40 38 36 38
55 52 58 66 64 48 50 57 49 49 44 43 41 40 40 40 40 39 39 40 40 42 46 49 51 53 54 50 51 47 45 45 41 41 38 40 41 42 43 39 37 38 41
61 63 57 56 58 62 51 57 54 47 43 46 45 45 44 46 43 43 43 45 47 49 52 52 54 54 52 53 53 50 44 40 40 39 44 45 47 44 42 40 38 40 43
53 67 46 55 68 62 71 64 49 49 47 48 50 49 48 50 46 47 46 50 52 51 54 57 60 57 56 55 57 54 47 43 40 44 46 46 46 42 40 39 43 44 46
56 61 48 53 55 62 55 56 53 50 50 55 54 52 50 52 51 51 53 56 54 60 61 61 60 57 55 53 52 51 46 44 46 49 48 43 39 37 41 42 44 44 43
56 55 50 51 72 68 65 65 66 65 57 60 58 61 56 57 56 57 54 45 45 43 46 45 49 52 47 47 46 44 43 47 49 44 36 34 35 39 38 41 43 45 44
64 62 59 55 67 63 65 67 60 58 64 62 60 58 54 40 35 35 35 39 42 47 48 47 48 45 47 46 45 45 43 40 35 32 33 33 35 38 39 42 44 43 43
47 51 61 43 56 72 81 48 41 45 37 39 43 43 41 38 40 45 48 51 47 48 52 52 50 48 50 50 50 46 40 30 31 33 34 34 37 39 43 43 45 43 42
36 46 38 32 30 27 30 33 41 37 36 36 38 38 40 42 47 48 51 49 54 55 56 51 50 47 47 42 38 35 30 31 31 33 33 34 39 41 40 41 41 41 41
39 43 35 32 36 37 39 38 30 31 33 35 35 41 44 48 49 53 52 52 56 54 56 58 53 52 51 40 36 33 35 32 33 33 34 36 39 41 44 43 42 43 44
22 27 29 29 32 31 31 31 37 40 44 42 42 40 47 46 44 46 46 45 48 56 53 56 60 54 44 41 39 39 36 34 34 38 40 41 41 46 44 41 42 44 45
24 26 26 27 34 32 34 38 39 40 39 38 36 34 35 38 43 40 40 40 39 43 39 46 52 51 48 49 42 37 39 43 42 43 42 44 43 44 45 42 41 42 43
16 18 21 22 26 31 33 23 22 29 28 34 33 38 36 37 39 45 44 42 44 45 43 43 42 41 40 42 47 49 48 45 45 46 46 46 45 43 43 40 40 40 42
6 9 8 12 17 21 28 30 32 33 37 40 43 43 45 45 45 42 46 50 51 51 47 48 50 46 43 46 49 53 55 55 53 52 48 47 45 44 40 41 39 38 40
12 15 21 25 29 32 36 39 41 44 46 48 51 51 50 51 50 49 49 49 54 59 51 51 61 52 53 57 57 58 60 58 55 55 51 46 44 45 43 40 38 38 39
16 19 22 24 28 33 36 41 44 47 49 51 53 55 56 55 54 54 55 60 53 46 61 55 58 66 62 61 68 63 60 60 59 57 53 45 47 47 46 41 39 38 38
16 20 24 27 31 34 38 41 44 47 49 51 52 55 57 58 60 63 64 62 65 67 68 55 54 62 54 58 55 62 64 61 54 57 50 49 47 45 44 43 40 40 37
20 24 28 31 36 40 44 46 49 51 55 59 61 63 63 64 64 64 65 66 67 68 69 67 69 54 53 61 51 49 56 52 49 50 51 48 47 45 43 43 42 41 38
28 30 33 37 42 45 49 53 57 59 63 69 71 69 68 68 69 69 68 70 71 71 69 70 72 72 64 60 50 51 47 46 49 47 46 42 44 45 43 43 42 40 37
30 36 39 43 48 54 59 62 65 70 76 75 75 75 75 76 75 73 74 73 74 76 73 72 73 70 70 67 67 66 62 62 56 47 44 43 43 42 42 43 40 37 36
39 45 50 52 56 63 67 72 76 80 81 80 81 82 82 82 84 81 81 80 78 78 78 74 72 70 71 67 66 62 60 56 50 48 43 40 42 43 42 41 39 34 34
44 50 57 61 67 72 78 84 88 92 91 90 87 87 88 86 82 75 69 71 77 74 73 67 70 60 65 62 58 55 53 52 50 49 47 42 42 40 38 37 35 33 32

GFSMA_500_spd_114.txt.gz
Wind_Speed
40 46 46 45 44 40 39 37 33 33 34 33 32 31 30 29 28 27 27 28 29 29 29 29 29 29 28 28 29 33 37 38 40 40 41 40 40 43 45 44 42 39 34
36 45 46 48 47 44 42 41 38 36 37 36 36 34 33 32 31 30 29 30 31 31 31 31 33 32 33 32 33 37 39 40 42 43 42 43 44 44 43 43 36 35 36
33 37 46 50 49 49 48 47 43 39 41 39 38 37 36 35 35 34 33 33 33 34 33 34 36 37 39 40 38 40 43 46 45 45 45 45 47 42 38 34 35 35 37
41 36 40 48 53 53 54 52 47 44 44 43 42 41 39 38 38 38 37 37 36 36 36 37 40 39 43 45 46 49 47 50 52 48 46 45 44 38 34 35 37 38 38
42 40 39 45 51 52 58 54 51 48 47 48 47 44 43 42 41 40 40 39 38 39 39 41 44 45 47 49 48 51 51 54 51 47 46 42 40 38 39 41 41 40 39
44 43 38 43 41 48 60 56 52 50 52 51 50 48 47 45 44 44 41 40 42 44 43 45 47 49 50 53 54 56 57 55 50 49 47 43 40 39 41 43 43 42 36
49 43 42 39 44 55 57 59 61 62 57 50 51 49 49 48 47 45 43 43 43 45 46 49 50 51 52 54 58 59 63 60 57 54 52 48 42 43 45 43 39 35 35
48 48 46 49 53 51 61 61 56 55 52 53 53 56 56 50 46 47 45 46 47 47 52 55 55 57 57 58 61 66 65 58 55 51 48 43 45 46 47 38 33 33 37
51 51 48 52 55 51 51 58 59 56 67 69 58 57 51 50 49 51 50 49 50 51 57 58 56 61 64 59 51 49 52 50 47 40 41 44 44 45 38 36 34 35 37
51 50 48 50 51 53 60 67 64 67 60 62 64 69 59 58 53 54 56 58 63 62 61 60 47 44 47 48 48 51 51 48 45 43 44 42 39 37 36 34 37 38 39
47 46 47 46 49 43 38 45 45 54 58 57 61 62 69 63 61 60 52 53 45 39 41 41 44 48 48 50 51 54 51 49 49 52 46 40 33 36 36 38 38 38 39
37 28 37 47 51 57 50 40 46 48 55 59 65 59 46 37 40 40 39 37 39 43 46 49 51 51 50 52 56 55 52 49 45 44 38 35 35 35 38 38 37 38 39
23 21 27 27 38 51 40 41 45 48 51 44 33 33 38 38 39 36 39 39 44 49 52 52 53 53 56 57 56 59 58 52 48 42 39 37 37 37 36 36 37 38 42
30 29 27 30 31 32 30 34 34 31 28 28 32 34 35 37 37 38 43 44 48 52 53 54 51 50 49 54 51 56 54 52 49 44 42 39 38 38 36 39 41 41 41
30 31 35 36 34 31 29 34 32 30 30 31 36 40 45 45 43 44 49 49 53 52 53 52 52 47 47 46 52 56 60 57 48 45 42 42 40 42 41 43 42 42 43
26 23 17 20 25 23 25 30 32 33 31 35 35 39 42 42 47 43 39 41 47 50 51 47 48 45 46 47 55 60 60 57 54 54 46 43 45 46 41 45 46 43 41
24 18 16 20 20 19 24 30 29 33 30 27 32 35 36 37 38 42 44 43 42 44 49 51 52 46 51 50 48 52 53 53 56 55 47 51 50 49 52 50 47 45 40
12 13 7 2 4 8 11 17 18 27 30 35 38 41 43 46 48 50 50 52 53 54 57 47 55 48 49 49 56 56 56 52 52 55 53 53 56 57 54 49 45 41 40
2 5 7 8 12 15 18 22 26 29 33 35 38 41 44 47 49 51 54 55 57 60 64 65 64 63 54 60 60 55 55 60 58 56 60 60 60 56 51 49 52 46 50
3 4 5 7 9 12 17 21 24 28 32 36 39 42 46 49 53 56 58 59 59 60 61 64 66 65 67 67 57 59 54 57 57 63 59 62 63 57 55 46 42 45 45
4 7 8 11 15 18 21 26 30 34 38 42 45 49 52 56 58 60 64 65 66 67 68 68 67 66 68 73 68 68 70 55 49 54 49 48 46 45 50 47 50 48 38
10 12 16 19 21 25 29 33 38 42 46 50 53 57 61 65 69 72 73 73 72 71 71 73 72 72 72 71 69 69 63 63 53 52 52 48 41 36 37 41 41 36 36
13 18 21 25 30 33 37 42 46 50 55 60 63 67 70 74 79 81 82 83 82 81 78 77 77 76 75 75 76 71 65 69 56 52 48 44 41 45 37 36 37 39 39
22 26 28 31 36 39 43 47 50 55 61 66 70 74 78 83 88 90 93 97 90 88 85 85 84 82 82 79 76 76 71 70 67 60 62 63 56 50 41 39 38 37 36
26 30 34 38 42 46 51 55 58 62 67 72 76 82 88 91 97 99 97 91 89 91 89 85 81 77 78 76 58 70 53 48 51 49 50 50 48 40 35 36 35 36 41
33 36 40 43 48 52 56 61 66 69 73 79 85 92 98 103 99 85 73 72 71 69 71 72 70 66 56 68 69 70 69 65 61 58 52 46 42 39 37 37 40 39 35

GFSMA_500_spd_117.txt.gz
Wind_Speed
29 31 36 41 43 42 40 39 38 36 34 31 30 32 32 31 30 30 31 31 31 32 31 31 32 32 32 33 34 34 34 34 37 37 39 43 45 46 44 43 43 36 29
31 32 33 37 38 43 44 43 41 41 38 35 34 35 34 34 34 33 32 33 34 34 33 34 34 34 35 35 36 38 39 39 39 41 43 44 49 48 46 44 39 34 33
35 33 32 33 37 40 45 44 46 44 42 40 37 37 36 37 37 36 36 36 36 36 35 36 37 37 36 39 39 41 41 44 46 47 47 47 49 48 45 42 37 32 34
39 39 36 36 35 37 41 47 47 48 47 46 44 40 41 39 39 39 39 40 39 39 39 39 39 39 40 41 42 43 44 47 49 50 50 51 52 48 45 42 38 34 36
45 42 41 40 41 39 42 42 46 47 55 54 48 47 43 42 41 42 43 42 42 42 42 42 42 42 41 44 47 46 47 50 50 52 54 56 59 54 49 45 43 38 39
50 47 45 44 45 43 43 44 48 49 46 41 51 51 45 45 47 45 43 45 46 46 45 43 43 43 45 47 48 47 51 53 54 56 58 63 59 53 48 48 42 40 41
52 50 49 48 46 46 44 44 42 44 47 49 56 54 54 50 47 49 50 48 49 49 47 45 45 44 49 51 50 51 56 57 56 57 44 47 45 42 41 41 41 41 41
52 50 48 48 48 47 49 45 43 46 51 55 53 55 56 56 53 51 51 51 52 50 47 48 47 50 55 54 54 57 58 58 50 41 44 45 43 42 38 37 40 40 35
52 49 51 52 51 51 53 50 47 48 49 53 59 56 60 60 58 54 52 56 55 54 51 56 59 56 56 59 61 57 49 44 44 45 45 44 45 43 42 39 37 34 33
53 53 53 54 56 55 53 54 54 56 59 51 51 51 51 52 59 62 61 56 53 63 62 61 57 56 54 45 44 40 43 45 46 48 47 46 45 44 42 37 34 34 34
51 51 54 56 55 53 55 53 53 53 58 54 55 55 58 55 66 62 64 65 60 44 45 44 44 37 36 42 44 47 47 49 49 50 51 47 46 42 40 37 35 34 35
47 49 50 48 48 50 50 52 50 48 41 38 41 38 38 45 48 30 30 31 34 38 39 42 38 38 42 47 50 49 53 54 53 51 47 47 46 47 40 40 37 33 31
46 45 43 44 42 38 40 44 46 47 39 35 33 36 37 38 29 25 30 35 42 42 39 38 41 47 47 50 53 53 51 50 48 52 50 48 45 48 43 42 37 34 35
42 40 39 28 26 24 27 27 33 48 33 32 34 34 31 29 31 33 38 42 45 43 42 43 49 52 55 54 47 46 47 45 48 50 51 53 53 53 50 44 39 36 41
33 32 31 29 29 29 32 37 30 27 33 35 33 27 26 28 34 38 43 46 47 47 48 44 43 44 47 47 51 43 42 46 44 48 50 55 58 51 46 47 45 43 42
26 28 28 29 33 36 38 35 37 34 31 28 30 32 26 26 25 34 36 35 39 41 41 43 46 46 47 49 50 50 45 48 51 54 53 53 51 50 51 52 48 45 46
28 24 26 20 20 16 22 33 28 22 21 22 18 19 23 28 32 36 39 41 44 46 49 50 50 52 51 53 55 53 59 55 52 55 52 54 51 54 54 53 53 53 43
12 24 19 13 10 8 8 4 6 10 11 12 19 24 29 30 31 34 37 39 42 45 48 49 51 53 54 59 61 59 58 60 62 58 56 66 63 58 54 54 55 50 51
14 16 14 3 4 5 7 8 11 14 17 18 21 26 30 32 36 39 42 45 47 50 52 55 55 56 58 60 61 62 65 64 64 65 63 61 53 48 59 60 58 60 60
6 5 3 4 5 4 7 10 12 16 19 23 27 32 35 39 43 47 50 53 55 57 61 64 65 67 67 67 66 65 68 66 70 66 64 62 53 52 47 43 42 42 33
6 5 5 5 6 8 13 15 18 22 26 30 34 38 42 46 50 53 57 60 63 67 70 72 74 75 74 75 76 74 73 71 73 69 66 50 49 54 52 42 43 34 19
6 5 7 9 11 15 18 20 25 30 33 37 41 46 49 53 57 61 64 67 70 74 78 81 83 85 86 87 86 83 77 79 76 73 64 48 53 52 45 42 33 28 24
7 9 13 16 20 22 24 28 32 35 40 44 49 52 56 61 65 68 71 75 78 82 87 92 96 94 88 87 88 87 83 52 77 75 71 66 62 44 41 44 39 35 31
13 16 19 22 25 29 33 36 38 42 47 52 56 60 63 67 72 74 77 80 85 91 96 101 101 94 85 87 89 84 76 78 69 63 50 46 55 59 53 52 53 39 27
19 22 26 29 33 35 39 42 46 50 53 56 60 65 68 72 76 78 82 86 91 97 103 106 99 84 77 81 69 70 65 63 62 45 50 48 42 50 46 41 40 38 31
27 30 32 36 39 42 46 50 51 54 58 63 65 69 73 76 78 81 85 91 96 102 108 102 81 68 72 75 69 61 51 49 40 44 44 35 47 43 40 32 31 31 33

GFSMA_500_spd_120.txt.gz
Wind_Speed
33 35 32 33 35 38 40 40 39 38 38 38 35 33 34 34 33 31 31 32 33 33 33 32 33 34 34 34 34 34 34 35 33 36 39 40 41 43 45 45 45 45 41
35 35 34 36 36 37 39 41 42 41 41 40 40 38 38 38 37 36 34 34 35 35 35 35 35 36 37 37 37 36 36 38 37 37 40 42 43 43 46 49 49 48 43
40 35 32 35 37 34 37 39 40 43 42 42 43 42 43 42 41 40 38 37 37 37 38 38 39 40 40 41 40 40 38 40 39 40 42 45 47 47 48 53 58 52 43
42 41 40 37 37 34 34 38 41 41 42 43 44 45 45 44 45 44 42 41 40 40 39 41 41 42 44 44 43 43 41 42 40 40 43 47 48 50 52 54 46 42 39
47 46 44 44 40 40 40 41 42 39 37 41 46 41 45 49 50 50 47 46 45 44 43 44 44 45 46 46 45 44 43 44 43 42 46 49 49 51 49 44 42 34 34
52 50 47 47 48 45 45 44 45 45 42 46 43 45 49 53 49 56 50 52 50 51 48 46 46 47 49 49 49 47 47 48 47 47 48 51 52 48 40 42 40 36 32
59 57 55 54 52 49 48 47 47 45 46 44 47 48 49 51 49 52 53 56 53 52 49 48 51 51 51 53 51 51 50 54 56 54 54 50 41 39 42 40 40 36 34
63 60 60 56 55 53 51 51 50 49 49 49 48 45 47 48 47 48 60 57 58 56 56 56 56 52 55 57 54 54 57 59 60 57 47 36 39 40 43 42 42 40 37
65 62 59 57 56 52 53 53 51 51 52 53 49 50 49 48 51 52 56 59 64 59 60 61 55 55 56 53 60 63 60 51 44 40 37 38 40 41 45 49 45 42 37
61 60 58 57 55 53 53 53 55 56 54 54 54 51 52 56 55 52 50 49 56 63 64 65 56 45 44 48 49 48 49 41 39 40 41 44 45 45 48 47 41 41 38
60 59 57 56 54 54 54 56 60 57 57 57 55 53 55 58 60 57 43 41 44 42 47 40 26 33 39 38 39 38 38 40 44 46 47 50 50 47 45 45 39 39 38
58 58 57 58 57 57 58 61 59 58 57 54 55 52 51 48 41 44 41 38 38 28 27 28 28 38 45 40 41 41 43 46 49 49 52 54 50 45 45 44 42 41 44
55 56 55 55 53 54 55 55 52 51 51 53 55 48 36 34 32 34 35 29 29 26 27 33 36 41 42 40 41 43 47 51 54 54 48 48 44 46 46 47 44 43 46
45 47 49 49 49 50 49 48 43 38 29 31 35 38 37 36 33 33 30 32 34 34 36 37 37 41 42 39 37 41 39 41 43 43 42 41 43 45 47 49 50 44 41
40 43 46 45 48 45 40 36 33 34 29 28 28 35 36 34 31 26 30 32 30 26 26 25 28 33 36 37 39 41 41 41 41 43 45 44 50 48 52 51 47 45 43
39 41 40 39 37 33 30 34 33 32 32 33 29 30 35 30 26 17 17 20 23 25 27 28 31 34 38 41 43 45 46 49 49 49 49 49 49 47 53 50 52 51 50
23 27 27 27 27 29 33 36 41 40 38 37 39 31 21 14 13 17 22 27 27 32 34 35 37 38 41 43 45 47 49 51 52 52 54 56 55 56 57 54 53 57 57
23 23 26 25 27 24 24 22 19 19 22 23 14 6 10 14 19 25 28 30 33 37 41 42 44 46 49 51 54 56 57 58 58 59 58 60 61 61 61 62 59 57 53
17 18 22 25 23 18 9 5 3 2 5 6 10 14 18 21 25 29 33 36 39 42 46 48 50 52 55 58 60 63 63 63 64 64 64 66 67 66 65 65 64 55 49
16 20 20 13 9 7 8 9 10 11 12 14 17 22 25 29 32 36 40 43 46 50 53 56 59 61 62 65 67 68 69 70 71 72 73 73 73 72 70 69 66 55 57
7 8 10 10 8 8 9 9 12 13 17 21 25 28 32 35 39 43 47 51 55 59 62 64 66 68 70 73 74 75 78 79 79 77 75 79 74 74 70 61 64 52 49
12 11 9 9 8 9 12 16 19 22 25 28 32 35 39 43 48 51 54 57 61 64 68 71 73 75 76 79 81 82 85 88 88 80 78 80 85 73 57 63 60 52 46
8 7 7 10 14 18 20 22 25 29 32 35 38 43 47 50 52 55 59 64 66 69 72 75 78 80 81 84 87 89 92 95 97 80 82 84 84 70 71 71 62 50 48
9 13 16 18 20 22 25 29 31 34 38 41 44 48 51 54 58 62 65 68 71 73 75 78 82 84 86 88 93 96 100 103 97 74 64 69 64 66 63 61 42 55 49
16 19 22 25 26 29 32 35 38 41 44 47 49 53 57 62 66 68 69 71 73 76 80 81 84 86 89 92 98 105 102 83 73 72 70 50 41 53 52 48 52 46 44
25 27 29 31 34 36 38 40 43 47 49 52 57 61 66 67 68 71 72 74 76 78 80 80 84 89 93 98 104 89 66 57 50 54 43 54 41 41 44 53 54 57 49